[[{"header":{"parameterUnit":"m.s-1","parameterCategory":1,"la1":30.6,"la2":28.766,"lo1":-90.7593,"lo2":-88.6598,"dx":0.0162,"dy":0.0183,"nx":116,"ny":114,"refTime":"2023-01-20T06:00:00:Z","depth":0,"parameterNumber":2,"parameterNumberName":"U-component_of_WINDS"},"data":[0.0,0.0,0.0,0.0,0.0,0.0,0.0,0.0,0.0,0.0,0.0,0.0,0.0,0.0,0.0,0.0,0.0,0.0,0.0,0.0,0.0,0.0,0.0,0.0,0.0,0.0,0.0,0.0,0.0,0.0,0.0,0.0,0.0,0.0,0.0,0.0,0.0,0.0,0.0,0.0,0.0,0.0,0.0,0.0,0.0,0.0,0.0,0.0,0.0,0.0,0.0,0.0,0.0,0.0,0.0,0.0,0.0,0.0,0.0,0.0,0.0,0.0,0.0,0.0,0.0,0.0,0.0,0.0,0.0,0.0,0.0,0.0,0.0,0.0,0.0,0.0,0.0,0.0,0.0,0.0,0.0,0.0,0.0,0.0,0.0,0.0,0.0,0.0,0.0,0.0,0.0,0.0,0.0,0.0,0.0,0.0,0.0,0.0,0.0,0.0,0.0,0.0,0.0,0.0,0.0,0.0,0.0,0.0,0.0,0.0,0.0,0.0,0.0,0.0,0.0,0.0,0.0,0.0,0.0,0.0,0.0,0.0,0.0,0.0,0.0,0.0,0.0,0.0,0.0,0.0,0.0,0.0,0.0,0.0,0.0,0.0,0.0,0.0,0.0,0.0,0.0,0.0,0.0,0.0,0.0,0.0,0.0,0.0,0.0,0.0,0.0,0.0,0.0,0.0,0.0,0.0,0.0,0.0,0.0,0.0,0.0,0.0,0.0,0.0,0.0,0.0,0.0,0.0,0.0,0.0,0.0,0.0,0.0,0.0,0.0,0.0,0.0,0.0,0.0,0.0,0.0,0.0,0.0,0.0,0.0,0.0,0.0,0.0,0.0,0.0,0.0,0.0,0.0,0.0,0.0,0.0,0.0,0.0,0.0,0.0,0.0,0.0,0.0,0.0,0.0,0.0,0.0,0.0,0.0,0.0,0.0,0.0,0.0,0.0,0.0,0.0,0.0,0.0,0.0,0.0,0.0,0.0,0.0,0.0,0.0,0.0,0.0,0.0,0.0,0.0,0.0,0.0,0.0,0.0,0.0,0.0,0.0,0.0,0.0,0.0,0.0,0.0,0.0,0.0,0.0,0.0,0.0,0.0,0.0,0.0,0.0,0.0,0.0,0.0,0.0,0.0,0.0,0.0,0.0,0.0,0.0,0.0,0.0,0.0,0.0,0.0,0.0,0.0,0.0,0.0,0.0,0.0,0.0,0.0,0.0,0.0,0.0,0.0,0.0,0.0,0.0,0.0,0.0,0.0,0.0,0.0,0.0,0.0,0.0,0.0,0.0,0.0,0.0,0.0,0.0,0.0,0.0,0.0,0.0,0.0,0.0,0.0,0.0,0.0,0.0,0.0,0.0,0.0,0.0,0.0,0.0,0.0,0.0,0.0,0.0,0.0,0.0,0.0,0.0,0.0,0.0,0.0,0.0,0.0,0.0,0.0,0.0,0.0,0.0,0.0,0.0,0.0,0.0,0.0,0.0,0.0,0.0,0.0,0.0,0.0,0.0,0.0,0.0,0.0,0.0,0.0,0.0,0.0,0.0,0.0,0.0,0.0,0.0,0.0,0.0,0.0,0.0,0.0,0.0,0.0,0.0,0.0,0.0,0.0,0.0,0.0,0.0,0.0,0.0,0.0,0.0,0.0,0.0,0.0,0.0,0.0,0.0,0.0,0.0,0.0,0.0,0.0,0.0,0.0,0.0,0.0,0.0,0.0,0.0,0.0,0.0,0.0,0.0,0.0,0.0,0.0,0.0,0.0,0.0,0.0,0.0,0.0,0.0,0.0,0.0,0.0,0.0,0.0,0.0,0.0,0.0,0.0,0.0,0.0,0.0,0.0,0.0,0.0,0.0,0.0,0.0,0.0,0.0,0.0,0.0,0.0,0.0,0.0,0.0,0.0,0.0,0.0,0.0,0.0,0.0,0.0,0.0,0.0,0.0,0.0,0.0,0.0,0.0,0.0,0.0,0.0,0.0,0.0,0.0,0.0,0.0,0.0,0.0,0.0,0.0,0.0,0.0,0.0,0.0,0.0,0.0,0.0,0.0,0.0,0.0,0.0,0.0,0.0,0.0,0.0,0.0,0.0,0.0,0.0,0.0,0.0,0.0,0.0,0.0,0.0,0.0,0.0,0.0,0.0,0.0,0.0,0.0,0.0,0.0,0.0,0.0,0.0,0.0,0.0,0.0,0.0,0.0,0.0,0.0,0.0,0.0,0.0,0.0,0.0,0.0,0.0,0.0,0.0,0.0,0.0,0.0,0.0,0.0,0.0,0.0,0.0,0.0,0.0,0.0,0.0,0.0,0.0,0.0,0.0,0.0,0.0,0.0,0.0,0.0,0.0,0.0,0.0,0.0,0.0,0.0,0.0,0.0,0.0,0.0,0.0,0.0,0.0,0.0,0.0,0.0,0.0,0.0,0.0,0.0,0.0,0.0,0.0,0.0,0.0,0.0,0.0,0.0,0.0,0.0,0.0,0.0,0.0,0.0,0.0,0.0,0.0,0.0,0.0,0.0,0.0,0.0,0.0,0.0,0.0,0.0,0.0,0.0,0.0,0.0,0.0,0.0,0.0,0.0,0.0,0.0,0.0,0.0,0.0,0.0,0.0,0.0,0.0,0.0,0.0,0.0,0.0,0.0,0.0,0.0,0.0,0.0,0.0,0.0,0.0,0.0,0.0,0.0,0.0,0.0,0.0,0.0,0.0,0.0,0.0,0.0,0.0,0.0,0.0,0.0,0.0,0.0,0.0,0.0,0.0,0.0,0.0,0.0,0.0,0.0,0.0,0.0,0.0,0.0,0.0,0.0,0.0,0.0,0.0,0.0,0.0,0.0,0.0,0.0,0.0,0.0,0.0,0.0,0.0,0.0,0.0,0.0,0.0,0.0,0.0,0.0,0.0,0.0,0.0,0.0,0.0,0.0,0.0,0.0,0.0,0.0,0.0,0.0,0.0,0.0,0.0,0.0,0.0,0.0,0.0,0.0,0.0,0.0,0.0,0.0,0.0,0.0,0.0,0.0,0.0,0.0,0.0,0.0,0.0,0.0,0.0,0.0,0.0,0.0,0.0,0.0,0.0,0.0,0.0,0.0,0.0,0.0,0.0,0.0,0.0,0.0,0.0,0.0,0.0,0.0,0.0,0.0,0.0,0.0,0.0,0.0,0.0,0.0,0.0,0.0,0.0,0.0,0.0,0.0,0.0,0.0,0.0,0.0,0.0,0.0,0.0,0.0,0.0,0.0,0.0,0.0,0.0,0.0,0.0,0.0,0.0,0.0,0.0,0.0,0.0,0.0,0.0,0.0,0.0,0.0,0.0,0.0,0.0,0.0,0.0,0.0,0.0,0.0,0.0,0.0,0.0,0.0,0.0,0.0,0.0,0.0,0.0,0.0,0.0,0.0,0.0,0.0,0.0,0.0,0.0,0.0,0.0,0.0,0.0,0.0,0.0,0.0,0.0,0.0,0.0,0.0,0.0,0.0,0.0,0.0,0.0,0.0,0.0,0.0,0.0,0.0,0.0,0.0,0.0,0.0,0.0,0.0,0.0,0.0,0.0,0.0,0.0,0.0,0.0,0.0,0.0,0.0,0.0,0.0,0.0,0.0,0.0,0.0,0.0,0.0,0.0,0.0,0.0,0.0,0.0,0.0,0.0,0.0,0.0,0.0,0.0,0.0,0.0,0.0,0.0,0.0,0.0,0.0,0.0,0.0,0.0,0.0,0.0,0.0,0.0,0.0,0.0,0.0,0.0,0.0,0.0,0.0,0.0,0.0,0.0,0.0,0.0,0.0,0.0,0.0,0.0,0.0,0.0,0.0,0.0,0.0,0.0,0.0,0.0,0.0,0.0,0.0,0.0,0.0,0.0,0.0,0.0,0.0,0.0,0.0,0.0,0.0,0.0,0.0,0.0,0.0,0.0,0.0,0.0,0.0,0.0,0.0,0.0,0.0,0.0,0.0,0.0,0.0,0.0,0.0,0.0,0.0,0.0,0.0,0.0,0.0,0.0,0.0,0.0,0.0,0.0,0.0,0.0,0.0,0.0,0.0,0.0,0.0,0.0,0.0,0.0,0.0,0.0,0.0,0.0,0.0,0.0,0.0,0.0,0.0,0.0,0.0,0.0,0.0,0.0,0.0,0.0,0.0,0.0,0.0,0.0,0.0,0.0,0.0,0.0,0.0,0.0,0.0,0.0,0.0,0.0,0.0,0.0,0.0,0.0,0.0,0.0,0.0,0.0,0.0,0.0,0.0,0.0,0.0,0.0,0.0,0.0,0.0,0.0,0.0,0.0,0.0,0.0,0.0,0.0,0.0,0.0,0.0,0.0,0.0,0.0,0.0,0.0,0.0,0.0,0.0,0.0,0.0,0.0,0.0,0.0,0.0,0.0,0.0,0.0,0.0,0.0,0.0,0.0,0.0,0.0,0.0,0.0,0.0,0.0,0.0,0.0,0.0,0.0,0.0,0.0,0.0,0.0,0.0,0.0,0.0,0.0,0.0,0.0,0.0,0.0,0.0,0.0,0.0,0.0,0.0,0.0,0.0,0.0,0.0,0.0,0.0,0.0,0.0,0.0,0.0,0.0,0.0,0.0,0.0,0.0,0.0,0.0,0.0,0.0,0.0,0.0,0.0,0.0,0.0,0.0,0.0,0.0,0.0,0.0,0.0,0.0,0.0,0.0,0.0,0.0,0.0,0.0,0.0,0.0,0.0,0.0,0.0,0.0,0.0,0.0,0.0,0.0,0.0,0.0,0.0,0.0,0.0,0.0,0.0,0.0,0.0,0.0,0.0,0.0,0.0,0.0,0.0,0.0,0.0,0.0,0.0,0.0,0.0,0.0,0.0,0.0,0.0,0.0,0.0,0.0,0.0,0.0,0.0,0.0,0.0,0.0,0.0,0.0,0.0,0.0,0.0,0.0,0.0,0.0,0.0,0.0,0.0,0.0,0.0,0.0,0.0,0.0,0.0,0.0,0.0,0.0,0.0,0.0,0.0,0.0,0.0,0.0,0.0,0.0,0.0,0.0,0.0,0.0,0.0,0.0,0.0,0.0,0.0,0.0,0.0,0.0,0.0,0.0,0.0,0.0,0.0,0.0,0.0,0.0,0.0,0.0,0.0,0.0,0.0,0.0,0.0,0.0,0.0,0.0,0.0,0.0,0.0,0.0,0.0,0.0,0.0,0.0,0.0,0.0,0.0,0.0,0.0,0.0,0.0,0.0,0.0,0.0,0.0,0.0,0.0,0.0,0.0,0.0,0.0,0.0,0.0,0.0,0.0,0.0,0.0,0.0,0.0,0.0,0.0,0.0,0.0,0.0,0.0,0.0,0.0,0.0,0.0,0.0,0.0,0.0,0.0,0.0,0.0,0.0,0.0,0.0,0.0,0.0,0.0,0.0,0.0,0.0,0.0,0.0,0.0,0.0,0.0,0.0,0.0,0.0,0.0,0.0,0.0,0.0,0.0,0.0,0.0,0.0,0.0,0.0,0.0,0.0,0.0,0.0,0.0,0.0,0.0,0.0,0.0,0.0,0.0,0.0,0.0,0.0,0.0,0.0,0.0,0.0,0.0,0.0,0.0,0.0,0.0,0.0,0.0,0.0,0.0,0.0,0.0,0.0,0.0,0.0,0.0,0.0,0.0,0.0,0.0,0.0,0.0,0.0,0.0,0.0,0.0,0.0,0.0,0.0,0.0,0.0,0.0,0.0,0.0,0.0,0.0,0.0,0.0,0.0,0.0,0.0,0.0,0.0,0.0,0.0,0.0,0.0,0.0,0.0,0.0,0.0,0.0,0.0,0.0,0.0,0.0,0.0,0.0,0.0,0.0,0.0,0.0,0.0,0.0,0.0,0.0,0.0,0.0,0.0,0.0,0.0,0.0,0.0,0.0,0.0,0.0,0.0,0.0,0.0,0.0,0.0,0.0,0.0,0.0,0.0,0.0,0.0,0.0,0.0,0.0,0.0,0.0,0.0,0.0,0.0,0.0,0.0,0.0,0.0,0.0,0.0,0.0,0.0,0.0,0.0,0.0,0.0,0.0,0.0,0.0,0.0,0.0,0.0,0.0,0.0,0.0,0.0,0.0,0.0,0.0,0.0,0.0,0.0,4.576,0.0,0.0,0.0,0.0,0.0,0.0,0.0,0.0,0.0,0.0,0.0,0.0,0.0,0.0,0.0,0.0,0.0,0.0,0.0,0.0,0.0,0.0,0.0,0.0,0.0,0.0,0.0,0.0,0.0,0.0,0.0,0.0,0.0,0.0,0.0,0.0,0.0,0.0,0.0,0.0,0.0,0.0,0.0,0.0,0.0,0.0,0.0,0.0,0.0,0.0,0.0,0.0,0.0,0.0,0.0,0.0,0.0,0.0,0.0,0.0,0.0,0.0,0.0,0.0,0.0,0.0,0.0,0.0,0.0,0.0,0.0,0.0,0.0,0.0,0.0,0.0,0.0,0.0,0.0,0.0,0.0,0.0,0.0,0.0,0.0,0.0,0.0,0.0,0.0,0.0,0.0,0.0,0.0,0.0,0.0,0.0,0.0,0.0,0.0,0.0,0.0,0.0,0.0,0.0,0.0,0.0,0.0,0.0,0.0,0.0,0.0,0.0,0.0,0.0,0.0,0.0,4.6476,0.0,0.0,0.0,0.0,0.0,0.0,0.0,0.0,0.0,0.0,0.0,0.0,0.0,0.0,0.0,0.0,0.0,0.0,0.0,0.0,0.0,0.0,0.0,0.0,0.0,0.0,0.0,0.0,0.0,0.0,0.0,0.0,0.0,0.0,0.0,0.0,0.0,0.0,0.0,0.0,0.0,0.0,0.0,0.0,0.0,0.0,0.0,0.0,0.0,0.0,0.0,0.0,0.0,0.0,0.0,0.0,0.0,0.0,0.0,0.0,0.0,0.0,0.0,0.0,0.0,0.0,0.0,0.0,0.0,0.0,0.0,0.0,0.0,0.0,0.0,0.0,0.0,0.0,0.0,0.0,0.0,0.0,0.0,0.0,0.0,0.0,0.0,0.0,0.0,0.0,0.0,0.0,0.0,0.0,0.0,0.0,0.0,0.0,0.0,0.0,0.0,0.0,0.0,0.0,0.0,0.0,0.0,0.0,0.0,0.0,5.1237,5.1237,5.1274,5.1336,4.9468,4.8084,4.7295,0.0,0.0,0.0,0.0,0.0,0.0,0.0,0.0,0.0,0.0,0.0,0.0,0.0,0.0,0.0,0.0,0.0,0.0,0.0,0.0,0.0,0.0,0.0,0.0,0.0,0.0,0.0,0.0,0.0,0.0,0.0,0.0,0.0,0.0,0.0,0.0,0.0,0.0,0.0,4.088,4.1143,4.1188,4.0994,4.1441,0.0,0.0,0.0,0.0,0.0,0.0,0.0,0.0,0.0,0.0,0.0,0.0,0.0,0.0,0.0,0.0,0.0,0.0,0.0,0.0,0.0,0.0,0.0,0.0,0.0,0.0,0.0,0.0,0.0,0.0,0.0,0.0,0.0,0.0,0.0,0.0,0.0,0.0,0.0,0.0,0.0,0.0,0.0,4.3996,4.3757,0.0,0.0,0.0,0.0,0.0,0.0,0.0,0.0,0.0,0.0,0.0,0.0,0.0,0.0,5.2098,5.1977,5.2224,5.2799,5.2799,5.2836,5.2884,5.2884,5.3251,5.3885,5.2884,0.0,5.0255,5.0763,0.0,0.0,0.0,0.0,0.0,0.0,0.0,0.0,0.0,0.0,0.0,0.0,0.0,0.0,0.0,0.0,0.0,0.0,0.0,0.0,0.0,0.0,0.0,0.0,0.0,0.0,0.0,0.0,0.0,0.0,0.0,0.0,0.0,0.0,0.0,0.0,4.2306,4.2511,4.2992,4.3077,4.3105,4.3132,4.3304,4.2874,4.2092,4.2092,0.0,0.0,0.0,0.0,0.0,0.0,0.0,0.0,0.0,0.0,0.0,0.0,0.0,0.0,0.0,0.0,0.0,0.0,0.0,0.0,0.0,0.0,0.0,0.0,0.0,0.0,0.0,0.0,0.0,0.0,0.0,0.0,0.0,0.0,0.0,0.0,0.0,0.0,0.0,4.6228,4.6603,4.6232,4.7665,4.8729,0.0,0.0,0.0,0.0,0.0,0.0,0.0,0.0,0.0,5.2431,5.2645,5.303,5.356,5.3555,5.4101,5.5233,5.5233,5.5458,5.5899,5.5899,5.6339,5.7068,5.6737,5.593,5.4709,5.3053,5.2028,5.1539,0.0,0.0,0.0,0.0,0.0,0.0,0.0,0.0,0.0,0.0,0.0,0.0,0.0,0.0,0.0,0.0,0.0,0.0,0.0,0.0,0.0,3.5207,0.0,0.0,0.0,0.0,0.0,0.0,0.0,0.0,0.0,0.0,0.0,4.4085,4.4656,4.5118,4.5447,4.565,4.5717,4.5717,4.5717,4.456,4.2591,4.2591,4.2462,0.0,0.0,0.0,0.0,0.0,0.0,0.0,0.0,0.0,0.0,0.0,0.0,0.0,0.0,0.0,0.0,0.0,0.0,0.0,0.0,0.0,0.0,0.0,0.0,0.0,0.0,0.0,0.0,0.0,0.0,0.0,0.0,0.0,0.0,0.0,0.0,0.0,0.0,4.7774,4.865,4.8344,4.9787,5.0868,0.0,0.0,0.0,0.0,0.0,0.0,5.2565,5.3065,5.3574,5.4224,5.4759,5.5311,5.5941,5.5941,5.6743,5.8358,5.8358,5.8651,5.9245,5.9245,5.9685,6.0444,6.0003,5.9459,5.87,5.5678,5.3849,5.2941,5.3201,0.0,0.0,0.0,5.3886,5.4306,0.0,0.0,0.0,0.0,0.0,0.0,0.0,0.0,0.0,0.0,0.0,0.0,0.0,0.0,3.7094,3.7247,3.8648,3.9212,0.0,0.0,0.0,0.0,0.0,0.0,0.0,0.0,0.0,4.4265,4.5875,4.7059,4.7752,4.8436,4.8781,4.8781,4.8781,4.6744,4.3355,4.3355,4.2956,4.242,0.0,0.0,0.0,0.0,0.0,0.0,0.0,0.0,0.0,0.0,0.0,0.0,0.0,0.0,0.0,0.0,0.0,0.0,0.0,0.0,0.0,0.0,0.0,0.0,0.0,0.0,0.0,0.0,0.0,0.0,0.0,0.0,0.0,0.0,0.0,0.0,0.0,0.0,0.0,4.8301,4.9787,0.0,0.0,0.0,0.0,5.3609,5.4322,5.4572,5.4291,5.5015,5.5476,5.5519,5.6282,5.7771,6.0083,6.0083,6.0927,6.2499,6.2499,6.2536,6.2572,6.2572,6.3019,6.3766,6.2187,6.1453,6.1233,5.8773,5.6828,5.5401,5.5434,5.5691,5.6058,5.604,5.605,5.6,0.0,0.0,0.0,0.0,0.0,0.0,0.0,0.0,0.0,0.0,0.0,0.0,0.0,3.9663,3.9588,3.9657,4.0264,3.9956,3.8269,0.0,0.0,0.0,0.0,0.0,0.0,0.0,4.6172,4.7886,4.8605,4.9289,5.0017,5.0288,5.0423,5.0423,5.0423,4.9416,4.7631,4.6177,4.5432,4.5122,4.413,4.4375,0.0,0.0,0.0,0.0,0.0,0.0,0.0,0.0,0.0,0.0,0.0,0.0,0.0,0.0,0.0,0.0,0.0,0.0,0.0,0.0,0.0,0.0,0.0,0.0,0.0,0.0,0.0,0.0,0.0,0.0,0.0,0.0,0.0,0.0,0.0,0.0,0.0,5.1342,5.2873,0.0,0.0,5.3724,5.4095,5.4912,5.4738,5.5012,5.591,5.7183,5.8138,5.8657,5.9973,6.1331,6.2775,6.2775,6.3576,6.5191,6.4671,6.4671,6.5148,6.4628,6.4597,6.4854,6.4237,6.3686,6.3105,6.1661,5.9239,5.6381,5.6381,5.6304,5.6275,5.6796,5.7312,5.771,0.0,0.0,0.0,0.0,0.0,0.0,0.0,0.0,0.0,0.0,0.0,3.8634,4.1087,4.1352,4.1457,4.1725,4.1871,4.1123,3.9128,0.0,0.0,0.0,0.0,0.0,0.0,4.6471,4.8313,5.0339,5.1204,5.1995,5.2723,5.2723,5.2723,5.2723,5.2723,5.2325,5.1496,4.95,4.8079,4.7056,4.5797,4.596,4.6838,0.0,0.0,0.0,0.0,0.0,0.0,0.0,0.0,0.0,0.0,0.0,0.0,0.0,0.0,0.0,0.0,0.0,0.0,0.0,0.0,0.0,0.0,0.0,0.0,0.0,0.0,0.0,0.0,0.0,0.0,0.0,0.0,0.0,0.0,0.0,5.3004,5.4614,5.6237,5.722,5.722,5.6503,5.6458,5.7541,5.7135,5.7409,5.8762,6.0114,6.1221,6.2028,6.3349,6.4597,6.5711,6.5705,6.6409,6.7724,6.7167,6.7203,6.7687,6.6873,6.6653,6.6873,6.6065,6.5558,6.5241,6.412,6.1918,5.9165,5.8321,5.8134,5.8368,5.8889,5.9406,5.9784,0.0,0.0,0.0,0.0,0.0,0.0,0.0,0.0,0.0,0.0,3.7253,3.8509,4.0775,4.1863,4.2726,4.349,4.349,4.2814,4.1333,4.1041,0.0,0.0,0.0,0.0,4.4495,4.8826,5.118,5.1336,5.3585,5.5006,5.5699,5.5767,5.5767,5.5733,5.5767,5.5369,5.4575,5.3078,5.0769,4.815,4.874,4.8571,4.7921,0.0,0.0,0.0,0.0,0.0,0.0,0.0,0.0,0.0,0.0,0.0,0.0,0.0,0.0,0.0,0.0,0.0,0.0,0.0,0.0,0.0,0.0,0.0,0.0,0.0,0.0,0.0,0.0,0.0,0.0,0.0,0.0,0.0,5.1316,5.3867,5.624,5.7929,5.9496,6.0487,6.0487,5.9783,5.9967,6.16,6.1673,6.2034,6.2903,6.3759,6.4573,6.5405,6.6182,6.7357,6.8928,6.8928,6.9332,7.0146,7.0117,7.011,7.011,6.9295,6.9376,6.997,6.7614,6.7033,6.7627,6.6035,6.4897,6.3913,6.1484,6.1308,6.2412,6.2449,6.2449,6.2103,0.0,0.0,0.0,0.0,0.0,0.0,0.0,0.0,0.0,0.0,3.9178,4.147,4.3373,4.4766,4.5872,4.6602,4.5196,4.3612,4.209,0.0,0.0,0.0,0.0,0.0,4.8446,5.0262,5.2259,5.4448,5.564,5.6012,5.5733,5.679,5.7002,5.6519,5.707,5.69,5.6156,5.575,5.4465,5.2503,4.9416,4.8706,4.9366,0.0,0.0,0.0,0.0,0.0,0.0,0.0,0.0,0.0,0.0,0.0,0.0,0.0,0.0,0.0,0.0,0.0,0.0,0.0,0.0,0.0,0.0,0.0,0.0,0.0,0.0,0.0,0.0,0.0,0.0,0.0,0.0,5.3506,5.428,5.5588,5.7483,6.0278,6.152,6.2132,6.2132,6.1949,6.2499,6.4157,6.3723,6.428,6.6262,6.6599,6.707,6.7864,6.8678,6.9302,6.9779,6.9779,7.0183,7.0947,7.0367,7.0403,7.0947,7.0146,6.9889,7.0073,6.9412,6.8898,6.8495,6.7474,6.6556,6.5668,6.3802,6.2923,6.2755,6.3388,6.324,6.2504,0.0,0.0,0.0,0.0,0.0,0.0,0.0,0.0,0.0,0.0,4.0227,4.2633,4.3952,4.571,4.6861,4.6974,4.5507,4.3822,4.1948,0.0,0.0,0.0,0.0,4.8025,5.0971,5.2664,5.4718,5.7085,5.7805,5.7974,5.7568,5.8761,5.893,5.822,5.8964,5.8896,5.8152,5.7839,5.7239,5.6156,5.2934,5.1581,5.1401,5.0507,5.0194,5.0213,4.9704,4.9201,4.866,4.8052,0.0,0.0,0.0,0.0,0.0,0.0,0.0,0.0,0.0,0.0,0.0,0.0,0.0,0.0,0.0,0.0,0.0,0.0,0.0,0.0,0.0,0.0,0.0,0.0,5.4614,5.7183,5.9355,5.9795,6.0933,6.3802,6.4861,6.5472,6.5845,6.5545,6.5919,6.7203,6.6886,6.7217,6.8612,6.8722,6.9236,7.036,7.0881,7.1431,7.2092,7.2129,7.2165,7.2305,7.1835,7.1688,7.1784,7.0984,7.0807,0.0,7.0403,7.0036,6.9846,6.9045,6.8428,0.0,0.0,0.0,0.0,0.0,6.5109,6.4438,0.0,0.0,0.0,0.0,0.0,0.0,0.0,0.0,0.0,0.0,0.0,4.2726,4.322,4.5391,4.6481,4.5763,4.4932,4.3653,0.0,0.0,0.0,4.4893,4.8319,5.1005,5.2782,5.5683,5.7872,5.925,6.0071,6.0452,6.0385,6.1264,6.1264,6.052,6.1332,6.1231,6.0452,5.98,5.9462,5.9259,5.7949,5.5987,5.3847,5.378,5.3306,5.2664,5.2604,5.1352,4.9822,5.0238,0.0,0.0,0.0,0.0,0.0,0.0,0.0,0.0,0.0,0.0,0.0,0.0,0.0,0.0,0.0,0.0,0.0,0.0,0.0,0.0,0.0,0.0,0.0,0.0,5.7765,6.1288,6.5295,6.5448,6.5932,6.7994,6.8788,6.9479,7.0293,6.9559,6.9449,7.0447,7.0337,7.033,7.0624,0.0,0.0,0.0,0.0,7.3443,7.4911,7.4903,7.4544,7.3824,7.3824,7.345,7.2753,7.2041,7.2114,7.2672,7.1248,7.0954,7.138,7.066,7.0264,6.9823,6.6946,6.6518,6.7474,6.7363,6.7294,0.0,0.0,0.0,0.0,0.0,0.0,0.0,0.0,0.0,0.0,3.8277,4.1735,4.3755,4.2631,4.5067,4.6481,4.5763,4.4444,4.37,0.0,0.0,4.5047,4.881,5.0882,5.3185,5.5886,5.8254,5.9911,6.0849,6.2202,6.254,6.1985,6.3328,6.3555,6.2878,6.3622,6.3521,6.2835,6.2699,6.2303,6.1714,6.1443,5.9235,5.608,5.5505,5.5192,5.4964,5.4372,5.4262,5.4236,5.3168,5.2461,5.1716,4.9929,0.0,0.0,0.0,0.0,0.0,0.0,0.0,0.0,0.0,0.0,0.0,0.0,0.0,0.0,0.0,0.0,0.0,0.0,0.0,0.0,5.8798,6.1991,6.5288,6.8715,7.0704,7.1769,7.1578,7.113,7.116,7.1945,7.0734,7.0734,7.2833,7.1791,7.1938,7.3883,7.3377,0.0,7.4397,7.4426,7.4581,7.4903,7.4903,7.483,7.4654,0.0,0.0,7.4434,7.428,7.428,7.4434,7.4103,7.3333,7.2268,7.2092,7.1284,7.0043,6.9412,6.8943,6.8512,6.7863,6.72,6.6475,0.0,0.0,0.0,0.0,0.0,0.0,0.0,0.0,0.0,0.0,4.1528,4.3146,4.2394,4.3978,4.479,4.4045,4.2956,0.0,0.0,4.5256,4.7319,5.1048,5.3391,5.5996,5.8998,6.0486,6.1806,6.2956,6.369,6.3869,6.3541,6.4624,6.4952,6.4613,6.4996,6.5155,6.5111,6.4367,6.4038,6.4015,6.3642,6.2594,6.1095,5.9607,5.8583,5.7906,5.7949,5.7442,5.6697,5.5953,5.4916,5.3632,5.182,5.0419,4.9286,0.0,0.0,0.0,0.0,0.0,0.0,0.0,0.0,0.0,0.0,0.0,0.0,0.0,0.0,5.419,0.0,0.0,5.9544,6.2395,6.5588,6.8825,7.2048,7.3891,7.4588,7.381,7.3369,7.3252,7.3663,7.2966,7.301,7.4221,7.3553,7.3619,7.483,7.4507,7.4654,7.5461,7.5498,7.5682,7.6114,7.6114,7.5894,7.5498,7.5498,7.5278,7.4903,7.4903,7.4903,7.4903,7.4903,7.4213,7.3083,7.2679,7.2018,7.1284,7.1284,7.055,6.9449,6.9052,6.8391,6.7644,0.0,0.0,0.0,0.0,0.0,0.0,0.0,0.0,0.0,0.0,4.1087,4.2191,4.1887,4.2652,4.2888,0.0,0.0,0.0,0.0,4.7319,4.9984,5.3247,5.6156,5.8998,6.1873,6.2787,6.3903,6.5256,6.5392,6.5459,6.5493,6.6068,6.6349,6.6349,6.6349,6.6677,6.7174,6.5967,6.5831,6.6315,6.5696,6.5831,6.618,6.4387,6.2753,6.14,6.1501,6.0157,5.8297,5.8161,5.6639,5.4642,5.3568,5.2604,5.1591,5.0275,5.0146,0.0,0.0,0.0,0.0,0.0,0.0,0.0,0.0,0.0,5.4693,5.484,5.5611,5.6638,5.7765,6.0493,6.3362,6.5845,6.8928,7.1982,7.4764,7.5828,7.6085,7.5454,7.5234,7.5204,7.5344,7.5087,7.5014,7.5344,7.5204,7.5197,7.5344,7.538,7.5645,7.6306,7.6342,7.6636,7.7281,7.7281,7.6959,7.6342,7.6342,7.5975,7.538,7.538,7.538,7.5344,7.5197,7.4771,7.4118,7.3303,7.2973,7.2973,7.2973,7.2092,7.0777,7.044,6.9816,6.9112,0.0,0.0,0.0,0.0,0.0,0.0,0.0,0.0,0.0,0.0,0.0,0.0,0.0,0.0,0.0,0.0,0.0,0.0,4.7346,4.9612,5.2765,5.7079,5.9539,6.1873,6.4174,6.5584,6.67,6.7523,6.8233,6.8605,6.8605,6.8673,6.8707,6.8707,6.8707,6.8774,6.8842,6.8673,6.8639,6.8707,6.8639,6.8639,6.8707,6.8436,6.7377,6.5719,6.3203,6.124,5.9742,5.909,5.739,5.5665,5.6147,5.5344,5.416,5.3933,0.0,5.2296,5.3514,0.0,0.0,5.1017,5.1358,5.1798,0.0,0.0,5.5653,5.6376,5.7728,5.949,6.1728,6.423,6.6733,6.9155,7.2268,7.4727,7.5799,7.6665,7.7142,7.7024,7.6416,7.6232,7.6959,7.5747,7.5491,7.6914,7.6379,7.6269,7.6995,7.7024,7.7069,7.7179,7.7179,7.7215,7.7281,7.7281,7.7244,7.7179,7.7179,7.7134,7.7024,7.7024,7.7024,7.6995,7.6269,7.5909,7.5763,7.4948,7.461,7.461,7.461,7.4067,7.3127,7.1681,7.0653,6.9963,0.0,0.0,0.0,0.0,0.0,0.0,0.0,0.0,0.0,0.0,0.0,0.0,0.0,0.0,0.0,0.0,0.0,4.4877,4.8293,5.1446,5.5175,5.9674,6.2042,6.4072,6.5821,6.6914,6.7817,6.8605,6.8944,6.9113,6.9113,6.9113,6.9316,6.9733,6.9282,6.9586,7.0319,6.944,6.935,6.9688,6.9282,6.935,6.9597,6.8256,6.7377,6.6531,6.4444,6.2448,0.0,0.0,5.8404,5.7525,5.6959,5.6393,5.5721,5.4807,5.4097,0.0,5.3718,0.0,0.0,0.0,5.3849,5.4944,5.5563,5.7807,5.9899,6.0224,6.1618,6.349,6.5912,6.7967,7.0066,0.0,7.4434,7.5865,7.6702,7.7105,7.6951,7.6004,7.6012,7.6416,7.7208,7.6702,7.6592,7.7244,7.6995,7.6959,7.7281,7.7281,7.7281,7.7281,7.7281,7.7281,7.7281,7.7281,7.7281,7.7281,7.7281,7.7281,7.7281,7.7281,7.7281,7.7244,7.6452,7.6093,7.6056,7.5241,7.4903,7.4903,7.4903,7.4691,7.4331,7.3619,7.2298,7.0947,0.0,0.0,0.0,0.0,0.0,0.0,0.0,0.0,0.0,0.0,0.0,0.0,0.0,0.0,0.0,0.0,0.0,4.4919,4.8681,5.2305,5.6393,6.1095,6.3599,6.5696,6.7411,6.8166,6.891,6.9711,6.9711,6.9711,6.9711,6.9711,6.9992,7.0466,6.9958,7.0286,7.1233,7.015,7.0026,7.0466,6.9925,6.9891,6.9936,6.7681,6.6294,6.5381,6.3893,6.1806,0.0,0.0,5.797,5.748,5.744,5.7286,5.6893,5.5864,5.5365,5.5031,5.4389,0.0,0.0,5.5072,5.6396,5.7819,5.9444,6.1525,6.327,6.4002,6.5295,6.702,6.9442,7.102,7.2672,7.4874,7.5902,7.6636,7.7208,7.6914,7.6114,7.4727,7.4691,7.5168,7.6225,7.6702,7.7069,7.7281,7.7281,7.7281,7.7281,7.7281,7.7281,7.7281,7.7281,7.7281,7.7281,7.7281,7.7281,7.7281,7.7281,7.7281,7.7281,7.7281,7.7281,7.7281,7.6673,7.6416,7.6379,7.5784,7.5564,7.5564,7.5564,7.5417,7.5278,7.5491,7.4169,7.2445,0.0,0.0,0.0,0.0,0.0,0.0,0.0,0.0,0.0,0.0,0.0,0.0,0.0,0.0,0.0,0.0,4.2315,4.4755,4.8473,5.1747,5.5852,6.1052,6.4116,6.6721,6.8977,6.9766,7.05,7.1233,7.1233,7.1233,7.1233,7.1233,7.1267,7.1267,7.1222,7.1267,7.13,7.1267,7.1267,7.1267,7.1222,7.0838,6.9936,6.7681,6.5019,6.2323,6.0791,0.0,0.0,0.0,5.5437,5.4286,5.7899,5.8485,0.0,5.7904,5.7404,0.0,0.0,0.0,5.781,5.7814,5.836,5.9369,6.1036,6.2652,6.4498,6.7032,6.8201,6.9516,7.1938,7.3083,7.4155,7.5799,7.6738,7.7281,7.7281,7.5968,7.4654,7.3824,7.2378,7.2085,0.0,7.5212,7.6452,7.7244,7.7281,7.7281,7.7281,7.7281,7.7281,7.7281,7.7281,7.7281,7.7281,7.7281,7.7281,7.7281,7.7281,7.7281,7.7281,7.7281,7.7281,7.7281,7.7281,7.7244,7.7244,7.7244,7.7244,7.7244,7.7244,7.6746,7.6166,7.6922,7.618,7.4683,0.0,0.0,0.0,0.0,0.0,0.0,0.0,0.0,0.0,0.0,0.0,0.0,0.0,0.0,0.0,0.0,0.0,4.4406,4.7252,5.1236,5.5175,5.8872,6.3802,6.6802,6.7546,6.9789,7.1064,7.13,7.13,7.13,7.13,7.13,7.13,7.13,7.13,7.1571,7.1988,7.1503,7.1571,7.1887,7.0421,6.9688,6.9045,6.529,6.2347,5.9808,0.0,0.0,0.0,0.0,0.0,0.0,5.5518,0.0,0.0,5.711,0.0,0.0,0.0,0.0,5.9049,6.0605,6.1547,6.249,6.4124,6.6244,6.7942,6.8302,6.8638,6.9148,6.9956,7.0323,7.1211,7.3377,7.4837,7.6078,7.7134,7.6841,7.5417,7.2452,7.3032,0.0,0.0,0.0,0.0,7.7179,7.7281,7.7281,7.7281,7.7281,7.7281,7.7281,7.7281,7.7281,7.7281,7.7281,7.7281,7.7281,7.7281,7.7281,7.7281,7.7281,7.7281,7.7281,7.7281,7.7281,7.7281,7.7281,7.7281,7.7281,7.7281,7.7142,7.6922,7.7208,7.6959,7.6298,0.0,0.0,0.0,0.0,0.0,0.0,0.0,0.0,0.0,0.0,0.0,0.0,0.0,0.0,0.0,0.0,0.0,0.0,4.6135,4.9326,5.2672,5.6156,6.0757,6.3487,6.3984,6.6159,6.7444,6.7715,6.8256,6.8662,6.8933,6.944,6.9846,7.0083,7.0387,7.0928,7.1548,7.0827,7.0455,7.0218,6.7986,6.6599,6.5459,6.1501,5.8911,0.0,0.0,0.0,0.0,0.0,0.0,0.0,0.0,0.0,0.0,0.0,0.0,0.0,0.0,6.0717,6.1477,6.3255,6.447,6.5548,6.6925,6.8496,6.9525,6.8798,6.8536,6.8345,6.8073,6.7827,6.8488,7.1211,7.2496,7.3957,7.6151,7.5968,7.4647,7.2041,7.2599,7.2599,0.0,0.0,0.0,7.6702,7.7436,7.7619,7.7318,7.7876,7.8067,7.7766,7.8031,7.8177,7.8177,7.7921,7.7619,7.7281,7.7281,7.7281,7.7281,7.7281,7.7281,7.7281,7.7281,7.7281,7.7281,7.7281,7.7281,7.7281,7.7281,7.7281,7.7281,7.7281,7.7281,7.7098,0.0,0.0,0.0,0.0,0.0,0.0,0.0,0.0,0.0,0.0,0.0,0.0,0.0,0.0,0.0,0.0,0.0,0.0,4.5124,4.625,4.8714,5.3036,5.5437,5.7365,5.8819,5.9597,6.0385,6.1231,6.2608,6.3656,6.441,6.5787,6.6836,6.7523,6.8301,6.9045,6.9699,6.8944,6.7817,6.6328,6.412,6.1931,5.9674,5.6733,0.0,0.0,0.0,0.0,0.0,0.0,0.0,0.0,0.0,0.0,0.0,0.0,0.0,5.9668,6.2023,6.3729,6.5005,6.5707,6.7019,6.8389,6.9194,6.9342,6.9126,6.8597,6.7793,6.6975,0.0,0.0,6.6249,6.9449,7.0117,7.1358,7.4573,7.37,7.2716,0.0,0.0,0.0,0.0,0.0,0.0,7.5983,0.0,7.8141,7.7399,7.8883,7.9404,7.8662,7.9368,7.9779,7.9816,7.9037,7.8214,7.7281,7.7362,7.7355,7.7281,7.7281,7.7281,7.7281,7.7281,7.7281,7.7281,7.7281,7.7281,7.7281,7.7281,7.7281,7.7281,7.7281,7.7281,7.7179,0.0,0.0,0.0,0.0,0.0,0.0,0.0,0.0,0.0,0.0,0.0,0.0,0.0,0.0,0.0,0.0,0.0,0.0,4.3708,4.567,4.7571,4.924,5.3069,5.5581,5.6511,5.7814,5.9109,6.0419,6.024,6.0511,6.1264,6.1637,6.1907,6.211,6.2313,6.2821,6.3531,6.2719,6.2516,6.2506,0.0,5.8973,5.8191,0.0,0.0,0.0,0.0,0.0,0.0,0.0,0.0,5.4017,5.4203,5.4683,5.5682,0.0,0.0,6.0674,6.4087,6.5654,6.6677,6.8028,6.861,6.8929,6.9322,6.8562,6.7578,6.7018,6.487,6.287,0.0,0.0,0.0,6.7767,7.0337,0.0,7.6225,7.6335,0.0,7.3604,0.0,7.4037,7.2635,7.4147,0.0,0.0,7.6819,7.7194,7.8214,7.8662,7.9074,7.9486,7.9111,7.9184,7.9779,7.9596,7.8772,7.7318,7.7957,7.7921,7.7281,7.7281,7.7281,7.7281,7.7281,7.7281,7.7281,7.7281,7.7281,7.7281,7.7281,7.7281,7.7281,7.7281,7.7281,7.7281,0.0,0.0,0.0,0.0,0.0,0.0,0.0,0.0,0.0,0.0,0.0,0.0,0.0,0.0,0.0,0.0,0.0,0.0,0.0,4.4395,4.5797,4.6872,4.9661,5.1352,5.1792,5.2604,5.3763,5.5243,5.4828,5.5336,5.6697,5.7036,5.7534,5.8177,5.8524,5.9268,6.024,5.9471,0.0,0.0,0.0,0.0,0.0,0.0,0.0,0.0,0.0,0.0,5.3225,5.331,5.4064,5.4983,5.4881,5.5844,5.7576,6.0272,0.0,6.2872,6.6389,6.7845,6.8628,6.9877,7.0112,6.9739,6.8535,6.764,6.6418,6.4088,6.2217,6.0633,5.9546,6.0376,6.2426,0.0,0.0,0.0,7.5674,7.6261,7.5865,0.0,7.5542,0.0,7.4691,7.5828,7.7113,0.0,7.7965,7.812,7.9074,7.9808,8.0241,8.0322,8.0241,8.0241,8.0322,8.0,7.9331,7.8398,7.889,7.8699,7.7876,7.7876,7.7656,7.7281,0.0,7.7281,7.7281,7.7281,7.7281,7.7281,7.7281,7.7281,7.7281,7.7281,7.7281,7.7281,0.0,0.0,0.0,0.0,0.0,0.0,0.0,0.0,0.0,0.0,0.0,0.0,0.0,0.0,0.0,0.0,0.0,0.0,0.0,0.0,0.0,4.55,4.6184,4.659,4.6793,4.6691,4.7428,4.9011,0.0,4.9898,5.1894,5.257,5.3577,5.4853,5.5471,5.6486,5.7636,0.0,0.0,0.0,0.0,0.0,0.0,0.0,0.0,0.0,0.0,5.1854,5.4056,5.3786,5.4725,5.6116,5.68,5.8522,6.0797,6.3177,6.4444,6.5678,6.8668,6.9951,7.0646,7.13,7.1233,7.0284,6.7602,6.6656,6.5177,6.1204,6.0146,5.9516,5.8241,5.8725,6.0737,6.4928,0.0,6.9713,7.4544,7.5307,7.5645,7.635,7.6423,7.6746,7.7546,7.7619,7.8324,7.9992,8.022,8.0175,7.9955,8.1277,8.1709,8.1004,8.1782,8.1746,8.0857,8.0359,8.0,7.9816,7.9918,7.9551,7.878,7.8662,7.8185,7.7472,0.0,0.0,7.7281,7.7281,7.7281,7.7281,7.7281,7.7281,7.7281,7.7281,7.7281,7.7281,0.0,0.0,0.0,0.0,0.0,0.0,0.0,0.0,0.0,0.0,0.0,0.0,0.0,0.0,0.0,0.0,0.0,0.0,0.0,0.0,0.0,0.0,4.4905,4.5548,4.6759,0.0,0.0,0.0,0.0,0.0,4.9593,4.9729,4.9932,5.0161,5.0296,5.0499,5.0736,0.0,0.0,0.0,0.0,0.0,0.0,0.0,0.0,0.0,5.0689,5.1175,5.1928,5.4383,5.6683,5.8499,5.8563,5.9754,6.1674,6.4493,6.6271,6.787,7.0292,7.1469,7.2056,7.2191,7.0838,6.9238,6.8268,6.5523,0.0,6.1603,5.9767,5.8315,5.8053,5.9202,6.1734,6.6519,6.8648,7.1358,7.6188,7.7517,7.8002,0.0,7.8148,7.8487,7.9294,7.9368,0.0,0.0,0.0,0.0,8.0865,8.1048,8.115,8.1004,8.1782,8.1497,8.0028,8.1203,8.113,7.9816,8.0461,8.0351,7.9559,7.889,7.8516,7.8332,0.0,0.0,7.7281,7.7281,7.7281,7.7281,7.7281,7.7281,7.7281,7.7281,7.7281,7.7281,0.0,0.0,0.0,0.0,0.0,0.0,0.0,0.0,0.0,0.0,0.0,0.0,0.0,0.0,0.0,0.0,0.0,0.0,0.0,0.0,0.0,0.0,0.0,0.0,0.0,0.0,0.0,0.0,0.0,0.0,0.0,0.0,0.0,0.0,0.0,0.0,0.0,0.0,0.0,0.0,0.0,0.0,0.0,0.0,0.0,0.0,0.0,5.1538,5.2492,5.4838,5.7952,6.0977,6.1701,6.3616,6.6068,6.8685,6.9924,7.0876,7.2761,7.3129,7.3028,7.3168,7.1136,6.868,6.698,6.4102,6.1333,5.9521,5.8543,5.8002,5.8002,5.9318,6.1441,6.464,6.6182,6.8825,7.4059,7.5168,7.6203,7.8332,7.8964,7.9551,0.0,8.0799,0.0,0.0,0.0,0.0,8.2325,8.1856,8.1636,8.1636,8.1599,8.1415,8.1056,8.1415,8.1415,8.1056,8.1452,8.1195,8.0396,7.9588,7.9001,7.8552,0.0,0.0,0.0,7.7281,7.7281,7.7281,7.7281,7.7281,7.7281,7.7281,7.7281,7.7281,0.0,0.0,0.0,0.0,0.0,0.0,0.0,0.0,0.0,0.0,0.0,0.0,0.0,0.0,0.0,0.0,0.0,0.0,0.0,0.0,0.0,0.0,0.0,0.0,0.0,0.0,0.0,0.0,0.0,0.0,0.0,0.0,0.0,0.0,0.0,0.0,0.0,0.0,0.0,0.0,0.0,0.0,0.0,0.0,0.0,0.0,0.0,0.0,5.3309,5.502,5.8095,6.1579,6.3503,6.6828,7.0295,7.1738,7.2809,7.3757,7.4991,7.4784,7.4182,7.4089,7.1321,6.796,6.5511,6.2681,5.9944,5.7612,5.7613,5.8002,5.8002,5.9024,6.0523,6.2462,6.3539,6.6079,7.1725,7.2936,7.4661,7.8405,7.9588,0.0,8.1407,8.2076,0.0,0.0,0.0,0.0,0.0,8.2802,8.2378,8.2194,8.1599,8.1562,8.2194,8.1562,8.1562,8.2194,8.2194,8.1856,8.1232,8.0432,7.9625,7.8817,0.0,0.0,0.0,7.7281,7.7281,7.7281,7.7281,7.7281,7.7281,7.7281,7.7281,7.7281,0.0,0.0,0.0,0.0,0.0,0.0,0.0,0.0,0.0,0.0,0.0,0.0,0.0,0.0,0.0,0.0,0.0,0.0,0.0,0.0,0.0,0.0,0.0,0.0,0.0,0.0,0.0,0.0,0.0,0.0,0.0,0.0,0.0,0.0,0.0,0.0,0.0,0.0,0.0,0.0,0.0,0.0,0.0,0.0,0.0,0.0,0.0,0.0,5.2564,5.4745,5.628,5.7854,6.1398,6.6717,7.1416,7.0162,7.2639,7.5816,7.5955,7.628,7.6275,7.4891,7.0734,6.6599,6.5067,6.1408,5.8217,5.7947,5.7956,5.8002,5.8002,5.8107,5.9245,6.2316,6.3539,6.6079,7.1725,7.4404,7.6754,7.9376,0.0,0.0,8.3014,8.3234,0.0,0.0,0.0,0.0,0.0,8.3344,8.2949,8.2231,8.2121,8.2121,8.2194,8.2121,8.2121,8.2194,8.2194,8.2158,8.2048,8.1269,8.0461,7.9625,0.0,0.0,0.0,7.7281,7.7281,7.7281,7.7281,7.7281,7.7281,7.7281,7.7281,7.7281,0.0,0.0,0.0,0.0,0.0,0.0,0.0,0.0,0.0,0.0,0.0,0.0,0.0,0.0,0.0,0.0,0.0,0.0,0.0,0.0,0.0,0.0,0.0,0.0,0.0,0.0,0.0,0.0,0.0,0.0,0.0,0.0,0.0,0.0,0.0,0.0,0.0,0.0,0.0,0.0,0.0,0.0,0.0,0.0,0.0,0.0,0.0,0.0,0.0,5.4375,5.5677,5.6936,5.7942,6.2382,6.7733,7.0361,7.2531,7.4762,7.7667,7.8006,7.7346,7.6451,7.1482,6.66,6.5805,6.1332,5.745,5.792,5.8002,5.8002,5.8002,5.7593,5.7844,5.9606,5.9397,6.0792,6.5955,6.7944,7.0844,7.6203,7.8442,0.0,0.0,0.0,0.0,0.0,0.0,0.0,0.0,0.0,8.3756,8.2949,8.2912,8.2912,8.2912,8.2443,8.2443,8.2912,8.2443,8.2194,8.2158,8.0873,8.0102,0.0,0.0,0.0,0.0,7.7281,7.7281,7.7281,7.7281,7.7281,7.7281,7.7281,7.7281,7.7281,0.0,0.0,0.0,0.0,0.0,0.0,0.0,0.0,0.0,0.0,0.0,0.0,0.0,0.0,0.0,0.0,0.0,0.0,0.0,0.0,0.0,0.0,0.0,0.0,0.0,0.0,0.0,0.0,0.0,0.0,0.0,0.0,0.0,0.0,0.0,0.0,0.0,0.0,0.0,0.0,0.0,0.0,0.0,0.0,0.0,0.0,0.0,0.0,0.0,0.0,0.0,5.5678,5.5359,5.8002,6.2326,6.7811,7.1264,7.4124,7.8009,7.9019,7.8764,7.7993,7.2509,6.7114,6.6363,6.1369,5.7097,5.7832,5.8002,5.8002,5.8002,5.733,5.7073,5.7886,5.7048,5.7929,6.2542,6.4127,6.7063,7.3105,0.0,0.0,0.0,0.0,0.0,0.0,0.0,0.0,0.0,0.0,8.4821,8.3793,8.3279,8.3169,8.3381,8.259,8.248,8.3022,8.248,8.2194,8.2158,8.102,8.0257,0.0,0.0,0.0,0.0,7.7281,7.7281,7.7281,7.7281,7.7281,7.7281,7.7281,7.7281,7.7281,0.0,0.0,0.0,0.0,0.0,0.0,0.0,0.0,0.0,0.0,0.0,0.0,0.0,0.0,0.0,0.0,0.0,0.0,0.0,0.0,0.0,0.0,0.0,0.0,0.0,0.0,0.0,0.0,0.0,0.0,0.0,0.0,0.0,0.0,0.0,0.0,0.0,0.0,0.0,0.0,0.0,0.0,0.0,0.0,0.0,0.0,0.0,0.0,0.0,0.0,0.0,0.0,0.0,5.4436,5.5605,6.1239,6.8342,7.4779,7.647,7.8998,8.0827,7.9352,7.3689,6.8065,6.6564,6.1369,5.7097,5.7832,5.8002,5.8002,5.8002,5.733,5.7073,5.7886,5.8002,5.9397,6.3509,6.5454,6.7687,0.0,0.0,7.5366,0.0,0.0,0.0,0.0,0.0,0.0,0.0,0.0,8.6252,8.4646,8.303,8.259,8.3381,8.259,8.2194,8.2223,8.2194,8.2194,8.2194,8.2194,0.0,0.0,0.0,0.0,0.0,7.7281,7.7281,7.7281,7.7281,7.7281,7.7281,7.7281,7.7281,7.7281,0.0,0.0,0.0,0.0,0.0,0.0,0.0,0.0,0.0,0.0,0.0,0.0,0.0,0.0,0.0,0.0,0.0,0.0,0.0,0.0,0.0,0.0,0.0,0.0,0.0,0.0,0.0,0.0,0.0,0.0,0.0,0.0,0.0,0.0,0.0,0.0,0.0,0.0,0.0,0.0,0.0,0.0,0.0,0.0,0.0,0.0,0.0,0.0,0.0,0.0,0.0,0.0,0.0,0.0,0.0,5.7844,6.2633,6.7708,7.0974,7.278,7.3399,7.1859,6.787,6.4068,6.3079,5.9756,5.7097,5.7832,5.8002,5.8002,5.8002,5.733,5.7257,5.8609,5.8364,5.8841,6.1227,0.0,0.0,7.1681,7.8434,0.0,0.0,0.0,0.0,0.0,0.0,0.0,0.0,0.0,0.0,8.5425,8.4389,8.3948,8.4233,8.2884,8.248,8.3022,8.2443,8.2194,8.2158,0.0,0.0,0.0,0.0,0.0,0.0,7.7281,7.7281,7.7281,7.7281,7.7281,7.7281,7.7281,7.7281,7.7281,0.0,0.0,0.0,0.0,0.0,0.0,0.0,0.0,0.0,0.0,0.0,0.0,0.0,0.0,0.0,0.0,0.0,0.0,0.0,0.0,0.0,0.0,0.0,0.0,0.0,0.0,0.0,0.0,0.0,0.0,0.0,0.0,0.0,0.0,0.0,0.0,0.0,0.0,0.0,0.0,0.0,0.0,0.0,0.0,0.0,0.0,0.0,0.0,0.0,0.0,0.0,0.0,0.0,0.0,0.0,0.0,5.8573,6.2125,6.7046,6.9281,6.9916,6.8648,6.5414,6.2277,6.12,5.8842,5.6994,5.7439,5.7776,5.8002,5.8002,5.733,5.7214,5.8541,5.8064,5.8437,6.0964,0.0,0.0,7.3259,0.0,0.0,0.0,0.0,0.0,0.0,0.0,0.0,0.0,0.0,0.0,8.5792,8.4719,8.416,8.416,8.2847,8.2443,8.2949,8.2443,8.2039,8.1709,0.0,0.0,0.0,0.0,0.0,0.0,7.7281,7.7281,7.7281,7.7281,7.7281,7.7281,7.7281,7.7281,7.7281,0.0,0.0,0.0,0.0,0.0,0.0,0.0,0.0,0.0,0.0,0.0,0.0,0.0,0.0,0.0,0.0,0.0,0.0,0.0,0.0,0.0,0.0,0.0,0.0,0.0,0.0,0.0,4.5696,4.6455,4.7192,4.7921,0.0,0.0,0.0,0.0,0.0,0.0,0.0,0.0,0.0,0.0,0.0,0.0,0.0,0.0,0.0,0.0,0.0,0.0,0.0,0.0,0.0,0.0,0.0,0.0,0.0,0.0,0.0,0.0,6.74,6.8972,6.8304,6.5185,6.1912,6.0487,5.8394,0.0,5.6811,5.7446,5.8002,5.8002,5.7404,5.7147,5.796,5.7477,5.8358,0.0,6.5331,0.0,0.0,0.0,0.0,0.0,0.0,0.0,0.0,0.0,0.0,0.0,0.0,0.0,0.0,8.4197,8.3381,8.3381,8.259,8.2194,8.2194,8.2158,8.1709,8.1004,0.0,0.0,0.0,0.0,0.0,0.0,7.7281,7.7281,7.7281,7.7281,7.7281,7.7281,7.7281,7.7281,7.7281,0.0,0.0,0.0,0.0,0.0,0.0,0.0,0.0,0.0,0.0,0.0,0.0,0.0,0.0,0.0,0.0,0.0,0.0,0.0,0.0,0.0,0.0,0.0,0.0,0.0,0.0,0.0,4.5696,4.6455,4.7192,4.7921,4.8638,0.0,0.0,0.0,0.0,0.0,0.0,0.0,0.0,0.0,0.0,0.0,0.0,0.0,0.0,0.0,0.0,0.0,0.0,0.0,0.0,0.0,0.0,0.0,0.0,5.5678,0.0,0.0,0.0,6.0009,6.0456,5.892,5.7341,0.0,5.7214,5.6811,5.6811,5.7446,5.8002,5.8002,5.785,5.7997,5.8792,5.8756,5.96,6.2426,0.0,0.0,0.0,0.0,0.0,0.0,0.0,0.0,0.0,0.0,0.0,0.0,0.0,0.0,0.0,8.3903,8.3381,8.3381,8.259,8.2194,8.2194,8.1562,8.1187,0.0,0.0,0.0,0.0,0.0,0.0,0.0,7.7281,7.7281,7.7281,7.7281,7.7281,7.7281,7.7281,7.7281,7.7281,0.0,0.0,0.0,0.0,0.0,0.0,0.0,0.0,0.0,0.0,0.0,0.0,0.0,0.0,0.0,0.0,0.0,0.0,0.0,0.0,0.0,0.0,0.0,0.0,0.0,0.0,0.0,0.0,0.0,4.7361,0.0,0.0,0.0,0.0,0.0,0.0,0.0,0.0,0.0,0.0,0.0,0.0,0.0,0.0,0.0,0.0,0.0,0.0,0.0,5.3067,5.3214,5.3251,0.0,0.0,0.0,0.0,0.0,0.0,0.0,5.6455,5.6816,5.6864,5.5983,5.5249,5.6051,5.6235,5.6345,5.6706,5.7446,5.8002,5.8002,5.7703,5.7697,5.8505,5.8651,0.0,0.0,0.0,7.9066,0.0,0.0,0.0,0.0,0.0,0.0,0.0,0.0,0.0,0.0,0.0,0.0,0.0,0.0,8.3609,8.2847,8.2406,8.2194,8.2194,8.1746,8.1158,0.0,0.0,0.0,0.0,0.0,0.0,7.7281,7.7281,7.7281,7.7281,7.7281,7.7281,7.7281,7.7281,7.7281,7.7281,0.0,0.0,0.0,0.0,0.0,0.0,0.0,0.0,0.0,0.0,0.0,0.0,0.0,0.0,0.0,0.0,0.0,0.0,0.0,0.0,0.0,0.0,0.0,0.0,0.0,0.0,0.0,0.0,0.0,0.0,0.0,0.0,4.9213,0.0,0.0,0.0,0.0,0.0,0.0,0.0,0.0,0.0,0.0,0.0,0.0,0.0,0.0,0.0,0.0,5.2962,5.3214,5.3324,5.399,0.0,0.0,0.0,0.0,0.0,5.6633,5.6706,5.6669,5.6093,5.506,5.4473,5.5543,5.5695,5.5836,5.6633,5.7446,5.8002,5.8002,5.755,0.0,0.0,0.0,0.0,7.1204,7.6313,0.0,0.0,0.0,0.0,0.0,0.0,0.0,0.0,0.0,0.0,0.0,0.0,0.0,0.0,0.0,0.0,8.2194,8.2194,8.2194,8.2194,8.1937,8.113,7.9779,0.0,0.0,0.0,0.0,0.0,7.7281,7.7281,7.7281,7.7281,7.7281,7.7281,7.7281,7.7281,7.7281,7.7281,0.0,0.0,0.0,0.0,0.0,0.0,0.0,0.0,0.0,0.0,0.0,0.0,0.0,0.0,0.0,0.0,0.0,0.0,0.0,0.0,0.0,0.0,0.0,0.0,0.0,0.0,0.0,0.0,0.0,0.0,4.994,5.0566,5.0194,4.8977,0.0,0.0,0.0,0.0,0.0,0.0,0.0,0.0,0.0,0.0,0.0,0.0,0.0,0.0,0.0,5.3177,5.3214,5.3214,5.3361,0.0,0.0,0.0,0.0,0.0,5.5763,5.6271,5.6926,5.7483,5.5495,5.3948,5.6119,5.6093,5.5836,5.6633,5.7446,5.8002,5.8002,5.8468,5.9086,0.0,0.0,0.0,0.0,0.0,0.0,0.0,0.0,0.0,0.0,0.0,0.0,0.0,0.0,0.0,0.0,0.0,0.0,0.0,0.0,0.0,0.0,8.2194,8.2194,8.2194,8.0799,8.0036,7.9743,7.8324,0.0,0.0,0.0,0.0,7.7281,7.7281,7.7281,7.7281,7.7281,7.7281,7.7281,7.7281,7.7281,7.7281,0.0,0.0,0.0,0.0,0.0,0.0,0.0,0.0,0.0,0.0,0.0,0.0,0.0,0.0,0.0,0.0,0.0,0.0,0.0,0.0,0.0,0.0,0.0,0.0,0.0,0.0,0.0,0.0,0.0,5.1792,5.2511,5.1615,5.0634,4.956,0.0,0.0,0.0,0.0,0.0,0.0,0.0,0.0,0.0,0.0,0.0,0.0,0.0,0.0,0.0,0.0,5.3214,5.3214,5.3214,0.0,0.0,0.0,0.0,0.0,5.6235,5.6198,5.6345,5.7147,5.5904,5.4913,5.6449,5.5831,5.5296,5.6594,5.713,5.7489,5.7953,0.0,6.1478,6.4487,0.0,0.0,0.0,0.0,0.0,0.0,0.0,0.0,0.0,0.0,0.0,0.0,0.0,0.0,0.0,0.0,0.0,0.0,0.0,0.0,0.0,8.1782,8.1562,8.1525,8.0791,7.9992,7.9147,7.8361,7.7766,0.0,0.0,7.7281,7.7281,7.7281,7.7281,7.7281,7.7281,7.7281,7.7281,7.7281,7.7281,7.7281,0.0,0.0,0.0,0.0,0.0,0.0,0.0,0.0,0.0,0.0,0.0,0.0,0.0,0.0,0.0,0.0,0.0,0.0,0.0,0.0,0.0,0.0,0.0,0.0,0.0,0.0,4.8586,5.1158,5.3416,5.4735,5.5049,5.2427,5.0803,0.0,0.0,0.0,0.0,0.0,0.0,0.0,0.0,0.0,0.0,0.0,0.0,0.0,0.0,0.0,0.0,0.0,0.0,0.0,0.0,0.0,0.0,0.0,5.6057,5.6596,5.6963,5.6638,5.6277,5.6706,5.6051,5.5763,5.7514,5.6643,5.6046,5.809,5.8319,5.8317,0.0,6.128,0.0,6.9275,0.0,0.0,0.0,0.0,0.0,0.0,0.0,0.0,0.0,0.0,0.0,0.0,0.0,0.0,0.0,0.0,0.0,0.0,0.0,0.0,0.0,8.1415,8.1004,8.1004,8.06,7.98,7.8589,7.8405,7.7921,7.7281,7.7281,7.7281,7.7281,7.7281,7.7281,7.7281,7.7281,7.7281,7.7281,7.7281,7.7281,7.7281,0.0,0.0,0.0,0.0,0.0,0.0,0.0,0.0,0.0,0.0,0.0,0.0,0.0,0.0,0.0,0.0,0.0,0.0,0.0,0.0,0.0,0.0,0.0,0.0,0.0,4.8071,5.0642,5.427,5.6503,5.7248,5.6562,5.29,5.0803,5.0083,0.0,0.0,0.0,0.0,0.0,0.0,0.0,0.0,0.0,0.0,0.0,0.0,0.0,0.0,0.0,0.0,0.0,0.0,0.0,0.0,0.0,0.0,5.5658,5.6025,5.7525,5.7855,5.7666,5.6963,5.5642,5.5684,6.0205,5.9891,5.954,6.2674,6.2695,0.0,0.0,6.5023,6.9407,0.0,0.0,0.0,0.0,0.0,0.0,0.0,0.0,0.0,0.0,0.0,0.0,0.0,0.0,0.0,0.0,0.0,0.0,0.0,0.0,0.0,0.0,0.0,8.1004,8.0967,7.9507,7.8699,7.8552,7.7766,7.7355,7.7281,7.7281,7.7281,7.7281,7.7281,7.7281,7.7281,7.7281,7.7281,7.7281,7.7281,7.7281,7.7281,0.0,0.0,0.0,0.0,0.0,0.0,0.0,0.0,0.0,0.0,0.0,0.0,0.0,0.0,0.0,0.0,0.0,0.0,0.0,0.0,0.0,0.0,0.0,4.5196,4.7455,5.0777,5.4304,5.8017,5.9379,5.9607,5.8761,5.4101,0.0,0.0,0.0,0.0,0.0,0.0,0.0,0.0,0.0,0.0,0.0,0.0,0.0,0.0,0.0,0.0,0.0,0.0,0.0,0.0,0.0,0.0,0.0,5.5365,5.5946,5.6492,5.7073,5.7629,5.7813,5.7,5.6712,5.7525,6.0829,6.0227,5.9873,6.3163,6.4002,0.0,0.0,0.0,7.2238,0.0,0.0,0.0,0.0,0.0,0.0,0.0,0.0,0.0,0.0,0.0,0.0,0.0,0.0,0.0,0.0,0.0,0.0,0.0,0.0,0.0,0.0,0.0,7.9507,7.9507,7.8883,7.8332,7.7766,7.7428,7.7281,7.7281,7.7281,7.7281,7.7281,7.7281,7.7281,7.7281,7.7281,7.7281,7.7281,7.7281,7.7281,7.7281,0.0,0.0,0.0,0.0,0.0,0.0,0.0,0.0,0.0,0.0,0.0,0.0,0.0,0.0,0.0,0.0,0.0,0.0,0.0,0.0,0.0,0.0,0.0,4.6055,4.8545,5.2773,5.663,6.0114,6.0926,6.052,5.8964,0.0,0.0,0.0,0.0,0.0,0.0,0.0,0.0,0.0,0.0,0.0,0.0,0.0,0.0,0.0,0.0,0.0,0.0,0.0,0.0,0.0,0.0,0.0,0.0,0.0,5.5823,5.6197,5.6661,5.6843,5.6909,5.6813,5.7776,5.9618,6.2811,6.2353,6.2464,6.678,6.7034,6.7342,7.0198,0.0,0.0,0.0,0.0,0.0,0.0,0.0,0.0,0.0,0.0,0.0,0.0,0.0,0.0,0.0,0.0,0.0,0.0,0.0,0.0,0.0,0.0,0.0,0.0,0.0,7.8589,7.8589,7.8589,7.8141,7.7281,7.7281,7.7281,7.7281,7.7281,7.7281,7.7281,7.7281,7.7281,7.7281,7.7281,7.7281,7.7281,7.7281,7.7281,7.7281,0.0,0.0,0.0,0.0,0.0,0.0,0.0,0.0,0.0,0.0,0.0,0.0,0.0,0.0,0.0,0.0,0.0,0.0,0.0,0.0,0.0,0.0,0.0,4.6928,5.0005,5.3746,5.7119,6.0114,6.0892,5.9742,5.6722,5.3687,0.0,0.0,0.0,0.0,0.0,0.0,0.0,0.0,0.0,0.0,0.0,0.0,0.0,0.0,0.0,0.0,0.0,0.0,0.0,0.0,0.0,0.0,0.0,5.5622,5.5134,5.4955,5.6418,5.573,5.5003,5.6466,5.8651,6.1704,6.6636,6.6997,6.8139,7.4557,7.2561,7.0157,7.1846,0.0,0.0,0.0,0.0,0.0,0.0,0.0,0.0,0.0,0.0,0.0,0.0,0.0,0.0,0.0,0.0,0.0,0.0,0.0,0.0,0.0,0.0,0.0,0.0,0.0,7.8589,7.8589,7.8589,7.8141,7.7281,7.7318,7.7318,7.7281,7.7281,7.7281,7.7281,7.7281,7.7281,7.7281,7.7281,7.7281,7.7281,7.7281,7.7281,7.7281,0.0,0.0,0.0,0.0,0.0,0.0,0.0,0.0,0.0,0.0,0.0,0.0,0.0,0.0,0.0,0.0,0.0,0.0,0.0,0.0,0.0,0.0,0.0,0.0,0.0,0.0,5.6384,6.0926,5.9573,5.7915,0.0,0.0,0.0,5.148,0.0,0.0,0.0,0.0,0.0,0.0,0.0,0.0,0.0,0.0,0.0,0.0,0.0,0.0,0.0,0.0,0.0,0.0,0.0,0.0,5.6455,5.6455,5.6708,5.7097,5.7516,5.7331,5.7506,5.9649,6.1147,6.368,6.9706,6.8876,6.8442,7.4114,7.4339,7.3942,7.5235,0.0,0.0,0.0,0.0,0.0,0.0,0.0,0.0,0.0,0.0,0.0,0.0,0.0,0.0,0.0,0.0,0.0,0.0,0.0,0.0,0.0,0.0,0.0,0.0,0.0,0.0,7.7693,7.7693,7.7546,7.7318,7.7921,7.7884,7.7281,7.7281,7.7281,7.7281,7.7281,7.7281,7.7281,7.7281,7.7281,7.7281,7.7281,7.7281,7.7281,0.0,0.0,0.0,0.0,0.0,0.0,0.0,0.0,0.0,0.0,4.3308,0.0,0.0,0.0,0.0,0.0,0.0,0.0,0.0,0.0,0.0,0.0,0.0,0.0,0.0,5.1238,5.4118,0.0,0.0,0.0,0.0,0.0,5.2562,5.2528,0.0,5.1523,0.0,0.0,0.0,0.0,0.0,0.0,0.0,0.0,0.0,0.0,0.0,0.0,0.0,0.0,0.0,0.0,5.4766,5.5757,5.6743,5.6418,5.6235,5.6302,5.6881,5.6857,5.7441,6.0774,6.2952,6.5843,7.1795,0.0,0.0,0.0,7.6742,7.6496,7.7923,0.0,0.0,0.0,0.0,0.0,0.0,0.0,0.0,0.0,0.0,0.0,0.0,0.0,0.0,0.0,0.0,0.0,0.0,0.0,0.0,0.0,0.0,0.0,0.0,0.0,0.0,0.0,7.7656,7.7656,7.7318,7.7839,7.781,7.7281,7.7281,7.7281,7.7281,7.7281,7.7281,7.7281,7.7281,7.7281,7.7281,7.7281,7.7281,7.7281,0.0,0.0,0.0,0.0,0.0,0.0,0.0,0.0,0.0,0.0,4.3087,4.2976,0.0,0.0,0.0,0.0,0.0,0.0,0.0,0.0,0.0,0.0,0.0,0.0,0.0,5.06,0.0,0.0,0.0,0.0,0.0,0.0,5.4642,5.4507,0.0,5.3721,0.0,0.0,0.0,0.0,0.0,0.0,0.0,0.0,0.0,0.0,0.0,0.0,0.0,0.0,0.0,0.0,5.5469,5.6271,5.678,5.602,5.4803,5.4047,5.5604,5.5552,5.6206,6.1037,6.4876,0.0,7.3482,7.8125,8.1317,8.106,0.0,7.833,0.0,0.0,0.0,0.0,0.0,0.0,0.0,0.0,0.0,0.0,0.0,0.0,0.0,0.0,0.0,0.0,0.0,0.0,0.0,0.0,0.0,0.0,0.0,0.0,0.0,0.0,0.0,0.0,0.0,7.8067,7.7281,7.7391,7.7399,7.7281,7.7281,7.7281,7.7281,7.7281,7.7281,7.7281,7.7281,7.7281,7.7281,7.7281,7.7281,7.7281,0.0,0.0,0.0,0.0,0.0,0.0,0.0,0.0,0.0,0.0,0.0,0.0,0.0,0.0,0.0,0.0,0.0,0.0,0.0,0.0,0.0,4.465,4.6573,0.0,0.0,0.0,0.0,0.0,0.0,0.0,0.0,0.0,5.4862,5.3754,0.0,5.3416,0.0,0.0,0.0,0.0,0.0,5.1318,5.1404,0.0,0.0,0.0,0.0,0.0,0.0,0.0,0.0,0.0,5.6486,5.7073,5.7703,5.7525,5.6816,5.6564,5.8775,5.8789,5.9676,6.5819,7.1016,7.5292,7.7694,7.8744,7.9086,7.8795,7.9878,0.0,0.0,0.0,0.0,0.0,0.0,0.0,0.0,0.0,0.0,0.0,0.0,0.0,0.0,0.0,0.0,0.0,0.0,0.0,0.0,0.0,0.0,0.0,0.0,0.0,0.0,0.0,0.0,0.0,7.7509,7.7472,7.7318,7.7994,7.7957,7.7281,7.7281,7.7281,7.7281,7.7281,7.7281,7.7281,7.7281,7.7281,7.7281,7.7281,7.7281,7.7281,0.0,0.0,0.0,0.0,0.0,0.0,0.0,0.0,0.0,0.0,0.0,0.0,0.0,0.0,0.0,0.0,0.0,0.0,0.0,0.0,0.0,0.0,4.7188,4.7587,4.7342,0.0,0.0,0.0,0.0,5.1573,5.1235,5.3568,5.4422,5.4025,5.4439,5.3518,0.0,0.0,0.0,0.0,5.0443,5.0607,5.0643,5.1399,0.0,0.0,0.0,0.0,0.0,0.0,0.0,0.0,0.0,0.0,5.7929,5.7556,5.7147,5.7147,5.8804,6.0083,6.2572,6.9479,7.4761,7.8478,7.9206,7.9298,7.9162,7.8853,0.0,0.0,0.0,0.0,0.0,0.0,0.0,0.0,0.0,0.0,0.0,0.0,0.0,0.0,0.0,0.0,0.0,0.0,0.0,0.0,0.0,0.0,0.0,0.0,0.0,0.0,7.7281,7.7281,7.7281,7.7281,7.7281,7.7281,7.7326,7.7774,7.7729,7.7281,7.7281,7.7281,7.7281,7.7281,7.7281,7.7281,7.7281,7.7281,7.7281,7.7281,7.7281,7.7281,0.0,0.0,0.0,0.0,0.0,0.0,0.0,0.0,0.0,0.0,0.0,0.0,0.0,0.0,0.0,0.0,0.0,0.0,0.0,0.0,0.0,0.0,4.7502,4.7598,4.7699,0.0,0.0,0.0,5.0364,5.1066,5.1235,5.3171,5.4262,5.4609,5.4744,5.3856,5.2198,0.0,0.0,0.0,5.0034,5.0063,5.0136,5.1034,5.1297,5.1323,0.0,0.0,0.0,0.0,0.0,0.0,0.0,0.0,5.7711,5.7155,5.6921,5.7036,5.8107,6.1043,6.5334,7.1846,7.6143,7.8788,7.8837,7.9013,7.9152,7.9204,0.0,0.0,0.0,0.0,0.0,0.0,0.0,0.0,0.0,0.0,0.0,0.0,0.0,0.0,0.0,0.0,0.0,0.0,0.0,0.0,0.0,0.0,0.0,0.0,0.0,0.0,7.7281,7.7281,7.7281,7.7281,7.7281,7.7281,7.7281,7.7281,7.7281,7.7281,7.7281,7.7281,7.7281,7.7281,7.7281,7.7281,7.7281,7.7281,7.7281,7.7281,7.7281,7.7281,0.0,0.0,0.0,0.0,0.0,0.0,0.0,0.0,0.0,0.0,0.0,0.0,0.0,0.0,0.0,0.0,0.0,0.0,0.0,0.0,0.0,0.0,4.6804,4.6922,4.6962,0.0,0.0,0.0,4.983,5.0574,5.1269,5.4727,5.5716,5.4642,5.5268,5.4355,5.2198,0.0,0.0,0.0,4.9843,5.0104,5.0249,5.1629,5.1749,5.1357,0.0,0.0,0.0,0.0,5.5842,0.0,0.0,0.0,0.0,5.7693,5.7336,5.7293,5.9496,6.388,6.8572,7.1633,7.3561,7.5093,0.0,0.0,7.5777,0.0,0.0,0.0,0.0,0.0,0.0,0.0,0.0,0.0,0.0,0.0,0.0,0.0,0.0,0.0,0.0,0.0,0.0,0.0,0.0,0.0,0.0,0.0,7.8214,7.7318,7.7281,0.0,7.7281,7.7281,7.7281,7.7281,7.7281,7.7281,7.7281,7.7281,7.7281,7.7281,7.7281,7.7281,7.7281,7.7281,7.7281,7.7281,7.7281,7.7281,7.7281,7.7281,7.7281,7.7281,0.0,0.0,0.0,0.0,0.0,0.0,0.0,0.0,0.0,0.0,0.0,0.0,0.0,0.0,0.0,0.0,0.0,0.0,0.0,0.0,0.0,0.0,0.0,0.0,0.0,0.0,0.0,4.9011,4.9737,5.0913,5.2528,5.46,5.5006,5.3991,5.3856,5.3239,5.2232,0.0,0.0,0.0,5.06,5.0473,5.0216,5.1282,5.1469,5.1371,0.0,0.0,0.0,0.0,0.0,0.0,0.0,0.0,0.0,0.0,5.774,5.84,6.2658,6.558,6.8524,7.3223,7.4323,7.475,7.6443,7.6125,7.5716,0.0,0.0,0.0,0.0,0.0,0.0,0.0,0.0,0.0,0.0,0.0,0.0,0.0,0.0,0.0,0.0,0.0,0.0,0.0,0.0,0.0,0.0,7.8141,7.7693,7.7318,7.7281,0.0,7.7281,7.7281,7.7281,7.7281,7.7281,7.7281,7.7281,7.7281,7.7281,7.7281,7.7281,7.7281,7.7281,7.7281,7.7281,7.7281,7.7281,7.7281,7.7281,7.7281,7.7281,7.7281,0.0,0.0,0.0,0.0,0.0,0.0,0.0,0.0,0.0,0.0,0.0,0.0,0.0,0.0,0.0,0.0,0.0,0.0,0.0,0.0,0.0,0.0,0.0,0.0,0.0,0.0,4.9011,4.9011,4.9932,5.1555,5.3788,5.4735,5.5184,5.5108,5.3788,5.2833,0.0,0.0,0.0,0.0,5.1006,5.071,5.0413,5.0769,0.0,5.1377,5.2708,0.0,0.0,0.0,0.0,0.0,0.0,0.0,0.0,0.0,0.0,5.903,6.3686,6.5217,6.6854,7.2474,7.3764,7.4067,0.0,0.0,0.0,0.0,0.0,0.0,0.0,0.0,0.0,0.0,0.0,0.0,0.0,0.0,0.0,0.0,0.0,0.0,0.0,0.0,0.0,0.0,0.0,0.0,7.8259,7.7656,7.7281,7.7281,7.7281,7.7281,7.7281,7.7281,7.7281,7.7281,7.7281,7.7281,7.7281,7.7281,7.7281,7.7281,7.7281,7.7281,7.7281,7.7281,7.7281,7.7281,7.7281,7.7281,7.7281,7.7281,7.7281,7.7281,0.0,0.0,0.0,0.0,0.0,0.0,0.0,0.0,0.0,0.0,0.0,0.0,0.0,0.0,4.4663,4.47,0.0,0.0,0.0,0.0,0.0,0.0,0.0,0.0,0.0,4.8605,4.9011,4.9011,5.0423,5.2325,5.4575,5.6021,5.7771,5.9641,5.6781,5.4321,5.23,0.0,0.0,0.0,0.0,0.0,5.1066,0.0,0.0,0.0,0.0,0.0,0.0,0.0,0.0,0.0,0.0,0.0,0.0,0.0,0.0,0.0,6.023,6.1696,6.3538,6.6977,6.9395,7.1521,0.0,0.0,0.0,0.0,0.0,0.0,0.0,0.0,0.0,0.0,0.0,0.0,0.0,0.0,0.0,0.0,0.0,0.0,0.0,0.0,0.0,0.0,0.0,0.0,7.7362,7.7318,7.7281,7.7281,7.7281,7.7281,7.7281,7.7281,7.7281,7.7281,7.7281,7.7281,7.7281,7.7281,7.7281,7.7281,7.7281,7.7281,7.7281,7.7281,7.7281,7.7281,7.7281,7.7281,7.7281,7.7281,7.7281,7.7281,0.0,0.0,0.0,0.0,0.0,0.0,0.0,0.0,0.0,0.0,0.0,0.0,0.0,4.4516,4.5136,4.6163,4.7232,0.0,0.0,0.0,0.0,0.0,0.0,0.0,0.0,4.8875,4.9011,4.9011,4.9518,5.1209,5.3923,5.4905,5.6571,5.8635,5.7103,5.5944,5.5108,5.3678,0.0,0.0,0.0,0.0,0.0,0.0,0.0,0.0,0.0,0.0,0.0,0.0,0.0,0.0,0.0,0.0,0.0,0.0,5.8002,5.8474,6.0603,6.1151,6.2205,6.6517,6.8089,6.919,7.162,7.2894,0.0,0.0,0.0,0.0,0.0,0.0,0.0,0.0,0.0,0.0,0.0,0.0,0.0,0.0,0.0,0.0,0.0,0.0,0.0,0.0,0.0,0.0,7.7281,7.7281,7.7281,7.7281,7.7281,7.7281,7.7281,7.7281,7.7281,7.7281,7.7281,7.7281,7.7281,7.7281,7.7281,7.7281,7.6746,7.6812,7.7281,7.7281,7.7281,7.7281,7.7281,7.7281,7.7281,7.7281,7.7281,7.7281,0.0,0.0,0.0,0.0,0.0,0.0,0.0,0.0,0.0,4.3884,0.0,0.0,0.0,0.0,4.6053,4.7374,4.7812,4.7741,4.7093,0.0,0.0,0.0,0.0,0.0,0.0,4.9011,4.9011,4.9011,4.9484,5.1141,5.389,5.4879,5.6537,5.8601,5.734,5.6655,0.0,0.0,0.0,5.3382,0.0,0.0,5.1514,0.0,0.0,0.0,0.0,0.0,0.0,0.0,0.0,0.0,0.0,0.0,0.0,0.0,0.0,5.8364,5.9948,6.0199,6.1037,6.5381,6.6399,6.7068,6.9953,0.0,0.0,0.0,0.0,0.0,0.0,0.0,0.0,0.0,0.0,0.0,0.0,0.0,0.0,0.0,0.0,0.0,0.0,0.0,0.0,0.0,0.0,0.0,7.7281,7.7281,7.7281,7.7281,7.7281,7.7281,7.7281,7.7281,7.7281,7.7281,7.7281,7.7281,7.7281,7.7281,7.7134,7.6885,7.6636,7.6819,7.7281,7.6995,7.7069,7.7281,7.7281,7.7281,7.7281,7.7281,7.7281,7.7281,0.0,0.0,0.0,0.0,0.0,0.0,0.0,0.0,0.0,4.4615,0.0,0.0,0.0,0.0,0.0,4.8277,4.7814,4.7176,4.6501,4.6577,0.0,0.0,0.0,0.0,0.0,0.0,0.0,4.9044,5.0465,5.2325,5.4541,5.6021,5.7881,5.9877,5.7746,5.6384,5.5699,0.0,5.4828,5.3348,0.0,5.1056,5.2156,0.0,0.0,0.0,5.2055,5.2334,0.0,0.0,0.0,0.0,0.0,0.0,0.0,0.0,0.0,5.7968,0.0,0.0,0.0,0.0,0.0,0.0,6.8721,0.0,0.0,0.0,0.0,0.0,0.0,0.0,0.0,0.0,0.0,0.0,0.0,0.0,0.0,0.0,0.0,0.0,0.0,0.0,0.0,0.0,0.0,7.7258,7.7281,7.7281,7.7281,7.7281,7.7281,7.7281,7.7281,7.7281,7.7281,7.7281,7.7281,7.7281,7.7281,7.7281,7.6885,7.6166,7.6922,7.7281,7.7252,7.6452,7.6599,7.7281,7.7281,7.7281,7.7281,7.7281,7.7281,7.7281,0.0,0.0,0.0,0.0,0.0,0.0,0.0,0.0,4.4739,0.0,0.0,0.0,4.6794,4.8666,4.9641,4.9321,4.9147,4.8811,4.8167,4.766,4.7471,4.7586,4.83,0.0,0.0,0.0,0.0,0.0,0.0,0.0,0.0,0.0,0.0,0.0,5.6824,5.6384,5.5631,5.4549,0.0,5.4126,5.2401,5.2266,0.0,0.0,0.0,0.0,0.0,5.301,5.3932,0.0,5.3854,5.4473,0.0,0.0,0.0,0.0,0.0,0.0,5.6507,0.0,0.0,0.0,0.0,0.0,0.0,0.0,0.0,0.0,0.0,0.0,0.0,0.0,0.0,0.0,0.0,0.0,0.0,0.0,0.0,0.0,0.0,0.0,0.0,0.0,0.0,0.0,0.0,7.6538,7.725,7.7281,7.7281,7.7281,7.7281,7.7281,7.7281,7.7281,7.7281,7.7281,7.7281,7.7281,7.7281,7.7281,7.7179,7.6959,7.6599,7.6775,7.7281,7.7069,7.7105,7.7281,7.7281,7.7281,7.7281,7.7281,7.7281,7.7281,0.0,0.0,0.0,0.0,0.0,0.0,0.0,0.0,0.0,0.0,0.0,0.0,4.7745,4.9142,4.9739,4.9328,4.9019,4.8706,4.8374,4.7997,4.7829,4.7902,4.8909,4.9669,5.0083,0.0,0.0,0.0,0.0,0.0,0.0,0.0,0.0,0.0,0.0,0.0,0.0,0.0,0.0,0.0,5.3484,0.0,0.0,5.4084,5.4262,0.0,0.0,0.0,5.6325,5.5581,5.5209,0.0,0.0,0.0,0.0,0.0,0.0,5.6714,5.592,5.6821,5.8108,0.0,0.0,0.0,6.2389,6.3451,0.0,0.0,0.0,0.0,0.0,0.0,0.0,0.0,0.0,0.0,0.0,0.0,0.0,0.0,0.0,0.0,0.0,0.0,0.0,0.0,7.5606,7.666,7.7258,7.7281,7.7281,7.7281,7.7281,7.7281,7.7281,7.7281,7.7281,7.7281,7.7281,7.7281,7.7281,7.7281,7.7105,7.6775,7.6673,7.6673,7.6812,7.7179,7.7281,7.7281,7.7281,7.7281,7.7281,7.7281,7.7281,7.7281,0.0,0.0,0.0,0.0,0.0,0.0,0.0,0.0,0.0,0.0,4.6789,4.7447,4.8607,4.894,4.9038,4.8857,4.8396,4.81,4.81,4.8133,4.8191,4.8251,4.9518,5.0244,5.0346,0.0,0.0,0.0,0.0,0.0,0.0,0.0,0.0,0.0,0.0,0.0,0.0,0.0,0.0,5.3577,5.4406,5.5175,0.0,0.0,5.7992,0.0,5.8887,5.9216,5.9259,5.8321,5.7036,0.0,0.0,0.0,0.0,0.0,5.5744,5.671,5.583,5.6828,5.8273,0.0,0.0,0.0,6.1483,6.2136,6.2407,0.0,0.0,0.0,0.0,0.0,0.0,0.0,0.0,0.0,0.0,0.0,0.0,0.0,0.0,0.0,0.0,0.0,0.0,7.4451,7.615,7.7179,7.7179,7.7061,7.7024,7.7024,7.7134,7.7134,7.7024,7.7208,7.7244,7.7179,7.7244,7.7244,7.7171,7.7244,7.6848,7.613,7.6959,7.6885,7.6269,7.6995,7.7281,7.7281,7.7281,7.7281,7.7281,7.7281,7.7281,7.7281,0.0,0.0,0.0,0.0,0.0,0.0,0.0,0.0,4.7303,4.7437,4.8591,4.9287,4.9,5.0481,5.105,4.9924,5.0263,5.0524,5.0524,4.9972,4.9932,5.0525,5.0829,5.1243,5.186,0.0,0.0,0.0,0.0,0.0,0.0,0.0,0.0,0.0,0.0,0.0,0.0,0.0,0.0,5.3611,5.4964,0.0,5.6689,5.7552,5.8635,5.9674,5.9844,6.0689,6.1434,0.0,5.7805,5.6551,0.0,0.0,0.0,0.0,0.0,0.0,0.0,0.0,0.0,0.0,0.0,0.0,5.7906,5.8058,5.876,0.0,0.0,0.0,0.0,0.0,0.0,0.0,0.0,0.0,0.0,0.0,0.0,0.0,0.0,0.0,0.0,0.0,7.4628,7.5457,7.6029,7.6342,7.6342,7.5718,7.538,7.538,7.6012,7.6012,7.538,7.6657,7.6959,7.6342,7.6995,7.6959,7.6342,7.6995,7.6848,7.613,7.6959,7.7215,7.7069,7.7252,7.7281,7.7281,7.7281,7.7281,7.7281,7.7281,7.7281,7.7281,0.0,0.0,0.0,0.0,0.0,0.0,0.0,0.0,4.8067,4.8785,4.9602,5.0108,5.0106,5.1043,5.142,5.0693,5.1005,5.1211,5.1211,5.0864,5.0803,5.1167,5.1547,5.1919,5.2291,0.0,0.0,0.0,0.0,0.0,0.0,0.0,0.0,0.0,0.0,0.0,0.0,0.0,5.3509,5.3678,5.5911,0.0,5.8109,5.9979,6.1366,6.2381,6.2763,6.3406,6.3575,6.0588,5.9327,0.0,0.0,5.5732,5.5296,0.0,5.6525,5.6509,0.0,0.0,0.0,5.6292,0.0,0.0,0.0,5.6585,5.6712,0.0,0.0,0.0,0.0,0.0,0.0,0.0,0.0,0.0,0.0,0.0,0.0,0.0,0.0,0.0,0.0,0.0,7.4263,7.5281,7.5446,7.5513,7.5506,7.5109,7.4882,7.4919,7.5293,7.53,7.4895,7.5702,7.6098,7.6083,7.6098,7.6084,7.613,7.6526,7.6489,7.613,7.6959,7.7281,7.7281,7.7281,7.7281,7.7281,7.7281,7.7281,7.7281,7.7281,7.7281,7.7281,0.0,0.0,0.0,0.0,0.0,0.0,0.0,0.0,4.9003,5.0346,5.0515,5.0752,5.1344,5.1302,5.1336,5.1607,5.1243,5.1235,5.1818,5.1438,0.0,5.1404,5.1987,5.23,5.23,0.0,0.0,0.0,0.0,0.0,0.0,0.0,0.0,0.0,0.0,0.0,0.0,0.0,0.0,5.4152,0.0,5.8287,5.8912,6.21,6.3758,6.4512,6.5537,6.5909,6.5368,6.1907,0.0,6.0714,5.739,5.6553,0.0,0.0,0.0,0.0,0.0,0.0,0.0,0.0,0.0,5.8052,0.0,0.0,0.0,0.0,0.0,0.0,0.0,0.0,0.0,0.0,0.0,0.0,0.0,0.0,0.0,0.0,0.0,0.0,0.0,0.0,7.3634,7.4602,7.439,7.4265,7.4434,7.4419,7.4456,7.4434,7.461,7.4588,7.4425,7.4755,7.5144,7.5634,7.5144,7.5152,7.5652,7.5946,7.6019,7.5909,7.6885,7.7281,7.7281,7.7281,7.7281,7.7281,7.7281,7.7281,7.7281,7.7281,7.7281,7.7281,4.4571,4.5154,0.0,0.0,0.0,0.0,0.0,0.0,5.1108,5.1928,5.2063,5.2097,5.2156,5.1581,5.1742,5.3103,0.0,0.0,5.4033,0.0,5.1472,5.2156,5.2266,5.23,5.23,0.0,0.0,0.0,0.0,0.0,0.0,0.0,0.0,0.0,5.2706,0.0,0.0,0.0,5.3611,0.0,5.7931,5.8143,0.0,6.1139,6.299,6.3893,6.5956,6.6667,6.6294,0.0,6.2303,6.0994,0.0,5.7805,5.6799,0.0,0.0,0.0,0.0,0.0,0.0,0.0,5.7833,0.0,0.0,0.0,0.0,0.0,0.0,0.0,0.0,0.0,0.0,0.0,0.0,0.0,0.0,0.0,0.0,0.0,0.0,0.0,0.0,0.0,0.0,7.378,7.2525,7.2011,7.2723,7.2789,7.2789,7.276,7.3457,7.3487,7.2775,7.4199,7.4602,7.3993,7.4602,7.4573,7.4008,7.5432,7.5718,7.5124,7.6628,7.7281,7.7281,7.7281,7.7281,7.7281,7.7281,7.7281,7.7281,7.7281,7.7281,7.7281,4.4675,4.5203,0.0,0.0,0.0,0.0,0.0,0.0,5.2494,5.2334,5.2706,5.3306,5.4186,0.0,0.0,0.0,0.0,5.3086,0.0,0.0,5.2664,5.2968,0.0,0.0,0.0,0.0,0.0,0.0,5.3509,0.0,0.0,0.0,0.0,0.0,5.2942,0.0,5.2841,0.0,5.4194,0.0,0.0,0.0,0.0,6.2719,6.4783,6.555,6.6464,6.6802,6.6453,0.0,6.3386,0.0,0.0,0.0,0.0,0.0,0.0,0.0,0.0,0.0,0.0,0.0,0.0,0.0,5.7278,0.0,5.5781,0.0,0.0,0.0,0.0,0.0,0.0,0.0,0.0,0.0,0.0,0.0,0.0,0.0,0.0,0.0,0.0,0.0,0.0,0.0,0.0,7.0059,7.0396,7.1314,7.2011,7.2488,7.2826,7.2826,7.2488,7.3186,7.3582,7.3714,7.3582,7.3597,7.3751,7.4882,7.5204,7.4977,7.6584,7.7281,7.7281,7.7281,7.7281,7.7281,7.7281,7.7281,7.7281,7.7281,7.7281,7.7281,4.5609,4.6109,0.0,0.0,0.0,0.0,0.0,0.0,0.0,5.2706,0.0,0.0,5.58,5.5513,0.0,0.0,5.6292,5.5285,0.0,0.0,5.3416,5.2604,5.3179,0.0,0.0,0.0,0.0,0.0,0.0,0.0,0.0,0.0,0.0,0.0,0.0,5.3577,5.334,0.0,5.5996,5.6943,5.9293,6.0704,6.1728,6.4387,6.6102,6.7072,6.6869,6.6927,6.6804,6.4768,6.4322,0.0,6.225,0.0,0.0,0.0,0.0,0.0,5.8263,0.0,0.0,0.0,0.0,0.0,0.0,0.0,0.0,0.0,0.0,0.0,0.0,0.0,0.0,0.0,0.0,0.0,0.0,0.0,0.0,0.0,0.0,0.0,0.0,0.0,0.0,0.0,6.6946,0.0,6.8194,6.9765,7.1123,7.2158,7.2378,7.2488,7.2488,7.2488,7.2804,7.3369,7.2775,7.2826,7.3384,7.4213,7.4691,7.4977,7.6371,7.7105,7.7281,7.7281,7.7281,7.7281,7.7281,7.7281,7.7281,7.7281,7.7281,7.7281,4.7819,4.8402,0.0,0.0,0.0,0.0,0.0,0.0,0.0,0.0,0.0,0.0,0.0,0.0,0.0,0.0,0.0,5.7789,5.7755,0.0,5.3255,5.0346,5.2334,5.2799,0.0,0.0,0.0,0.0,0.0,0.0,0.0,0.0,0.0,0.0,0.0,5.4938,5.5699,5.7171,5.9481,6.2221,6.3014,6.5077,6.7387,0.0,6.5967,6.776,6.7072,0.0,0.0,6.6131,6.5154,0.0,0.0,0.0,0.0,0.0,0.0,0.0,0.0,0.0,0.0,5.8644,0.0,0.0,0.0,0.0,5.8481,0.0,0.0,0.0,0.0,0.0,5.9454,5.728,0.0,0.0,0.0,0.0,0.0,0.0,0.0,0.0,0.0,0.0,0.0,0.0,6.434,0.0,6.6439,6.8084,6.9699,7.1307,7.2085,7.2488,7.2488,7.2488,7.2525,7.2525,7.2525,7.2496,7.2569,7.3384,7.4147,7.494,7.5799,7.6599,7.7281,7.7281,7.7281,7.7281,7.7281,7.7281,7.7281,7.7281,7.7281,7.7281,0.0,5.0025,0.0,0.0,0.0,0.0,0.0,5.3509,0.0,0.0,0.0,0.0,0.0,6.1525,6.1931,0.0,0.0,6.1187,6.0216,5.8481,0.0,0.0,0.0,5.3991,0.0,0.0,0.0,0.0,0.0,0.0,0.0,0.0,0.0,0.0,0.0,5.5277,0.0,0.0,0.0,0.0,0.0,6.6903,6.8605,0.0,0.0,6.8594,6.7818,6.7685,0.0,6.6741,6.5939,6.523,6.4749,6.3592,6.2261,6.1496,6.1815,0.0,0.0,0.0,6.4613,6.1612,0.0,0.0,0.0,0.0,0.0,0.0,0.0,0.0,0.0,0.0,5.7741,5.6993,5.7536,5.7875,0.0,0.0,0.0,0.0,0.0,0.0,0.0,0.0,0.0,6.1765,6.1881,0.0,0.0,6.5815,6.8047,6.9655,7.1013,7.1975,7.2488,7.2488,7.2488,7.2488,7.2488,7.2488,7.2525,7.334,7.4147,7.4948,7.5763,7.6562,7.7281,7.7281,7.7281,7.7281,7.7281,7.7281,7.7281,7.7281,7.7281,7.7281,5.0105,0.0,0.0,0.0,0.0,0.0,0.0,0.0,0.0,0.0,5.9235,0.0,6.4975,0.0,6.5787,0.0,6.617,6.4681,6.1873,6.1255,0.0,5.7624,5.6661,0.0,0.0,0.0,0.0,0.0,0.0,5.3746,0.0,0.0,0.0,0.0,0.0,5.6064,5.7374,0.0,6.2584,0.0,0.0,6.8831,0.0,0.0,6.9722,0.0,0.0,6.8348,6.8224,6.744,6.6703,6.6038,6.5762,6.4713,6.3485,6.295,6.3151,6.3409,6.2623,6.4174,0.0,0.0,6.3149,0.0,6.0714,0.0,0.0,0.0,0.0,0.0,0.0,0.0,5.7968,5.7724,5.7473,5.7332,0.0,0.0,0.0,0.0,0.0,0.0,0.0,0.0,6.1288,5.9747,6.0052,6.0572,0.0,0.0,6.6366,6.8017,7.0169,7.1564,7.2085,7.2342,7.2488,7.2488,7.2488,7.2488,7.2525,7.334,7.4147,7.4948,7.5763,7.6562,7.7281,7.7281,7.7281,7.7281,7.7281,7.7281,7.7281,7.7281,7.7281,7.7281,0.0,0.0,0.0,0.0,5.2976,0.0,0.0,0.0,5.8287,0.0,6.1921,6.4695,6.6903,6.8493,6.9688,7.0308,7.0409,0.0,6.3236,6.4106,0.0,0.0,5.8558,5.8556,5.7104,0.0,0.0,0.0,0.0,0.0,0.0,0.0,0.0,0.0,5.5818,0.0,5.8229,6.2719,6.5517,6.7208,7.0117,7.0872,7.0342,7.103,0.0,7.0105,6.9339,6.9057,6.891,6.811,6.7379,6.6669,6.5983,6.5718,6.5425,6.4032,6.4586,6.5249,6.3113,6.3642,6.458,6.3859,0.0,0.0,0.0,0.0,6.3183,0.0,0.0,0.0,0.0,0.0,0.0,5.9037,5.838,5.7985,0.0,0.0,0.0,0.0,0.0,0.0,0.0,6.1221,6.0303,6.0266,5.8841,5.8657,0.0,0.0,0.0,6.6402,6.9545,7.127,7.1344,7.2121,7.2488,7.2488,7.2488,7.2488,7.2525,7.334,7.4147,7.4948,7.5763,7.6562,7.7281,7.7281,7.7281,7.7281,7.7281,7.7281,7.7281,7.7281,7.7281,7.7281,5.2258,5.2942,5.3441,0.0,5.3374,5.3509,0.0,0.0,0.0,0.0,6.6396,6.9914,7.1594,7.3105,7.3646,7.2744,7.3138,0.0,0.0,0.0,0.0,6.513,6.3314,6.1919,6.0994,5.8574,0.0,5.678,0.0,0.0,5.4321,0.0,0.0,0.0,0.0,0.0,5.8989,6.2922,6.644,6.9451,7.0759,7.1199,0.0,0.0,7.0838,7.0094,6.9352,6.8714,6.8088,6.7356,6.6969,6.6757,6.657,6.6127,6.5617,6.5244,6.5384,6.5566,6.501,6.594,6.688,6.6125,6.5956,6.5753,0.0,0.0,0.0,0.0,0.0,0.0,0.0,0.0,0.0,5.6073,5.607,5.6521,0.0,0.0,0.0,0.0,0.0,0.0,5.9208,5.938,5.9269,5.8657,5.8217,0.0,0.0,0.0,0.0,0.0,6.8745,7.0991,7.2195,7.2415,7.2488,7.2488,7.2488,7.2488,7.2525,7.334,7.4147,7.4948,7.5763,7.6562,7.7281,7.7281,7.7281,7.7281,7.7281,7.7281,7.7281,7.7281,7.7281,7.7281,5.2648,0.0,0.0,5.3551,0.0,0.0,5.5911,0.0,0.0,6.3555,6.7681,0.0,7.1932,7.4559,7.5879,7.5078,7.5033,0.0,7.2045,0.0,0.0,6.7972,6.6302,6.5084,6.4349,6.0728,0.0,5.7893,0.0,0.0,5.4101,5.3695,0.0,0.0,0.0,5.7602,5.9284,6.369,6.7546,7.0703,7.077,0.0,0.0,7.13,7.0838,7.0094,6.9374,6.859,6.7839,6.7432,6.7068,6.6802,6.6802,6.6525,6.6171,6.6171,6.6175,6.6188,6.6188,6.7003,6.7793,6.7377,6.7793,6.7996,6.6914,6.6406,6.5967,0.0,0.0,0.0,0.0,0.0,0.0,5.5377,5.5416,0.0,0.0,0.0,0.0,0.0,0.0,0.0,5.8002,5.8394,5.8505,5.8039,0.0,0.0,0.0,0.0,0.0,0.0,6.8054,7.0513,7.1431,7.2496,7.301,7.301,7.2679,7.2855,7.3553,7.4037,7.4654,7.5461,7.6269,7.6885,7.7281,7.7281,7.7281,7.7281,7.7281,7.7281,7.7281,7.7281,7.7281,7.7281,0.0,0.0,0.0,0.0,0.0,0.0,0.0,5.9742,0.0,6.485,0.0,7.0703,7.1052,7.483,7.7232,7.6927,0.0,7.483,7.2045,7.2383,7.1467,6.8736,6.8545,6.8115,6.7256,6.2835,0.0,0.0,0.0,0.0,5.3653,5.356,5.3509,0.0,0.0,0.0,0.0,6.4434,6.8155,7.0692,7.0331,7.0635,7.13,7.13,7.0838,7.0105,6.9451,6.8674,6.7886,6.7783,6.7334,6.6802,6.6802,6.6802,6.6802,6.6802,6.6802,6.6802,6.6802,6.7275,6.7793,6.7895,6.8921,6.9597,6.8335,6.7489,6.6937,6.6937,6.4749,0.0,0.0,0.0,0.0,5.6043,0.0,0.0,0.0,0.0,0.0,0.0,0.0,0.0,0.0,0.0,0.0,0.0,0.0,0.0,0.0,0.0,0.0,0.0,6.7393,0.0,7.0403,0.0,7.3751,7.3861,7.3156,7.3553,7.4903,7.5014,7.5425,7.613,7.6959,7.7281,7.7281,7.7281,7.7281,7.7281,7.7281,7.7281,7.7281,7.7281,7.7281,7.7281,0.0,0.0,0.0,0.0,0.0,6.024,6.3947,6.7049,6.9011,6.9191,7.4492,0.0,7.5912,7.8044,7.8889,7.7063,7.7345,0.0,0.0,0.0,0.0,7.2576,7.1932,7.0974,6.9626,6.5193,6.249,0.0,0.0,0.0,0.0,0.0,0.0,0.0,0.0,0.0,6.0148,6.3531,0.0,6.7749,6.9496,7.0635,7.13,7.13,7.0838,7.0172,7.0037,6.9113,6.7817,6.7206,6.6891,6.6802,6.6802,6.6802,6.6802,6.6802,6.6802,6.6802,6.6802,6.6903,6.714,6.776,6.8098,6.8402,6.8808,6.8267,6.7692,6.7692,6.6349,6.4421,6.211,0.0,0.0,0.0,0.0,0.0,0.0,0.0,0.0,0.0,0.0,0.0,0.0,0.0,0.0,0.0,0.0,0.0,0.0,0.0,0.0,0.0,0.0,0.0,0.0,0.0,0.0,7.4691,7.4544,7.461,7.4903,7.5572,7.5983,7.613,7.6959,7.7281,7.7281,7.7281,7.7281,7.7281,7.7281,7.7281,7.7281,7.7281,7.7281,7.7281,0.0,0.0,0.0,0.0,0.0,0.0,0.0,7.119,0.0,7.1526,7.3438,7.4684,7.4017,7.5922,7.7291,7.7394,7.7024,7.6659,7.6338,7.5224,7.4086,7.2981,7.2576,0.0,7.0794,6.6377,6.352,6.2413,0.0,0.0,0.0,0.0,0.0,5.3568,0.0,5.7925,0.0,0.0,0.0,6.7512,6.9011,7.0297,7.13,7.13,7.1064,7.0737,7.0342,6.9496,6.8402,6.7614,6.7106,6.6802,6.6802,6.6802,6.6802,6.6802,6.6802,6.6802,6.6802,6.7377,6.7996,6.7929,6.8504,6.9079,6.9113,6.847,6.7895,6.7895,6.6406,6.4208,6.1231,5.7983,0.0,0.0,0.0,0.0,0.0,0.0,0.0,0.0,0.0,0.0,0.0,0.0,0.0,0.0,0.0,0.0,0.0,0.0,0.0,0.0,0.0,0.0,0.0,0.0,0.0,7.5498,7.4698,7.4948,7.6151,7.6122,7.635,7.6738,7.7142,7.7281,7.7281,7.7281,7.7281,7.7281,7.7281,7.7281,7.7281,7.7281,7.7281,7.7281,0.0,5.5809,0.0,0.0,6.393,0.0,0.0,7.3293,7.4805,7.3069,7.1928,7.1431,7.1848,7.36,7.5457,7.7253,7.6373,7.5969,7.6606,7.5495,7.4265,7.2934,7.2734,7.2305,7.156,6.729,6.4171,0.0,0.0,0.0,0.0,0.0,0.0,0.0,0.0,0.0,0.0,0.0,6.5111,6.776,6.8876,7.0117,7.13,7.13,7.13,7.1199,7.0466,6.9733,6.8977,6.8166,6.7421,6.6802,6.6802,6.6802,6.6802,6.6802,6.6802,6.6802,6.6802,6.7681,6.847,6.7827,6.8571,6.9327,6.873,6.8132,6.7658,6.7658,6.5899,6.3632,6.1255,5.8853,0.0,0.0,0.0,0.0,0.0,0.0,0.0,0.0,0.0,0.0,0.0,0.0,0.0,0.0,0.0,0.0,0.0,0.0,0.0,0.0,0.0,0.0,7.102,0.0,7.4588,0.0,7.4882,7.5315,7.7281,7.6636,7.6709,7.7281,7.7281,7.7281,7.7281,7.7281,7.7281,7.7281,7.7281,7.7281,7.7281,7.7281,7.7281,7.7281,0.0,0.0,0.0,0.0,0.0,0.0,0.0,7.3096,7.4541,7.4319,7.4778,7.4854,7.4267,7.4965,7.56,7.5878,7.5767,7.5737,7.5795,7.5676,7.5236,7.4434,7.3762,7.3039,7.2327,6.854,6.5229,0.0,0.0,0.0,0.0,0.0,0.0,0.0,0.0,0.0,0.0,6.2018,6.483,6.7106,6.9214,7.0567,7.13,7.13,7.13,7.1199,7.0466,6.9733,6.8977,6.8166,6.7421,6.6802,6.6802,6.6802,6.6802,6.6802,6.6802,6.6802,6.6802,6.6903,6.7005,6.6937,6.7005,6.7106,6.7039,6.6971,6.6903,6.6903,6.5144,6.3511,6.325,6.0781,5.8903,0.0,0.0,0.0,0.0,0.0,0.0,0.0,0.0,0.0,0.0,0.0,0.0,0.0,0.0,0.0,0.0,0.0,0.0,0.0,0.0,6.702,0.0,7.254,0.0,7.7179,7.6306,7.6379,7.7281,7.7208,7.7244,7.7281,7.7281,7.7281,7.7281,7.7281,7.7281,7.7281,7.7281,7.7281,7.7281,7.7281,7.7281,7.7281,0.0,0.0,0.0,0.0,0.0,0.0,0.0,7.379,7.3915,7.4421,7.4351,7.4446,7.508,7.4575,7.4918,7.6843,7.6208,7.6281,7.7641,7.6454,7.5574,7.527,7.4118,7.3151,7.2417,6.9626,6.6509,0.0,0.0,0.0,0.0,0.0,0.0,0.0,0.0,0.0,5.9427,6.2757,6.5449,6.7624,6.9462,7.0635,7.13,7.13,7.13,7.1267,7.0962,7.0094,6.9045,6.8741,6.7817,6.6802,6.6802,6.6802,6.6802,6.6802,6.6802,6.6802,6.6802,6.7106,6.7455,6.7455,6.7455,6.7455,6.7455,6.7106,6.6802,6.6802,6.5719,6.4681,6.4241,6.2811,6.1877,0.0,0.0,0.0,0.0,0.0,0.0,0.0,0.0,0.0,0.0,0.0,0.0,0.0,0.0,0.0,0.0,0.0,0.0,6.034,0.0,6.6616,6.9339,7.2246,7.4441,7.5858,7.6012,7.6276,7.6599,7.7069,7.7281,7.7281,7.7281,7.7281,7.7281,7.7281,7.7281,7.7281,7.7281,7.7281,7.7281,7.7281,7.7281,7.7281,6.0537,0.0,6.477,0.0,6.989,7.1823,7.5172,7.3895,7.2922,7.4012,7.3225,7.3015,7.411,7.3595,7.4208,7.6692,7.6362,7.6699,7.8351,7.6961,7.5946,7.5709,7.4308,0.0,7.2745,7.0546,6.7669,6.4144,6.2656,0.0,0.0,0.0,0.0,0.0,5.7679,5.9563,6.1614,6.4399,6.674,6.8705,7.0003,7.0838,7.13,7.13,7.13,7.1267,7.1064,7.0161,6.9079,6.8842,6.7884,6.6802,6.6802,6.6802,6.6802,6.6802,6.6802,6.6802,6.6802,6.7354,6.7895,6.7895,6.8064,6.8267,6.8267,6.7658,6.7072,6.6836,6.6203,6.5537,6.5019,6.413,6.3624,0.0,0.0,0.0,0.0,0.0,0.0,0.0,5.5715,5.4746,5.4306,0.0,0.0,0.0,0.0,0.0,0.0,0.0,0.0,0.0,0.0,0.0,0.0,0.0,7.4221,7.5278,7.5836,7.624,7.6489,7.7032,7.7281,7.7281,7.7281,7.7281,7.7281,7.7281,7.7281,7.7281,7.7281,7.7281,7.7281,7.7281,7.7281,7.7281,6.2914,6.5114,6.7394,7.0699,7.1803,7.3026,7.5264,7.2953,7.1519,7.3092,7.1935,7.0921,7.0938,7.2315,7.3541,7.4448,7.5929,7.6832,7.6898,7.6893,7.6521,0.0,0.0,7.3488,7.3488,7.1322,6.8708,6.5658,0.0,0.0,5.785,0.0,0.0,5.9053,6.1331,6.3163,6.4682,6.6901,6.8765,7.025,7.0984,7.13,7.13,7.13,7.13,7.1199,7.0477,6.9722,6.8977,6.8166,6.7411,6.6802,6.6802,6.6802,6.6802,6.6802,6.6802,6.6802,6.6802,6.7354,6.7895,6.7895,6.8504,6.9079,6.9079,6.847,6.7692,6.6937,6.6203,6.5706,6.5683,6.4478,6.325,6.2546,0.0,0.0,0.0,0.0,0.0,0.0,5.6167,5.5108,5.3661,0.0,0.0,0.0,0.0,0.0,0.0,0.0,0.0,6.034,6.3606,0.0,6.8892,7.2092,7.4485,7.6093,7.6093,7.6526,7.7289,7.7281,7.7281,7.7281,7.7281,7.7281,7.7281,7.7281,7.7281,7.7281,7.7281,7.7281,7.7281,7.7281,7.7281,7.7281,6.4954,6.6458,6.7956,6.9454,7.062,7.1944,7.3685,7.2205,7.1487,7.3092,7.1903,7.0889,7.0889,0.0,7.5799,0.0,7.7926,7.7854,0.0,7.7468,7.6792,7.6521,7.5067,7.4018,7.3522,7.1819,6.9716,6.7202,0.0,0.0,0.0,6.0211,6.0612,6.1425,6.3652,6.5475,6.6956,6.8708,7.0032,7.0962,7.121,7.13,7.13,7.13,7.13,7.1267,7.103,7.0161,6.9079,6.8808,6.785,6.6802,6.6802,6.6802,6.6802,6.6802,6.6802,6.6802,6.6802,6.6971,6.714,6.714,6.7726,6.8166,6.7647,6.7343,6.7072,6.6869,6.6599,6.643,6.643,6.5662,6.4749,6.4005,0.0,0.0,0.0,0.0,0.0,0.0,5.4652,5.4016,0.0,5.3701,0.0,0.0,0.0,0.0,0.0,0.0,0.0,0.0,6.4383,0.0,6.8892,7.2092,7.3971,7.4485,7.5579,7.6526,7.7281,7.7281,7.7281,7.7281,7.7281,7.7281,7.7281,7.7281,7.7281,7.7281,7.7281,7.7281,7.7281,7.7281,7.7281,7.7281,6.6236,6.7909,6.9442,7.0124,7.1064,7.2079,7.3107,7.1904,7.1247,7.2267,7.1535,7.1132,7.1728,7.3535,0.0,7.8251,7.8172,0.0,7.9042,7.7976,7.7063,7.6454,7.4999,7.3849,7.3116,0.0,0.0,6.8775,6.7441,6.5639,6.3373,6.3386,6.3761,6.4537,6.6537,6.7911,6.8864,7.0095,7.087,7.13,7.13,7.13,7.13,7.13,7.13,7.13,7.13,7.0522,6.9519,6.9519,6.8504,6.7208,6.7208,6.7005,6.6802,6.6802,6.6802,6.6802,6.6802,6.7005,6.7275,6.758,6.8233,6.8571,6.7817,6.7647,6.7512,6.6937,6.6802,6.6802,6.6802,6.5967,6.5131,6.4681,0.0,0.0,0.0,0.0,0.0,0.0,0.0,0.0,0.0,5.4016,0.0,0.0,0.0,0.0,0.0,0.0,0.0,6.2481,6.5418,0.0,7.0213,7.2826,7.4294,7.4632,7.5939,7.6812,7.7281,7.7281,7.7281,7.7281,7.7281,7.7281,7.7281,7.7281,7.7281,7.7281,7.7281,7.7281,7.7281,7.7281,7.7281,7.7281,6.6954,6.926,0.0,0.0,7.2628,0.0,7.3107,7.1886,7.0949,7.0919,7.0949,7.1532,7.2969,7.3092,7.3686,7.529,0.0,0.0,0.0,7.8212,7.7177,7.5612,7.4287,0.0,7.2496,7.1706,7.0939,7.0206,6.8085,6.7014,6.6974,6.7004,6.7392,6.8115,6.9615,7.0299,7.031,7.1019,7.13,7.13,7.13,7.13,7.13,7.13,7.13,7.13,7.13,7.0838,7.0206,7.0206,6.9225,6.7996,6.7996,6.7512,6.6937,6.6836,6.6836,6.6869,6.6869,6.7411,6.8166,6.891,6.9553,6.9868,6.9248,6.9011,6.8527,6.7106,6.6802,6.6802,6.6802,6.5584,6.458,6.4546,6.2618,6.0612,5.9056,0.0,0.0,0.0,0.0,0.0,0.0,5.4896,5.5158,0.0,0.0,0.0,0.0,0.0,0.0,6.4206,6.6673,6.9456,7.2562,7.414,7.5315,7.6093,7.6922,7.7281,7.7281,7.7281,7.7281,7.7281,7.7281,7.7281,7.7281,7.7281,7.7281,7.7281,7.7281,7.7281,7.7281,7.7281,7.7281,7.7281,0.0,0.0,6.9767,7.0431,7.1049,7.1455,7.1471,7.1584,7.1474,7.0979,7.1338,7.1621,7.1484,7.1455,7.2078,7.3626,7.4725,7.5672,7.6542,7.6382,7.5606,7.4172,7.4251,7.3984,7.3251,7.1988,7.0939,7.0206,6.9678,6.9106,6.858,6.9148,6.9488,6.9704,7.0625,7.103,7.1064,7.1244,7.13,7.13,7.13,7.13,7.13,7.13,7.13,7.13,7.13,7.0838,7.0206,7.0206,6.9586,6.8808,6.8808,6.8707,6.8324,6.714,6.7208,6.7658,6.7658,6.8233,6.8876,6.9045,6.8774,6.8571,6.9011,6.8189,6.7242,6.6869,6.6802,6.6802,6.6802,6.5584,6.441,6.3859,6.139,5.9022,5.7534,0.0,0.0,0.0,5.5108,5.5361,5.5192,5.5496,5.5809,0.0,0.0,0.0,0.0,0.0,6.4671,6.5895,6.8855,7.1387,7.3384,7.4397,7.5315,7.6093,7.6922,7.7281,7.7281,7.7281,7.7281,7.7281,7.7281,7.7281,7.7281,7.7281,7.7281,7.7281,7.7281,7.7281,7.7281,7.7281,7.7281,7.7281,6.8331,6.899,6.9678,7.0306,7.0679,7.1009,7.1308,7.1414,7.1427,7.1368,7.1398,7.1308,7.0949,7.0889,7.1521,7.3123,7.366,7.4587,7.6161,7.5892,7.5374,7.4584,7.426,7.3747,7.3003,7.1875,7.1097,7.0703,7.0703,7.05,7.0096,7.0534,7.0703,7.0715,7.112,7.13,7.13,7.13,7.13,7.13,7.13,7.13,7.13,7.13,7.13,7.13,7.13,7.103,7.0703,7.0703,6.9992,6.9147,6.9485,6.9113,6.847,6.7986,6.8121,6.8436,6.8436,6.8774,6.918,6.9519,6.9519,6.9372,6.9147,6.847,6.7647,6.6937,6.6802,6.6802,6.6802,6.5584,6.4241,6.3159,6.0747,5.838,5.6553,5.531,0.0,5.5074,5.5741,5.635,5.6655,5.7027,5.7094,5.6833,0.0,0.0,6.0911,6.5147,6.7534,6.7577,7.036,7.2782,7.4779,7.5608,7.6225,7.6636,7.7105,7.7281,7.7281,7.7281,7.7281,7.7281,7.7281,7.7281,7.7281,7.7281,7.7281,7.7281,7.7281,7.7281,7.7281,7.7281,7.7281,7.7281,6.8854,6.9453,7.0067,7.0769,7.0979,7.1248,7.1803,7.1487,7.1368,7.1833,7.1398,7.1009,7.0919,7.0889,7.1455,7.2814,7.2799,7.3743,7.6125,7.5626,7.5255,7.5373,7.4161,7.3218,7.2563,7.174,7.13,7.13,7.13,7.13,7.13,7.13,7.13,7.13,7.13,7.13,7.13,7.13,7.13,7.13,7.13,7.13,7.13,7.13,7.13,7.13,7.13,7.13,7.13,7.13,7.0455,6.9553,7.0161,6.9451,6.8538,6.9248,6.944,6.9417,6.9316,6.935,6.9586,7.0206,7.0669,7.0658,6.9519,6.9079,6.8538,6.7242,6.6971,6.6937,6.6836,6.5517,6.4005,6.2627,6.0317,5.7974,5.5969,0.0,0.0,5.5767,5.6824,5.7746,5.8364,5.9099,5.8989,5.7746,6.0312,0.0,0.0,6.7265,6.9847,6.94,7.1763,7.4103,7.6269,7.6959,7.7281,7.7281,7.7281,7.7281,7.7281,7.7281,7.7281,7.7281,7.7281,7.7281,7.7281,7.7281,7.7281,7.7281,7.7281,7.7281,7.7281,7.7281,7.7281,7.7281,6.8764,6.9093,6.9512,7.0709,7.1368,7.1773,7.1893,7.2295,7.2415,7.1953,7.1803,7.1534,7.0949,7.0889,7.1002,7.1261,7.0797,7.1507,7.386,7.332,7.3218,7.3892,7.3666,7.3454,7.3319,7.1988,7.13,7.13,7.13,7.13,7.13,7.13,7.13,7.13,7.13,7.13,7.13,7.13,7.13,7.13,7.13,7.13,7.13,7.13,7.13,7.13,7.13,7.13,7.13,7.13,7.1165,7.0996,7.1097,7.0962,7.0793,7.0928,7.0962,7.0827,7.0206,7.05,7.0996,7.1097,7.0286,6.9553,6.9936,6.9011,6.803,6.7793,6.7726,6.7557,6.6903,6.5077,6.3386,6.2526,5.9438,5.679,0.0,0.0,5.5809,5.6553,5.8998,6.0655,6.0757,6.1443,6.1782,6.1545,6.2762,6.4119,6.543,6.8243,7.0412,7.1657,7.4182,7.6049,7.7105,7.7252,7.7281,7.7281,7.7281,7.7281,7.7281,7.7281,7.7281,7.7281,7.7281,7.7281,7.7281,7.7281,7.7281,7.7281,7.7281,7.7281,7.7281,7.7281,7.7281,7.7281,6.8884,6.9542,7.0201,7.0799,7.1158,7.1487,7.1833,7.1846,7.1846,7.1893,7.1593,7.1248,7.0949,7.0889,7.0889,7.0889,7.0366,7.0642,7.2144,7.2338,7.2751,7.3573,7.3524,7.3116,7.2326,7.1639,7.13,7.13,7.13,7.13,7.13,7.13,7.13,7.13,7.13,7.13,7.13,7.13,7.13,7.13,7.13,7.13,7.13,7.13,7.13,7.13,7.13,7.13,7.13,7.13,7.103,7.077,7.1165,7.103,7.0804,7.1199,7.13,7.1233,7.0861,7.103,7.13,7.13,7.0793,7.0263,7.0206,6.9665,6.9022,6.8639,6.8538,6.8301,6.7557,6.5899,6.4174,6.2661,5.9582,0.0,0.0,5.6283,5.6858,5.8389,6.0554,6.2212,6.299,6.3024,6.298,6.298,6.3468,6.4586,6.6581,6.8618,7.0851,7.3411,7.5086,7.6367,7.7281,7.7281,7.7281,7.7281,7.7281,7.7281,7.7281,7.7281,7.7281,7.7281,7.7281,7.7281,7.7281,7.7281,7.7281,7.7281,7.7281,7.7281,7.7281,7.7281,7.7281,7.7281,6.8944,6.9782,7.056,7.0859,7.1038,7.1308,7.1833,7.1457,7.1308,7.1833,7.1308,7.0889,7.0889,7.0889,7.0889,7.0889,7.0201,7.0036,7.0647,7.1615,7.259,7.3573,7.3558,7.2812,7.1334,7.13,7.13,7.13,7.13,7.13,7.13,7.13,7.13,7.13,7.13,7.13,7.13,7.13,7.13,7.13,7.13,7.13,7.13,7.13,7.13,7.13,7.13,7.13,7.13,7.13,7.0928,7.0534,7.1131,7.0906,7.0578,7.1131,7.13,7.13,7.13,7.13,7.13,7.13,7.1165,7.0939,7.0534,7.0308,7.0037,6.9451,6.935,6.9045,6.8064,6.6552,6.4793,6.2729,0.0,0.0,0.0,5.7602,5.8524,6.0419,6.212,6.3676,6.4975,6.4603,6.4333,6.4502,6.4774,6.5723,6.753,6.9178,7.1334,7.411,7.5472,7.6396,7.6956,7.7188,7.7281,7.7281,7.7281,7.7281,7.7281,7.7281,7.7281,7.7281,7.7281,7.7281,7.7281,7.7281,7.7281,7.7281,7.7281,7.7281,7.7281,7.7281,7.7281,7.7281,6.8764,6.9064,6.9512,7.0709,7.1398,7.1833,7.1893,7.1863,7.1833,7.1893,7.1308,7.0889,7.0889,7.0889,7.0889,7.0889,6.9782,6.9111,6.9147,7.0601,7.21,7.3535,7.3546,7.2812,7.1334,7.13,7.13,7.13,7.13,7.13,7.13,7.13,7.13,7.13,7.13,7.13,7.13,7.13,7.13,7.13,7.13,7.13,7.13,7.13,7.13,7.13,7.13,7.13,7.13,7.13,7.1267,7.1233,7.13,7.1267,7.1233,7.13,7.13,7.13,7.13,7.13,7.13,7.13,7.0804,7.0443,7.1064,7.0703,7.0172,7.0139,7.0105,6.9665,6.8166,6.6136,6.4174,6.2661,0.0,0.0,5.8844,6.0071,6.1264,6.212,6.415,6.5774,6.6565,6.6599,6.6836,6.7523,6.8427,6.905,6.9233,7.0649,7.1918,7.2884,7.571,7.6785,7.5925,7.6832,7.7281,7.7281,7.7281,7.7281,7.7281,7.7281,7.7281,7.7281,7.7281,7.7281,7.7281,7.7281,7.7281,7.7281,7.7281,7.7281,7.7281,7.7281,7.7281,7.7281,6.8271,6.9049,6.9768,7.0277,7.0859,7.1278,7.1278,7.1278,7.1278,7.1278,7.1068,7.0889,7.0889,7.056,7.0336,7.0336,6.9512,6.8824,6.8421,7.0668,7.2479,7.3502,7.3502,7.2812,7.1334,7.13,7.13,7.13,7.13,7.13,7.13,7.13,7.13,7.13,7.13,7.13,7.13,7.13,7.13,7.13,7.13,7.13,7.13,7.13,7.13,7.13,7.13,7.13,7.13,7.13,7.13,7.13,7.13,7.13,7.13,7.13,7.13,7.13,7.13,7.13,7.13,7.13,7.1097,7.0973,7.1233,7.1064,7.0872,7.0872,7.0872,7.0567,6.953,6.7861,6.6305,6.528,0.0,6.1264,6.1728,6.2675,6.3632,6.4353,6.6451,6.7929,6.8189,6.8222,6.8324,6.8605,6.8991,6.9404,6.9882,7.146,7.2212,7.1895,7.4794,7.6197,7.5787,7.6801,7.7281,7.7281,7.7281,7.7281,7.7281,7.7281,7.7281,7.7281,7.7281,7.7281,7.7281,7.7281,7.7281,7.7281,7.7281,7.7281,7.7281,7.7281,7.7281,7.7281,6.7958,6.8736,6.9498,6.9917,7.0336,7.0679,7.0859,7.0889,7.0889,7.0889,7.0889,7.0889,7.0889,7.0366,7.0007,7.0007,6.9199,6.8481,6.8047,7.0543,7.2522,7.344,7.3285,7.2563,7.1334,7.13,7.13,7.13,7.13,7.13,7.13,7.13,7.13,7.13,7.13,7.13,7.13,7.13,7.13,7.13,7.13,7.13,7.13,7.13,7.13,7.13,7.13,7.13,7.13,7.13,7.13,7.13,7.13,7.13,7.13,7.13,7.13,7.13,7.13,7.13,7.13,7.13,7.13,7.13,7.13,7.13,7.13,7.13,7.13,7.1064,7.0342,6.9157,6.7963,6.6971,6.5111,6.3971,6.4468,6.5178,6.5933,6.6688,6.8132,6.918,6.9417,6.9248,6.9282,6.9744,6.9586,6.9755,7.05,7.1674,7.2002,7.1323,7.3908,7.5343,7.5343,7.6628,7.7281,7.7281,7.7281,7.7281,7.7281,7.7281,7.7281,7.7281,7.7281,7.7281,7.7281,7.7281,7.7281,7.7281,7.7281,7.7281,7.7281,7.7281,7.7281,7.7281,6.7868,6.7987,6.8437,6.9768,7.0007,7.0217,7.0799,7.0889,7.0889,7.0889,7.0889,7.0889,7.0889,7.0366,7.0007,6.9977,6.8766,6.7987,6.8003,7.0134,7.2027,7.3428,7.28,7.2056,7.1334,7.13,7.13,7.13,7.13,7.13,7.13,7.13,7.13,7.13,7.13,7.13,7.13,7.13,7.13,7.13,7.13,7.13,7.13,7.13,7.13,7.13,7.13,7.13,7.13,7.13,7.13,7.13,7.13,7.13,7.13,7.13,7.13,7.13,7.13,7.13,7.13,7.13,7.13,7.13,7.13,7.13,7.13,7.13,7.13,7.1064,7.0342,6.962,6.8605,6.7072,6.6836,6.6836,6.6836,6.7444,6.8199,6.9011,6.9113,6.9417,7.0139,6.9563,6.9711,7.1199,7.0635,7.0534,7.1267,7.13,7.13,7.13,7.3257,7.4282,7.4291,7.628,7.7281,7.7281,7.7281,7.7281,7.7281,7.7281,7.7281,7.7281,7.7281,7.7281,7.7281,7.7281,7.7281,7.7281,7.7281,7.7281,7.7281,7.7281,7.7281,7.7281,6.664,6.7717,6.8824,6.9213,7.0021,7.0679,7.0889,7.0889,7.0889,7.0889,7.0889,7.0739,7.0306,7.0097,6.9618,6.8676,6.8227,6.8226,6.8809,6.9451,7.0448,7.188,7.2729,7.2563,7.1334,7.13,7.13,7.13,7.13,7.13,7.13,7.13,7.13,7.13,7.13,7.13,7.13,7.13,7.13,7.13,7.13,7.13,7.13,7.13,7.13,7.13,7.13,7.13,7.13,7.13,7.13,7.13,7.13,7.13,7.13,7.13,7.13,7.13,7.13,7.13,7.13,7.13,7.13,7.13,7.13,7.13,7.13,7.13,7.13,7.1233,7.0996,7.0364,6.9733,6.9248,6.8741,6.8392,6.8392,6.9045,6.9597,6.9834,7.0331,7.0725,7.0962,7.0759,7.0827,7.1267,7.1097,7.1064,7.13,7.13,7.13,7.13,7.2561,7.3601,7.4282,7.628,7.7281,7.7281,7.7281,7.7281,7.7281,7.7281,7.7281,7.7281,7.7281,7.7281,7.7281,7.7281,7.7281,7.7281,7.7281,7.7281,7.7281,7.7281,7.7281,7.7281,6.649,6.7358,6.8375,6.8914,6.9632,7.032,7.0829,7.0889,7.0889,7.0889,7.0679,7.0516,7.0366,6.9917,6.9289,6.8481,6.7912,6.7697,6.7914,6.8959,6.9726,7.0062,7.1988,7.2496,7.1334,7.13,7.13,7.13,7.13,7.13,7.13,7.13,7.13,7.13,7.13,7.13,7.13,7.13,7.13,7.13,7.13,7.13,7.13,7.13,7.13,7.13,7.13,7.13,7.13,7.13,7.13,7.13,7.13,7.13,7.13,7.13,7.13,7.13,7.13,7.13,7.13,7.13,7.13,7.13,7.13,7.13,7.13,7.13,7.13,7.13,7.13,7.0939,7.0635,7.0635,7.0263,6.9981,6.9981,7.0364,7.0635,7.0635,7.103,7.13,7.13,7.13,7.13,7.13,7.13,7.13,7.13,7.13,7.13,7.13,7.2279,7.3282,7.4282,7.59,7.6925,7.7281,7.7281,7.7281,7.7281,7.7281,7.7281,7.7281,7.7281,7.7281,7.7281,7.7281,7.7281,7.7281,7.7281,7.7281,7.7281,7.7281,7.7281,7.7281,6.6909,6.7014,6.7478,6.8764,6.9004,6.9423,7.0709,7.0799,7.0739,7.0799,7.0306,7.0127,7.0679,6.9692,6.8974,6.8914,6.7747,6.6729,6.6131,6.859,6.9515,6.815,7.0614,7.1691,7.0939,7.1188,7.13,7.13,7.13,7.13,7.13,7.13,7.13,7.13,7.13,7.13,7.13,7.13,7.13,7.13,7.13,7.13,7.13,7.13,7.13,7.13,7.13,7.13,7.13,7.13,7.13,7.13,7.13,7.13,7.13,7.13,7.13,7.13,7.13,7.13,7.13,7.13,7.13,7.13,7.13,7.13,7.13,7.13,7.13,7.13,7.13,7.13,7.13,7.13,7.13,7.13,7.13,7.13,7.13,7.13,7.13,7.13,7.13,7.13,7.13,7.13,7.13,7.13,7.13,7.13,7.13,7.13,7.2206,7.3131,7.4149,7.5147,7.6222,7.7281,7.7281,7.7281,7.7281,7.7281,7.7281,7.7281,7.7281,7.7281,7.7281,7.7281,7.7281,7.7281,7.7281,7.7281,7.7281,7.7281,7.7281,7.7281,6.6221,6.7074,6.8032,6.8854,6.9004,6.9423,7.0709,7.0051,6.9602,7.0127,6.9602,6.9273,6.9393,6.9183,6.8794,6.8271,6.7463,6.6954,6.6789,6.7898,6.8216,6.7357,6.8474,6.879,6.8094,7.0193,7.13,7.13,7.13,7.13,7.13,7.13,7.13,7.13,7.13,7.13,7.13,7.13,7.13,7.13,7.13,7.13,7.13,7.13,7.13,7.13,7.13,7.13,7.13,7.13,7.13,7.13,7.13,7.13,7.13,7.13,7.13,7.13,7.13,7.13,7.13,7.13,7.13,7.13,7.13,7.13,7.13,7.13,7.13,7.13,7.13,7.13,7.13,7.13,7.13,7.13,7.13,7.13,7.13,7.13,7.13,7.13,7.13,7.13,7.13,7.13,7.13,7.13,7.13,7.13,7.13,7.13,7.1512,7.211,7.3135,7.412,7.5519,7.7281,7.7281,7.7281,7.7281,7.7281,7.7281,7.7281,7.7281,7.7281,7.7281,7.7281,7.7281,7.7281,7.7281,7.7281,7.7281,7.7281,7.7281,7.7281,6.649,6.7044,6.7732,6.8421,6.8511,6.896,7.026,6.9632,6.9243,6.9917,6.9139,6.8645,6.8974,6.8704,6.8391,6.8047,6.7373,6.6849,6.655,6.7225,6.7319,6.6649,6.7334,6.7567,6.7222,6.925,7.0298,7.0298,7.0984,7.13,7.13,7.13,7.13,7.13,7.13,7.13,7.13,7.13,7.13,7.13,7.13,7.13,7.13,7.13,7.13,7.13,7.13,7.13,7.13,7.13,7.13,7.13,7.13,7.13,7.13,7.13,7.13,7.13,7.13,7.13,7.13,7.13,7.13,7.13,7.13,7.13,7.13,7.13,7.13,7.13,7.13,7.13,7.13,7.13,7.13,7.13,7.13,7.13,7.13,7.13,7.13,7.13,7.13,7.13,7.13,7.13,7.13,7.13,7.13,7.13,7.13,7.13,7.13,7.1764,7.2787,7.3322,7.4348,7.5874,7.6346,7.6832,7.7273,7.6801,7.684,7.7281,7.7281,7.7281,7.7281,7.7281,7.7281,7.7281,7.7281,7.7281,7.7281,7.7281,7.7281,7.7281,6.6984,6.7014,6.7224,6.7898,6.7987,6.8466,6.9798,6.9333,6.9079,6.9738,6.866,6.8092,6.878,6.8331,6.7958,6.7838,6.7313,6.6759,6.6221,6.6625,6.6595,6.5931,6.6381,6.6591,6.6509,6.7811,6.8736,6.9205,7.0608,7.13,7.13,7.13,7.13,7.13,7.13,7.13,7.13,7.13,7.13,7.13,7.13,7.13,7.13,7.13,7.13,7.13,7.13,7.13,7.13,7.13,7.13,7.13,7.13,7.13,7.13,7.13,7.13,7.13,7.13,7.13,7.13,7.13,7.13,7.13,7.13,7.13,7.13,7.13,7.13,7.13,7.13,7.13,7.13,7.13,7.13,7.13,7.13,7.13,7.13,7.13,7.13,7.13,7.13,7.13,7.13,7.13,7.13,7.13,7.13,7.13,7.13,7.13,7.13,7.171,7.254,7.2704,7.3212,7.4043,7.4885,7.5823,7.6761,7.5925,7.6077,7.7035,7.7035,7.7157,7.7281,7.7281,7.7204,7.7035,7.7035,7.6948,7.6785,7.6785,7.6785,7.6785,6.6894,6.7014,6.7224,6.7898,6.7987,6.8466,6.9798,6.893,6.8391,6.9034,6.7956,6.7403,6.8077,6.8047,6.7778,6.7194,6.7044,6.6954,6.6879,6.6417,6.5862,6.5185,6.4683,6.4179,6.3663,6.4978,6.6816,6.9205,7.0608,7.13,7.13,7.13,7.13,7.13,7.13,7.13,7.13,7.13,7.13,7.13,7.13,7.13,7.13,7.13,7.13,7.13,7.13,7.13,7.13,7.13,7.13,7.13,7.13,7.13,7.13,7.13,7.13,7.13,7.13,7.13,7.13,7.13,7.13,7.13,7.13,7.13,7.13,7.13,7.13,7.13,7.13,7.13,7.13,7.13,7.13,7.13,7.13,7.13,7.13,7.13,7.13,7.13,7.13,7.13,7.13,7.13,7.13,7.13,7.13,7.13,7.13,7.13,7.13,7.1379,7.1501,7.2374,7.2869,7.2978,7.3131,7.3714,7.4693,7.4554,7.5039,7.6002,7.6002,7.6506,7.7281,7.7281,7.6793,7.6002,7.6002,7.5475,7.4693,7.4693,7.4693,7.4693,6.6954,6.7014,6.7224,6.7898,6.7987,6.8466,6.9798,6.8856,6.8241,6.8914,6.7837,6.7104,6.7403,6.7433,6.7313,6.7044,6.7014,6.7014,6.7014,6.6026,6.5293,6.5024,6.4036,6.3363,6.3108,6.4415,6.5688,6.6906,6.9073,7.0539,7.13,7.13,7.13,7.13,7.13,7.13,7.13,7.13,7.13,7.13,7.13,7.13,7.13,7.13,7.13,7.13,7.13,7.13,7.13,7.13,7.13,7.13,7.13,7.13,7.13,7.13,7.13,7.13,7.13,7.13,7.13,7.13,7.13,7.13,7.13,7.13,7.13,7.13,7.13,7.13,7.13,7.13,7.13,7.13,7.13,7.13,7.13,7.13,7.13,7.13,7.13,7.13,7.13,7.13,7.13,7.13,7.13,7.13,7.13,7.13,7.13,7.13,7.13,7.13,7.13,7.1754,7.1948,7.1948,7.1948,7.2766,7.4272,7.3739,7.4005,7.4985,7.5554,7.5718,7.5685,7.6231,7.5874,7.4949,7.4949,7.4684,7.4291,7.4291,7.4291,7.4291]},{"header":{"parameterUnit":"m.s-1","parameterCategory":1,"la1":30.6,"la2":28.766,"lo1":-90.7593,"lo2":-88.6598,"dx":0.0162,"dy":0.0183,"nx":116,"ny":114,"refTime":"2023-01-20T06:00:00:Z","depth":0,"parameterNumber":3,"parameterNumberName":"V-component_of_WINDS"},"data":[0.0,0.0,0.0,0.0,0.0,0.0,0.0,0.0,0.0,0.0,0.0,0.0,0.0,0.0,0.0,0.0,0.0,0.0,0.0,0.0,0.0,0.0,0.0,0.0,0.0,0.0,0.0,0.0,0.0,0.0,0.0,0.0,0.0,0.0,0.0,0.0,0.0,0.0,0.0,0.0,0.0,0.0,0.0,0.0,0.0,0.0,0.0,0.0,0.0,0.0,0.0,0.0,0.0,0.0,0.0,0.0,0.0,0.0,0.0,0.0,0.0,0.0,0.0,0.0,0.0,0.0,0.0,0.0,0.0,0.0,0.0,0.0,0.0,0.0,0.0,0.0,0.0,0.0,0.0,0.0,0.0,0.0,0.0,0.0,0.0,0.0,0.0,0.0,0.0,0.0,0.0,0.0,0.0,0.0,0.0,0.0,0.0,0.0,0.0,0.0,0.0,0.0,0.0,0.0,0.0,0.0,0.0,0.0,0.0,0.0,0.0,0.0,0.0,0.0,0.0,0.0,0.0,0.0,0.0,0.0,0.0,0.0,0.0,0.0,0.0,0.0,0.0,0.0,0.0,0.0,0.0,0.0,0.0,0.0,0.0,0.0,0.0,0.0,0.0,0.0,0.0,0.0,0.0,0.0,0.0,0.0,0.0,0.0,0.0,0.0,0.0,0.0,0.0,0.0,0.0,0.0,0.0,0.0,0.0,0.0,0.0,0.0,0.0,0.0,0.0,0.0,0.0,0.0,0.0,0.0,0.0,0.0,0.0,0.0,0.0,0.0,0.0,0.0,0.0,0.0,0.0,0.0,0.0,0.0,0.0,0.0,0.0,0.0,0.0,0.0,0.0,0.0,0.0,0.0,0.0,0.0,0.0,0.0,0.0,0.0,0.0,0.0,0.0,0.0,0.0,0.0,0.0,0.0,0.0,0.0,0.0,0.0,0.0,0.0,0.0,0.0,0.0,0.0,0.0,0.0,0.0,0.0,0.0,0.0,0.0,0.0,0.0,0.0,0.0,0.0,0.0,0.0,0.0,0.0,0.0,0.0,0.0,0.0,0.0,0.0,0.0,0.0,0.0,0.0,0.0,0.0,0.0,0.0,0.0,0.0,0.0,0.0,0.0,0.0,0.0,0.0,0.0,0.0,0.0,0.0,0.0,0.0,0.0,0.0,0.0,0.0,0.0,0.0,0.0,0.0,0.0,0.0,0.0,0.0,0.0,0.0,0.0,0.0,0.0,0.0,0.0,0.0,0.0,0.0,0.0,0.0,0.0,0.0,0.0,0.0,0.0,0.0,0.0,0.0,0.0,0.0,0.0,0.0,0.0,0.0,0.0,0.0,0.0,0.0,0.0,0.0,0.0,0.0,0.0,0.0,0.0,0.0,0.0,0.0,0.0,0.0,0.0,0.0,0.0,0.0,0.0,0.0,0.0,0.0,0.0,0.0,0.0,0.0,0.0,0.0,0.0,0.0,0.0,0.0,0.0,0.0,0.0,0.0,0.0,0.0,0.0,0.0,0.0,0.0,0.0,0.0,0.0,0.0,0.0,0.0,0.0,0.0,0.0,0.0,0.0,0.0,0.0,0.0,0.0,0.0,0.0,0.0,0.0,0.0,0.0,0.0,0.0,0.0,0.0,0.0,0.0,0.0,0.0,0.0,0.0,0.0,0.0,0.0,0.0,0.0,0.0,0.0,0.0,0.0,0.0,0.0,0.0,0.0,0.0,0.0,0.0,0.0,0.0,0.0,0.0,0.0,0.0,0.0,0.0,0.0,0.0,0.0,0.0,0.0,0.0,0.0,0.0,0.0,0.0,0.0,0.0,0.0,0.0,0.0,0.0,0.0,0.0,0.0,0.0,0.0,0.0,0.0,0.0,0.0,0.0,0.0,0.0,0.0,0.0,0.0,0.0,0.0,0.0,0.0,0.0,0.0,0.0,0.0,0.0,0.0,0.0,0.0,0.0,0.0,0.0,0.0,0.0,0.0,0.0,0.0,0.0,0.0,0.0,0.0,0.0,0.0,0.0,0.0,0.0,0.0,0.0,0.0,0.0,0.0,0.0,0.0,0.0,0.0,0.0,0.0,0.0,0.0,0.0,0.0,0.0,0.0,0.0,0.0,0.0,0.0,0.0,0.0,0.0,0.0,0.0,0.0,0.0,0.0,0.0,0.0,0.0,0.0,0.0,0.0,0.0,0.0,0.0,0.0,0.0,0.0,0.0,0.0,0.0,0.0,0.0,0.0,0.0,0.0,0.0,0.0,0.0,0.0,0.0,0.0,0.0,0.0,0.0,0.0,0.0,0.0,0.0,0.0,0.0,0.0,0.0,0.0,0.0,0.0,0.0,0.0,0.0,0.0,0.0,0.0,0.0,0.0,0.0,0.0,0.0,0.0,0.0,0.0,0.0,0.0,0.0,0.0,0.0,0.0,0.0,0.0,0.0,0.0,0.0,0.0,0.0,0.0,0.0,0.0,0.0,0.0,0.0,0.0,0.0,0.0,0.0,0.0,0.0,0.0,0.0,0.0,0.0,0.0,0.0,0.0,0.0,0.0,0.0,0.0,0.0,0.0,0.0,0.0,0.0,0.0,0.0,0.0,0.0,0.0,0.0,0.0,0.0,0.0,0.0,0.0,0.0,0.0,0.0,0.0,0.0,0.0,0.0,0.0,0.0,0.0,0.0,0.0,0.0,0.0,0.0,0.0,0.0,0.0,0.0,0.0,0.0,0.0,0.0,0.0,0.0,0.0,0.0,0.0,0.0,0.0,0.0,0.0,0.0,0.0,0.0,0.0,0.0,0.0,0.0,0.0,0.0,0.0,0.0,0.0,0.0,0.0,0.0,0.0,0.0,0.0,0.0,0.0,0.0,0.0,0.0,0.0,0.0,0.0,0.0,0.0,0.0,0.0,0.0,0.0,0.0,0.0,0.0,0.0,0.0,0.0,0.0,0.0,0.0,0.0,0.0,0.0,0.0,0.0,0.0,0.0,0.0,0.0,0.0,0.0,0.0,0.0,0.0,0.0,0.0,0.0,0.0,0.0,0.0,0.0,0.0,0.0,0.0,0.0,0.0,0.0,0.0,0.0,0.0,0.0,0.0,0.0,0.0,0.0,0.0,0.0,0.0,0.0,0.0,0.0,0.0,0.0,0.0,0.0,0.0,0.0,0.0,0.0,0.0,0.0,0.0,0.0,0.0,0.0,0.0,0.0,0.0,0.0,0.0,0.0,0.0,0.0,0.0,0.0,0.0,0.0,0.0,0.0,0.0,0.0,0.0,0.0,0.0,0.0,0.0,0.0,0.0,0.0,0.0,0.0,0.0,0.0,0.0,0.0,0.0,0.0,0.0,0.0,0.0,0.0,0.0,0.0,0.0,0.0,0.0,0.0,0.0,0.0,0.0,0.0,0.0,0.0,0.0,0.0,0.0,0.0,0.0,0.0,0.0,0.0,0.0,0.0,0.0,0.0,0.0,0.0,0.0,0.0,0.0,0.0,0.0,0.0,0.0,0.0,0.0,0.0,0.0,0.0,0.0,0.0,0.0,0.0,0.0,0.0,0.0,0.0,0.0,0.0,0.0,0.0,0.0,0.0,0.0,0.0,0.0,0.0,0.0,0.0,0.0,0.0,0.0,0.0,0.0,0.0,0.0,0.0,0.0,0.0,0.0,0.0,0.0,0.0,0.0,0.0,0.0,0.0,0.0,0.0,0.0,0.0,0.0,0.0,0.0,0.0,0.0,0.0,0.0,0.0,0.0,0.0,0.0,0.0,0.0,0.0,0.0,0.0,0.0,0.0,0.0,0.0,0.0,0.0,0.0,0.0,0.0,0.0,0.0,0.0,0.0,0.0,0.0,0.0,0.0,0.0,0.0,0.0,0.0,0.0,0.0,0.0,0.0,0.0,0.0,0.0,0.0,0.0,0.0,0.0,0.0,0.0,0.0,0.0,0.0,0.0,0.0,0.0,0.0,0.0,0.0,0.0,0.0,0.0,0.0,0.0,0.0,0.0,0.0,0.0,0.0,0.0,0.0,0.0,0.0,0.0,0.0,0.0,0.0,0.0,0.0,0.0,0.0,0.0,0.0,0.0,0.0,0.0,0.0,0.0,0.0,0.0,0.0,0.0,0.0,0.0,0.0,0.0,0.0,0.0,0.0,0.0,0.0,0.0,0.0,0.0,0.0,0.0,0.0,0.0,0.0,0.0,0.0,0.0,0.0,0.0,0.0,0.0,0.0,0.0,0.0,0.0,0.0,0.0,0.0,0.0,0.0,0.0,0.0,0.0,0.0,0.0,0.0,0.0,0.0,0.0,0.0,0.0,0.0,0.0,0.0,0.0,0.0,0.0,0.0,0.0,0.0,0.0,0.0,0.0,0.0,0.0,0.0,0.0,0.0,0.0,0.0,0.0,0.0,0.0,0.0,0.0,0.0,0.0,0.0,0.0,0.0,0.0,0.0,0.0,0.0,0.0,0.0,0.0,0.0,0.0,0.0,0.0,0.0,0.0,0.0,0.0,0.0,0.0,0.0,0.0,0.0,0.0,0.0,0.0,0.0,0.0,0.0,0.0,0.0,0.0,0.0,0.0,0.0,0.0,0.0,0.0,0.0,0.0,0.0,0.0,0.0,0.0,0.0,0.0,0.0,0.0,0.0,0.0,0.0,0.0,0.0,0.0,0.0,0.0,0.0,0.0,0.0,0.0,0.0,0.0,0.0,0.0,0.0,0.0,0.0,0.0,0.0,0.0,0.0,0.0,0.0,0.0,0.0,0.0,0.0,0.0,0.0,0.0,0.0,0.0,0.0,0.0,0.0,0.0,0.0,0.0,0.0,0.0,0.0,0.0,0.0,0.0,0.0,0.0,0.0,0.0,0.0,0.0,0.0,0.0,0.0,0.0,0.0,0.0,0.0,0.0,0.0,0.0,0.0,0.0,0.0,0.0,0.0,0.0,0.0,0.0,0.0,0.0,0.0,0.0,0.0,0.0,0.0,0.0,0.0,0.0,0.0,0.0,0.0,0.0,0.0,0.0,0.0,0.0,0.0,0.0,0.0,0.0,0.0,0.0,0.0,0.0,0.0,0.0,0.0,0.0,0.0,0.0,0.0,0.0,0.0,0.0,0.0,0.0,0.0,0.0,0.0,0.0,0.0,0.0,0.0,0.0,0.0,0.0,0.0,0.0,0.0,0.0,0.0,0.0,0.0,0.0,0.0,0.0,0.0,0.0,0.0,0.0,0.0,0.0,0.0,0.0,0.0,0.0,0.0,0.0,0.0,0.0,0.0,0.0,0.0,0.0,0.0,0.0,0.0,0.0,0.0,0.0,0.0,0.0,0.0,0.0,0.0,0.0,0.0,0.0,0.0,0.0,0.0,0.0,0.0,0.0,0.0,0.0,0.0,0.0,0.0,0.0,0.0,0.0,0.0,0.0,0.0,0.0,0.0,0.0,0.0,0.0,0.0,0.0,0.0,0.0,0.0,0.0,0.0,0.0,0.0,0.0,0.0,0.0,0.0,0.0,0.0,0.0,0.0,0.0,0.0,0.0,0.0,0.0,0.0,0.0,0.0,0.0,0.0,0.0,0.0,0.0,0.0,0.0,0.0,0.0,0.0,0.0,0.0,0.0,0.0,0.0,0.0,0.0,0.0,0.0,0.0,0.0,0.0,0.0,0.0,0.0,0.0,0.0,0.0,0.0,0.0,0.0,0.0,0.0,0.0,0.0,0.0,0.0,0.0,0.0,0.0,0.0,0.0,0.0,0.0,0.0,0.0,0.0,0.0,0.0,0.0,0.0,0.0,0.0,0.0,0.0,0.0,0.0,0.0,0.0,0.0,0.0,0.0,0.0,0.0,0.0,0.0,0.0,0.0,0.0,0.0,0.0,0.0,0.0,0.0,0.0,0.0,0.0,0.0,0.0,0.0,0.0,0.0,0.0,0.0,0.0,0.0,0.0,0.0,0.0,0.0,0.0,0.0,0.0,0.0,0.0,0.0,0.0,0.0,0.0,0.0,0.0,0.0,0.0,0.0,0.0,0.0,0.0,0.0,0.0,0.0,0.0,0.0,0.0,0.0,0.0,0.0,0.0,0.0,0.0,0.0,0.0,0.0,0.0,0.0,0.0,1.1834,0.0,0.0,0.0,0.0,0.0,0.0,0.0,0.0,0.0,0.0,0.0,0.0,0.0,0.0,0.0,0.0,0.0,0.0,0.0,0.0,0.0,0.0,0.0,0.0,0.0,0.0,0.0,0.0,0.0,0.0,0.0,0.0,0.0,0.0,0.0,0.0,0.0,0.0,0.0,0.0,0.0,0.0,0.0,0.0,0.0,0.0,0.0,0.0,0.0,0.0,0.0,0.0,0.0,0.0,0.0,0.0,0.0,0.0,0.0,0.0,0.0,0.0,0.0,0.0,0.0,0.0,0.0,0.0,0.0,0.0,0.0,0.0,0.0,0.0,0.0,0.0,0.0,0.0,0.0,0.0,0.0,0.0,0.0,0.0,0.0,0.0,0.0,0.0,0.0,0.0,0.0,0.0,0.0,0.0,0.0,0.0,0.0,0.0,0.0,0.0,0.0,0.0,0.0,0.0,0.0,0.0,0.0,0.0,0.0,0.0,0.0,0.0,0.0,0.0,0.0,0.0,1.3643,0.0,0.0,0.0,0.0,0.0,0.0,0.0,0.0,0.0,0.0,0.0,0.0,0.0,0.0,0.0,0.0,0.0,0.0,0.0,0.0,0.0,0.0,0.0,0.0,0.0,0.0,0.0,0.0,0.0,0.0,0.0,0.0,0.0,0.0,0.0,0.0,0.0,0.0,0.0,0.0,0.0,0.0,0.0,0.0,0.0,0.0,0.0,0.0,0.0,0.0,0.0,0.0,0.0,0.0,0.0,0.0,0.0,0.0,0.0,0.0,0.0,0.0,0.0,0.0,0.0,0.0,0.0,0.0,0.0,0.0,0.0,0.0,0.0,0.0,0.0,0.0,0.0,0.0,0.0,0.0,0.0,0.0,0.0,0.0,0.0,0.0,0.0,0.0,0.0,0.0,0.0,0.0,0.0,0.0,0.0,0.0,0.0,0.0,0.0,0.0,0.0,0.0,0.0,0.0,0.0,0.0,0.0,0.0,0.0,0.0,1.8665,1.8665,1.8678,1.8621,1.6627,1.5711,1.561,0.0,0.0,0.0,0.0,0.0,0.0,0.0,0.0,0.0,0.0,0.0,0.0,0.0,0.0,0.0,0.0,0.0,0.0,0.0,0.0,0.0,0.0,0.0,0.0,0.0,0.0,0.0,0.0,0.0,0.0,0.0,0.0,0.0,0.0,0.0,0.0,0.0,0.0,0.0,2.104,2.2543,2.3185,2.2973,2.0535,0.0,0.0,0.0,0.0,0.0,0.0,0.0,0.0,0.0,0.0,0.0,0.0,0.0,0.0,0.0,0.0,0.0,0.0,0.0,0.0,0.0,0.0,0.0,0.0,0.0,0.0,0.0,0.0,0.0,0.0,0.0,0.0,0.0,0.0,0.0,0.0,0.0,0.0,0.0,0.0,0.0,0.0,0.0,1.4136,1.5455,0.0,0.0,0.0,0.0,0.0,0.0,0.0,0.0,0.0,0.0,0.0,0.0,0.0,0.0,1.6239,1.6233,1.7126,1.8941,1.8941,1.9068,1.9281,1.9281,1.9415,1.9613,1.9052,0.0,1.7935,1.6693,0.0,0.0,0.0,0.0,0.0,0.0,0.0,0.0,0.0,0.0,0.0,0.0,0.0,0.0,0.0,0.0,0.0,0.0,0.0,0.0,0.0,0.0,0.0,0.0,0.0,0.0,0.0,0.0,0.0,0.0,0.0,0.0,0.0,0.0,0.0,0.0,2.1165,2.2723,2.38,2.4527,2.4871,2.4824,2.3558,2.2707,2.2263,2.2263,0.0,0.0,0.0,0.0,0.0,0.0,0.0,0.0,0.0,0.0,0.0,0.0,0.0,0.0,0.0,0.0,0.0,0.0,0.0,0.0,0.0,0.0,0.0,0.0,0.0,0.0,0.0,0.0,0.0,0.0,0.0,0.0,0.0,0.0,0.0,0.0,0.0,0.0,0.0,1.3379,1.5339,1.6656,1.7172,1.6497,0.0,0.0,0.0,0.0,0.0,0.0,0.0,0.0,0.0,1.5546,1.6583,1.7551,1.8426,1.844,1.9009,2.0137,2.0137,2.0202,2.0363,2.0363,2.0523,2.0806,2.0686,2.0391,1.9862,1.8576,1.8312,1.852,0.0,0.0,0.0,0.0,0.0,0.0,0.0,0.0,0.0,0.0,0.0,0.0,0.0,0.0,0.0,0.0,0.0,0.0,0.0,0.0,0.0,1.5618,0.0,0.0,0.0,0.0,0.0,0.0,0.0,0.0,0.0,0.0,0.0,2.1442,2.3262,2.4881,2.6206,2.6323,2.6362,2.6362,2.6362,2.571,2.459,2.459,2.45,0.0,0.0,0.0,0.0,0.0,0.0,0.0,0.0,0.0,0.0,0.0,0.0,0.0,0.0,0.0,0.0,0.0,0.0,0.0,0.0,0.0,0.0,0.0,0.0,0.0,0.0,0.0,0.0,0.0,0.0,0.0,0.0,0.0,0.0,0.0,0.0,0.0,0.0,1.462,1.6485,1.7477,1.7967,1.7484,0.0,0.0,0.0,0.0,0.0,0.0,1.5368,1.6811,1.765,1.7798,1.9257,2.0149,2.0361,2.0361,2.067,2.1259,2.1259,2.1365,2.1563,2.1563,2.1724,2.2037,2.1877,2.166,2.1347,2.0283,1.9599,1.9122,1.8027,0.0,0.0,0.0,1.3482,1.3572,0.0,0.0,0.0,0.0,0.0,0.0,0.0,0.0,0.0,0.0,0.0,0.0,0.0,0.0,1.7954,1.939,2.0253,2.0522,0.0,0.0,0.0,0.0,0.0,0.0,0.0,0.0,0.0,2.3166,2.5609,2.7084,2.7604,2.7982,2.8164,2.8164,2.8164,2.7005,2.5063,2.5063,2.4816,2.4337,0.0,0.0,0.0,0.0,0.0,0.0,0.0,0.0,0.0,0.0,0.0,0.0,0.0,0.0,0.0,0.0,0.0,0.0,0.0,0.0,0.0,0.0,0.0,0.0,0.0,0.0,0.0,0.0,0.0,0.0,0.0,0.0,0.0,0.0,0.0,0.0,0.0,0.0,0.0,1.7595,1.7967,0.0,0.0,0.0,0.0,1.6903,1.7111,1.7863,1.9409,1.982,2.0038,2.0036,2.045,2.1045,2.1887,2.1887,2.2194,2.2786,2.2786,2.28,2.2813,2.2813,2.2957,2.3189,2.2615,2.2348,2.2268,2.1374,2.0666,2.013,2.004,1.9074,1.7709,1.7636,1.7605,1.7372,0.0,0.0,0.0,0.0,0.0,0.0,0.0,0.0,0.0,0.0,0.0,0.0,0.0,1.9372,2.0307,2.0851,2.2033,2.2348,2.1363,0.0,0.0,0.0,0.0,0.0,0.0,0.0,2.3732,2.5344,2.729,2.8457,2.8914,2.907,2.9149,2.9149,2.9149,2.8549,2.75,2.666,2.623,2.5986,2.4888,2.4204,0.0,0.0,0.0,0.0,0.0,0.0,0.0,0.0,0.0,0.0,0.0,0.0,0.0,0.0,0.0,0.0,0.0,0.0,0.0,0.0,0.0,0.0,0.0,0.0,0.0,0.0,0.0,0.0,0.0,0.0,0.0,0.0,0.0,0.0,0.0,0.0,0.0,1.8719,1.9081,0.0,0.0,1.8548,1.8791,1.9294,1.9082,1.9363,2.0332,2.0831,2.1178,2.1349,2.1847,2.2342,2.2829,2.2829,2.314,2.3728,2.3558,2.3558,2.3732,2.3562,2.3531,2.3625,2.338,2.318,2.2949,2.2462,2.1579,2.0521,2.0521,1.9456,1.7929,1.8095,1.8277,1.8317,0.0,0.0,0.0,0.0,0.0,0.0,0.0,0.0,0.0,0.0,0.0,1.799,2.0192,2.1656,2.2538,2.2699,2.3644,2.3772,2.2619,0.0,0.0,0.0,0.0,0.0,0.0,2.3918,2.579,2.7546,2.9043,3.0019,3.0478,3.0478,3.0478,3.0478,3.0478,3.0229,2.9712,2.8561,2.7741,2.7168,2.6458,2.5937,2.5316,0.0,0.0,0.0,0.0,0.0,0.0,0.0,0.0,0.0,0.0,0.0,0.0,0.0,0.0,0.0,0.0,0.0,0.0,0.0,0.0,0.0,0.0,0.0,0.0,0.0,0.0,0.0,0.0,0.0,0.0,0.0,0.0,0.0,0.0,0.0,1.9292,1.9895,2.0347,2.0615,2.0615,2.053,2.0654,2.1103,2.0848,2.0895,2.1406,2.1917,2.2301,2.2596,2.3077,2.3531,2.3897,2.3915,2.415,2.4649,2.4467,2.4481,2.4636,2.436,2.428,2.436,2.4066,2.3861,2.3705,2.3358,2.2555,2.1553,2.1245,2.0017,1.8438,1.8603,1.8784,1.9011,0.0,0.0,0.0,0.0,0.0,0.0,0.0,0.0,0.0,0.0,1.7894,2.018,2.1495,2.334,2.4668,2.5141,2.5141,2.475,2.3878,2.224,0.0,0.0,0.0,0.0,2.3317,2.574,2.7879,2.9676,3.0937,3.1758,3.2198,3.2237,3.2237,3.2218,3.2237,3.1988,3.1489,3.0644,2.933,2.7852,2.8158,2.806,2.7545,0.0,0.0,0.0,0.0,0.0,0.0,0.0,0.0,0.0,0.0,0.0,0.0,0.0,0.0,0.0,0.0,0.0,0.0,0.0,0.0,0.0,0.0,0.0,0.0,0.0,0.0,0.0,0.0,0.0,0.0,0.0,0.0,0.0,1.638,1.8614,2.0452,2.1066,2.1673,2.2034,2.2034,2.1796,2.1863,2.2402,2.2428,2.2579,2.2934,2.3207,2.3483,2.3826,2.4088,2.4516,2.5109,2.5109,2.5256,2.5531,2.5499,2.5518,2.5518,2.5243,2.5251,2.5445,2.4609,2.4377,2.4572,2.4035,2.3621,2.3243,2.2378,2.0998,1.951,1.9522,1.9522,1.9711,0.0,0.0,0.0,0.0,0.0,0.0,0.0,0.0,0.0,0.0,1.956,2.2268,2.4321,2.5586,2.6484,2.6939,2.6094,2.5164,2.4285,0.0,0.0,0.0,0.0,0.0,2.7253,2.8328,2.9717,3.1475,3.2144,3.2359,3.2218,3.2808,3.291,3.2652,3.2949,3.2851,3.2422,3.2187,3.1445,3.0312,2.8549,2.8138,2.8322,0.0,0.0,0.0,0.0,0.0,0.0,0.0,0.0,0.0,0.0,0.0,0.0,0.0,0.0,0.0,0.0,0.0,0.0,0.0,0.0,0.0,0.0,0.0,0.0,0.0,0.0,0.0,0.0,0.0,0.0,0.0,0.0,1.8816,1.9089,1.9958,2.0922,2.1921,2.2392,2.2653,2.2653,2.2586,2.2786,2.3371,2.3193,2.3376,2.4097,2.4199,2.4391,2.4721,2.4997,2.5224,2.5398,2.5398,2.5545,2.5844,2.5611,2.5625,2.5844,2.5531,2.5438,2.5504,2.5264,2.5077,2.493,2.4538,2.4204,2.3901,2.3203,2.2533,2.1953,2.2155,2.2104,2.1961,0.0,0.0,0.0,0.0,0.0,0.0,0.0,0.0,0.0,0.0,2.0857,2.3723,2.528,2.6374,2.7038,2.7154,2.6257,2.5269,2.4219,0.0,0.0,0.0,0.0,2.616,2.9372,3.0424,3.1631,3.3,3.3395,3.3492,3.3258,3.3926,3.4023,3.3613,3.4043,3.4004,3.3574,3.3414,3.3047,3.2422,3.0581,2.9799,2.9564,2.805,2.7484,2.737,2.6168,2.5527,2.5129,2.4171,0.0,0.0,0.0,0.0,0.0,0.0,0.0,0.0,0.0,0.0,0.0,0.0,0.0,0.0,0.0,0.0,0.0,0.0,0.0,0.0,0.0,0.0,0.0,0.0,1.9895,2.0831,2.1603,2.1764,2.2178,2.3203,2.3607,2.387,2.3986,2.3897,2.4013,2.4481,2.4324,2.4444,2.4951,2.4991,2.5178,2.5631,2.5798,2.5999,2.6239,2.6253,2.6266,2.6339,2.6146,2.6092,2.6172,2.5858,2.5772,0.0,2.5625,2.5491,2.5443,2.513,2.4885,0.0,0.0,0.0,0.0,0.0,2.2319,2.2227,0.0,0.0,0.0,0.0,0.0,0.0,0.0,0.0,0.0,0.0,0.0,2.4668,2.4984,2.6223,2.6836,2.6438,2.5925,2.5171,0.0,0.0,0.0,2.3901,2.5861,2.8037,3.0454,3.2148,3.3434,3.4251,3.4704,3.4902,3.4863,3.5371,3.5371,3.4941,3.541,3.5351,3.4902,3.4547,3.4352,3.4235,3.3457,3.2324,3.1108,3.1069,3.0796,3.0424,3.0371,2.9648,2.8548,2.7241,0.0,0.0,0.0,0.0,0.0,0.0,0.0,0.0,0.0,0.0,0.0,0.0,0.0,0.0,0.0,0.0,0.0,0.0,0.0,0.0,0.0,0.0,0.0,0.0,2.106,2.2345,2.3785,2.3821,2.3977,2.4706,2.5037,2.531,2.5585,2.5317,2.5277,2.5619,2.5579,2.5598,2.5705,0.0,0.0,0.0,0.0,2.6754,2.7288,2.7309,2.7155,2.6847,2.6847,2.6734,2.648,2.6265,2.6292,2.6473,2.5932,2.5825,2.6024,2.5718,2.5552,2.5392,2.4387,2.3026,2.1639,2.1603,2.1561,0.0,0.0,0.0,0.0,0.0,0.0,0.0,0.0,0.0,0.0,1.8015,2.2352,2.523,2.4598,2.6003,2.6836,2.6438,2.5676,2.5246,0.0,0.0,2.5567,2.7721,2.8898,3.0379,3.2266,3.3633,3.459,3.5153,3.5935,3.613,3.5764,3.6562,3.6716,3.6326,3.6756,3.6697,3.6323,3.6245,3.5993,3.5608,3.5452,3.4199,3.2398,3.2066,3.1905,3.1753,3.1372,3.1328,3.1294,3.033,2.8874,2.7461,2.7481,0.0,0.0,0.0,0.0,0.0,0.0,0.0,0.0,0.0,0.0,0.0,0.0,0.0,0.0,0.0,0.0,0.0,0.0,0.0,0.0,2.1419,2.2582,2.3803,2.501,2.5712,2.6099,2.6052,2.5911,2.5944,2.6186,2.5745,2.5745,2.6487,2.6152,2.6205,2.6914,2.6707,0.0,2.7101,2.7135,2.7168,2.7309,2.7309,2.7282,2.7195,0.0,0.0,2.7115,2.7081,2.7081,2.7115,2.6994,2.6714,2.6326,2.6239,2.5945,2.5472,2.5264,2.4838,2.4304,2.4031,2.3797,2.3622,0.0,0.0,0.0,0.0,0.0,0.0,0.0,0.0,0.0,0.0,2.2241,2.4879,2.4461,2.5391,2.5859,2.543,2.4816,0.0,0.0,2.6145,2.7337,2.9473,3.0806,3.2309,3.4062,3.4922,3.5684,3.6348,3.6795,3.6875,3.6662,3.7287,3.75,3.7305,3.7502,3.7617,3.7615,3.7185,3.6973,3.6936,3.6721,3.6116,3.5273,3.4414,3.3844,3.3453,3.3457,3.3164,3.2734,3.2305,3.1129,2.9824,2.9618,2.8526,2.6865,0.0,0.0,0.0,0.0,0.0,0.0,0.0,0.0,0.0,0.0,0.0,0.0,0.0,0.0,1.969,0.0,0.0,2.1654,2.2729,2.3892,2.505,2.6246,2.6894,2.7148,2.6887,2.6727,2.6707,2.6834,2.658,2.6573,2.7014,2.6794,2.6841,2.7282,2.7141,2.7195,2.7489,2.7502,2.7569,2.775,2.775,2.767,2.7502,2.7502,2.7422,2.7309,2.7309,2.7309,2.7309,2.7309,2.7034,2.66,2.6453,2.6213,2.5945,2.5945,2.5678,2.5277,2.5112,2.4871,2.4641,0.0,0.0,0.0,0.0,0.0,0.0,0.0,0.0,0.0,0.0,2.199,2.4344,2.4168,2.464,2.4777,0.0,0.0,0.0,0.0,2.7337,2.8894,3.0742,3.2422,3.4062,3.5723,3.625,3.6894,3.7676,3.7754,3.7793,3.7812,3.8144,3.8283,3.8283,3.8283,3.8496,3.8807,3.8086,3.8008,3.8263,3.793,3.8008,3.8185,3.715,3.623,3.5449,3.5508,3.471,3.3636,3.3558,3.268,3.1528,3.0889,3.0371,2.9468,2.6925,2.5224,0.0,0.0,0.0,0.0,0.0,0.0,0.0,0.0,0.0,1.9907,1.996,2.0241,2.0615,2.106,2.2017,2.3042,2.3986,2.5109,2.6199,2.7235,2.7623,2.7716,2.751,2.7429,2.7395,2.7469,2.7376,2.7349,2.7469,2.7395,2.7416,2.7469,2.7483,2.7556,2.7797,2.781,2.7917,2.82,2.82,2.8058,2.781,2.781,2.7676,2.7483,2.7483,2.7483,2.7469,2.7416,2.7215,2.6954,2.668,2.656,2.656,2.656,2.6239,2.5739,2.5638,2.5411,2.5176,0.0,0.0,0.0,0.0,0.0,0.0,0.0,0.0,0.0,0.0,0.0,0.0,0.0,0.0,0.0,0.0,0.0,0.0,2.737,2.8679,3.0483,3.2934,3.4375,3.5723,3.7051,3.7889,3.8534,3.8984,3.9394,3.9609,3.9609,3.9648,3.9668,3.9668,3.9668,3.9707,3.9746,3.9648,3.9629,3.9668,3.9629,3.9629,3.9668,3.9512,3.8925,3.7967,3.6467,3.5335,3.4492,3.4137,3.3176,3.2179,3.2437,3.1953,3.0877,2.8866,0.0,2.6252,2.3477,0.0,0.0,1.8584,1.8677,1.8837,0.0,0.0,2.0239,2.0537,2.1047,2.1689,2.2505,2.3398,2.4289,2.517,2.6326,2.7222,2.7589,2.7951,2.8125,2.8106,2.7837,2.777,2.8058,2.7617,2.7523,2.8066,2.7823,2.7783,2.8072,2.8106,2.8098,2.8138,2.8138,2.8152,2.82,2.82,2.8186,2.8138,2.8138,2.8146,2.8106,2.8106,2.8106,2.8072,2.7783,2.7629,2.7575,2.7302,2.7202,2.7202,2.7202,2.6981,2.6593,2.6112,2.5738,2.5464,0.0,0.0,0.0,0.0,0.0,0.0,0.0,0.0,0.0,0.0,0.0,0.0,0.0,0.0,0.0,0.0,0.0,2.5942,2.7917,2.9721,3.1855,3.4453,3.582,3.6992,3.8026,3.8633,3.9179,3.9609,3.9805,3.9902,3.9902,3.9902,4.0019,4.0235,4.0,4.0176,4.0625,4.0117,4.0039,4.0234,4.0,4.0039,4.0157,3.9433,3.8925,3.8436,3.7207,3.6055,0.0,0.0,3.3762,3.3254,3.2906,3.2559,3.1767,2.9218,2.7452,0.0,2.1789,0.0,0.0,0.0,1.9599,2.0015,2.0258,2.1058,2.182,2.1957,2.2465,2.3148,2.4031,2.478,2.5524,0.0,2.7115,2.7636,2.7965,2.8112,2.8079,2.771,2.769,2.7837,2.8173,2.7965,2.7924,2.8186,2.8072,2.8058,2.82,2.82,2.82,2.82,2.82,2.82,2.82,2.82,2.82,2.82,2.82,2.82,2.82,2.82,2.82,2.8186,2.785,2.7696,2.7682,2.7409,2.7309,2.7309,2.7309,2.7208,2.7054,2.6841,2.6359,2.5844,0.0,0.0,0.0,0.0,0.0,0.0,0.0,0.0,0.0,0.0,0.0,0.0,0.0,0.0,0.0,0.0,0.0,2.5317,2.7473,2.9951,3.2559,3.5273,3.6719,3.793,3.8944,3.9355,3.9785,4.0273,4.0273,4.0273,4.0273,4.0273,4.041,4.0684,4.0391,4.0605,4.1152,4.0527,4.043,4.0684,4.0371,4.0351,4.0352,3.91,3.8299,3.7772,3.6912,3.5684,0.0,0.0,3.3028,3.3019,3.1819,3.1774,3.1597,2.8887,2.6649,2.4394,2.1373,0.0,0.0,2.1123,2.149,2.2032,2.2595,2.3387,2.3853,2.3453,2.3785,2.4414,2.5296,2.5871,2.6473,2.7275,2.7649,2.7917,2.8173,2.8066,2.775,2.7222,2.7208,2.7382,2.7791,2.7965,2.8098,2.82,2.82,2.82,2.82,2.82,2.82,2.82,2.82,2.82,2.82,2.82,2.82,2.82,2.82,2.82,2.82,2.82,2.82,2.82,2.793,2.7837,2.7823,2.763,2.755,2.755,2.755,2.7496,2.7422,2.7523,2.7041,2.6412,0.0,0.0,0.0,0.0,0.0,0.0,0.0,0.0,0.0,0.0,0.0,0.0,0.0,0.0,0.0,0.0,2.2175,2.3578,2.5739,2.9035,3.2246,3.527,3.6994,3.8497,3.9824,4.0254,4.0703,4.1152,4.1152,4.1152,4.1152,4.1152,4.1172,4.1172,4.1172,4.1172,4.1191,4.1172,4.1172,4.1172,4.1172,4.0898,4.0352,3.91,3.7539,3.5959,3.5098,0.0,0.0,0.0,3.0355,3.0655,2.8671,2.916,0.0,2.7949,2.5595,0.0,0.0,0.0,2.1614,2.3744,2.4566,2.4991,2.5458,2.6152,2.6284,2.4833,2.4823,2.5323,2.6205,2.66,2.6967,2.7589,2.7978,2.82,2.82,2.7697,2.7195,2.6847,2.6366,2.6259,0.0,2.7375,2.785,2.8186,2.82,2.82,2.82,2.82,2.82,2.82,2.82,2.82,2.82,2.82,2.82,2.82,2.82,2.82,2.82,2.82,2.82,2.82,2.82,2.8186,2.8186,2.8186,2.8186,2.8186,2.8186,2.7957,2.7722,2.8045,2.7798,2.7229,0.0,0.0,0.0,0.0,0.0,0.0,0.0,0.0,0.0,0.0,0.0,0.0,0.0,0.0,0.0,0.0,0.0,2.3736,2.6428,2.9302,3.1855,3.3968,3.6836,3.8592,3.9022,4.0293,4.1054,4.1191,4.1191,4.1191,4.1191,4.1191,4.1191,4.1191,4.1191,4.1348,4.1562,4.1308,4.1348,4.1504,4.0683,4.0234,3.9863,3.7695,3.5996,3.4378,0.0,0.0,0.0,0.0,0.0,0.0,2.6872,0.0,0.0,2.539,0.0,0.0,0.0,0.0,2.4026,2.5375,2.7141,2.8664,2.9223,2.8782,2.8078,2.7401,2.6112,2.5189,2.5483,2.5617,2.5919,2.6707,2.7262,2.7737,2.8146,2.8039,2.7496,2.6393,2.6626,0.0,0.0,0.0,0.0,2.8138,2.82,2.82,2.82,2.82,2.82,2.82,2.82,2.82,2.82,2.82,2.82,2.82,2.82,2.82,2.82,2.82,2.82,2.82,2.82,2.82,2.82,2.82,2.82,2.82,2.82,2.8125,2.8045,2.8173,2.8058,2.7817,0.0,0.0,0.0,0.0,0.0,0.0,0.0,0.0,0.0,0.0,0.0,0.0,0.0,0.0,0.0,0.0,0.0,0.0,2.5705,2.8157,3.041,3.2422,3.5078,3.6677,3.6988,3.8221,3.8964,3.912,3.9433,3.9667,3.9823,4.0117,4.0351,4.0488,4.0664,4.0976,4.1308,4.0918,4.0703,4.0566,3.9276,3.8475,3.7793,3.5508,3.3585,0.0,0.0,0.0,0.0,0.0,0.0,0.0,0.0,0.0,0.0,0.0,0.0,0.0,0.0,2.5208,2.7492,2.9056,3.088,3.2414,3.289,3.2236,3.1023,2.907,2.7343,2.5894,2.4945,2.4708,2.4949,2.5919,2.6386,2.6941,2.7764,2.7697,2.7215,2.6265,2.6446,2.6446,0.0,0.0,0.0,2.7965,2.8232,2.8299,2.8213,2.8393,2.8438,2.8353,2.8425,2.8478,2.8478,2.8385,2.8299,2.82,2.82,2.82,2.82,2.82,2.82,2.82,2.82,2.82,2.82,2.82,2.82,2.82,2.82,2.82,2.82,2.82,2.82,2.8133,0.0,0.0,0.0,0.0,0.0,0.0,0.0,0.0,0.0,0.0,0.0,0.0,0.0,0.0,0.0,0.0,0.0,0.0,2.3631,2.5819,2.8125,3.0639,3.2027,3.3141,3.3981,3.443,3.4863,3.5351,3.6169,3.6775,3.7187,3.8006,3.8612,3.8984,3.9434,3.9863,4.0215,3.9805,3.9179,3.8319,3.7066,3.5779,3.4453,3.2672,0.0,0.0,0.0,0.0,0.0,0.0,0.0,0.0,0.0,0.0,0.0,0.0,0.0,2.7784,2.7029,2.8959,3.1749,3.4342,3.5541,3.6124,3.6188,3.6073,3.4606,2.9738,2.8233,2.7038,0.0,0.0,2.4133,2.5277,2.5499,2.5972,2.7188,2.6847,2.6466,0.0,0.0,0.0,0.0,0.0,0.0,2.7655,0.0,2.8465,2.8219,2.8711,2.8876,2.8631,2.8863,2.8988,2.9001,2.8743,2.8492,2.82,2.8205,2.8226,2.82,2.82,2.82,2.82,2.82,2.82,2.82,2.82,2.82,2.82,2.82,2.82,2.82,2.82,2.82,2.8138,0.0,0.0,0.0,0.0,0.0,0.0,0.0,0.0,0.0,0.0,0.0,0.0,0.0,0.0,0.0,0.0,0.0,0.0,2.2798,2.5495,2.7448,2.8464,3.0659,3.209,3.2667,3.3379,3.4105,3.4883,3.4802,3.4958,3.5371,3.5586,3.5742,3.5859,3.5976,3.6269,3.668,3.6211,3.6094,3.6111,0.0,3.4027,3.3428,0.0,0.0,0.0,0.0,0.0,0.0,0.0,0.0,2.3103,2.3656,2.4311,2.5138,0.0,0.0,2.8676,2.9863,3.2199,3.4594,3.572,3.7446,3.8405,3.6617,3.4511,3.1985,2.8663,2.5778,2.3584,0.0,0.0,0.0,2.4644,2.5579,0.0,2.7791,2.7831,0.0,2.6767,0.0,2.6947,2.646,2.6987,0.0,0.0,2.7984,2.8096,2.8492,2.8631,2.8756,2.8881,2.877,2.8796,2.8988,2.8921,2.8671,2.8213,2.8398,2.8385,2.82,2.82,2.82,2.82,2.82,2.82,2.82,2.82,2.82,2.82,2.82,2.82,2.82,2.82,2.82,2.82,0.0,0.0,0.0,0.0,0.0,0.0,0.0,0.0,0.0,0.0,0.0,0.0,0.0,0.0,0.0,0.0,0.0,0.0,0.0,2.5133,2.6458,2.7096,2.8672,2.9648,2.9902,3.0371,3.102,3.1894,3.1675,3.1968,3.2734,3.293,3.3238,3.361,3.3789,3.4219,3.4802,3.4336,0.0,0.0,0.0,0.0,0.0,0.0,0.0,0.0,0.0,0.0,2.2268,2.4032,2.3877,2.3427,2.6214,2.7539,2.8354,2.9866,0.0,3.2598,3.344,3.5648,3.7821,3.8386,3.9491,3.991,3.7746,3.5282,3.2416,2.8828,2.5771,2.3313,2.1876,2.1994,2.276,0.0,0.0,0.0,2.759,2.7804,2.7636,0.0,2.7495,0.0,2.7208,2.7623,2.8091,0.0,2.8377,2.8409,2.8756,2.9023,2.9205,2.921,2.9205,2.9205,2.921,2.9068,2.885,2.8559,2.8689,2.8644,2.8393,2.8393,2.8312,2.82,0.0,2.82,2.82,2.82,2.82,2.82,2.82,2.82,2.82,2.82,2.82,2.82,0.0,0.0,0.0,0.0,0.0,0.0,0.0,0.0,0.0,0.0,0.0,0.0,0.0,0.0,0.0,0.0,0.0,0.0,0.0,0.0,0.0,2.6269,2.6647,2.6882,2.6999,2.694,2.7383,2.8314,0.0,2.8809,2.9961,3.0351,3.0952,3.171,3.2046,3.2633,3.3297,0.0,0.0,0.0,0.0,0.0,0.0,0.0,0.0,0.0,0.0,2.43,2.2911,2.6853,2.6359,2.4838,2.9117,3.1219,3.2348,3.3614,3.5699,3.749,3.7259,3.8899,4.0762,4.1191,4.1152,4.0451,3.8296,3.6215,3.3411,2.8743,2.625,2.4122,2.1576,2.1392,2.2144,2.3652,0.0,2.5352,2.7155,2.7456,2.7556,2.7789,2.7816,2.7957,2.8272,2.8299,2.8532,2.909,2.9148,2.9157,2.9077,2.9557,2.974,2.9508,2.9766,2.9753,2.9454,2.9223,2.9068,2.9001,2.9063,2.893,2.8649,2.8631,2.8457,2.8245,0.0,0.0,2.82,2.82,2.82,2.82,2.82,2.82,2.82,2.82,2.82,2.82,0.0,0.0,0.0,0.0,0.0,0.0,0.0,0.0,0.0,0.0,0.0,0.0,0.0,0.0,0.0,0.0,0.0,0.0,0.0,0.0,0.0,0.0,2.5893,2.6264,2.6979,0.0,0.0,0.0,0.0,0.0,2.8633,2.8711,2.8828,2.8978,2.9057,2.9174,2.9311,0.0,0.0,0.0,0.0,0.0,0.0,0.0,0.0,0.0,2.4654,2.2969,2.2126,2.7319,2.8222,2.7883,3.2046,3.4001,3.5049,3.6651,3.7949,3.9086,4.0124,4.0977,4.1601,4.168,4.0898,3.8974,3.4573,3.2112,0.0,2.448,2.2625,2.1713,2.1183,2.1566,2.2489,2.419,2.4965,2.5972,2.7777,2.8238,2.839,0.0,2.8444,2.8543,2.8836,2.8863,0.0,0.0,0.0,0.0,2.9432,2.9499,2.9561,2.9508,2.9766,2.9637,2.9103,2.953,2.9504,2.9001,2.9285,2.9245,2.8908,2.8689,2.8577,2.8511,0.0,0.0,2.82,2.82,2.82,2.82,2.82,2.82,2.82,2.82,2.82,2.82,0.0,0.0,0.0,0.0,0.0,0.0,0.0,0.0,0.0,0.0,0.0,0.0,0.0,0.0,0.0,0.0,0.0,0.0,0.0,0.0,0.0,0.0,0.0,0.0,0.0,0.0,0.0,0.0,0.0,0.0,0.0,0.0,0.0,0.0,0.0,0.0,0.0,0.0,0.0,0.0,0.0,0.0,0.0,0.0,0.0,0.0,0.0,2.2828,2.2197,2.6303,2.7487,2.8212,3.396,3.5741,3.5989,3.739,3.8138,3.8758,3.9789,4.1059,4.1792,4.0427,3.9178,3.7072,3.242,2.9551,2.6947,2.369,2.1997,2.1093,2.1093,2.159,2.2382,2.3527,2.4088,2.505,2.7001,2.7382,2.7736,2.8511,2.8716,2.893,0.0,2.9384,0.0,0.0,0.0,0.0,2.9989,2.9793,2.9713,2.9713,2.97,2.9633,2.9477,2.9633,2.9633,2.9477,2.9646,2.9553,2.9237,2.8943,2.8729,2.8591,0.0,0.0,0.0,2.82,2.82,2.82,2.82,2.82,2.82,2.82,2.82,2.82,0.0,0.0,0.0,0.0,0.0,0.0,0.0,0.0,0.0,0.0,0.0,0.0,0.0,0.0,0.0,0.0,0.0,0.0,0.0,0.0,0.0,0.0,0.0,0.0,0.0,0.0,0.0,0.0,0.0,0.0,0.0,0.0,0.0,0.0,0.0,0.0,0.0,0.0,0.0,0.0,0.0,0.0,0.0,0.0,0.0,0.0,0.0,0.0,2.2371,2.5273,2.6437,2.774,3.3832,3.565,3.5672,3.6454,3.7449,3.8421,3.9012,4.0975,4.2291,4.0044,3.8347,3.6016,3.1511,2.8338,2.5734,2.3515,2.2025,2.1093,2.1093,2.1483,2.2047,2.2773,2.3126,2.403,2.6106,2.6547,2.7175,2.8537,2.8943,0.0,2.9655,2.9873,0.0,0.0,0.0,0.0,0.0,3.0163,2.9958,2.9891,2.97,2.9686,2.9891,2.9686,2.9686,2.9891,2.9891,2.9793,2.9566,2.925,2.8956,2.8663,0.0,0.0,0.0,2.82,2.82,2.82,2.82,2.82,2.82,2.82,2.82,2.82,0.0,0.0,0.0,0.0,0.0,0.0,0.0,0.0,0.0,0.0,0.0,0.0,0.0,0.0,0.0,0.0,0.0,0.0,0.0,0.0,0.0,0.0,0.0,0.0,0.0,0.0,0.0,0.0,0.0,0.0,0.0,0.0,0.0,0.0,0.0,0.0,0.0,0.0,0.0,0.0,0.0,0.0,0.0,0.0,0.0,0.0,0.0,0.0,2.2126,2.531,2.6637,2.7421,2.9966,3.2248,3.392,3.3465,3.6315,3.9625,3.9698,4.1903,4.3982,4.2939,4.053,3.713,3.2154,2.9044,2.6072,2.2135,2.122,2.1093,2.1093,2.1149,2.1563,2.2719,2.3126,2.403,2.6106,2.7081,2.7936,2.8841,0.0,0.0,3.0266,3.0346,0.0,0.0,0.0,0.0,0.0,3.0386,3.0217,2.9904,2.9864,2.9864,2.9891,2.9864,2.9864,2.9891,2.9891,2.9878,2.9838,2.9579,2.9285,2.8956,0.0,0.0,0.0,2.82,2.82,2.82,2.82,2.82,2.82,2.82,2.82,2.82,0.0,0.0,0.0,0.0,0.0,0.0,0.0,0.0,0.0,0.0,0.0,0.0,0.0,0.0,0.0,0.0,0.0,0.0,0.0,0.0,0.0,0.0,0.0,0.0,0.0,0.0,0.0,0.0,0.0,0.0,0.0,0.0,0.0,0.0,0.0,0.0,0.0,0.0,0.0,0.0,0.0,0.0,0.0,0.0,0.0,0.0,0.0,0.0,0.0,2.1935,2.2778,2.3311,2.3945,2.568,2.797,3.048,3.3846,3.7046,3.8222,4.1586,4.4235,4.2078,3.9115,3.5412,3.0336,2.7047,2.4312,2.1655,2.1093,2.1093,2.1093,2.0962,2.1071,2.1713,2.16,2.2108,2.4026,2.473,2.5785,2.7736,2.8551,0.0,0.0,0.0,0.0,0.0,0.0,0.0,0.0,0.0,3.0511,3.0217,3.0203,3.0203,3.0203,3.0007,3.0007,3.0203,3.0007,2.9891,2.9878,2.941,2.913,0.0,0.0,0.0,0.0,2.82,2.82,2.82,2.82,2.82,2.82,2.82,2.82,2.82,0.0,0.0,0.0,0.0,0.0,0.0,0.0,0.0,0.0,0.0,0.0,0.0,0.0,0.0,0.0,0.0,0.0,0.0,0.0,0.0,0.0,0.0,0.0,0.0,0.0,0.0,0.0,0.0,0.0,0.0,0.0,0.0,0.0,0.0,0.0,0.0,0.0,0.0,0.0,0.0,0.0,0.0,0.0,0.0,0.0,0.0,0.0,0.0,0.0,0.0,0.0,2.0283,2.0132,2.1093,2.3032,2.684,3.0755,3.4123,3.5679,3.9451,4.2404,4.0008,3.692,3.3302,2.8899,2.5675,2.3123,2.1443,2.1093,2.1093,2.1093,2.0884,2.0791,2.1069,2.0746,2.1066,2.2783,2.334,2.4409,2.6653,0.0,0.0,0.0,0.0,0.0,0.0,0.0,0.0,0.0,0.0,3.0898,3.0524,3.0337,3.0297,3.04,3.006,3.002,3.0243,3.002,2.9891,2.9878,2.9464,2.9161,0.0,0.0,0.0,0.0,2.82,2.82,2.82,2.82,2.82,2.82,2.82,2.82,2.82,0.0,0.0,0.0,0.0,0.0,0.0,0.0,0.0,0.0,0.0,0.0,0.0,0.0,0.0,0.0,0.0,0.0,0.0,0.0,0.0,0.0,0.0,0.0,0.0,0.0,0.0,0.0,0.0,0.0,0.0,0.0,0.0,0.0,0.0,0.0,0.0,0.0,0.0,0.0,0.0,0.0,0.0,0.0,0.0,0.0,0.0,0.0,0.0,0.0,0.0,0.0,0.0,0.0,1.9813,2.0256,2.2365,2.6985,3.1574,3.2189,3.5198,3.7959,3.7055,3.4411,3.1311,2.8534,2.5675,2.3123,2.1443,2.1093,2.1093,2.1093,2.0884,2.0791,2.1069,2.1093,2.16,2.3096,2.3803,2.4636,0.0,0.0,2.7408,0.0,0.0,0.0,0.0,0.0,0.0,0.0,0.0,3.142,3.0808,3.0221,3.006,3.04,3.006,2.9891,2.9927,2.9891,2.9891,2.9891,2.9891,0.0,0.0,0.0,0.0,0.0,2.82,2.82,2.82,2.82,2.82,2.82,2.82,2.82,2.82,0.0,0.0,0.0,0.0,0.0,0.0,0.0,0.0,0.0,0.0,0.0,0.0,0.0,0.0,0.0,0.0,0.0,0.0,0.0,0.0,0.0,0.0,0.0,0.0,0.0,0.0,0.0,0.0,0.0,0.0,0.0,0.0,0.0,0.0,0.0,0.0,0.0,0.0,0.0,0.0,0.0,0.0,0.0,0.0,0.0,0.0,0.0,0.0,0.0,0.0,0.0,0.0,0.0,0.0,0.0,2.1071,2.485,2.8937,3.0241,3.2928,3.5206,3.4444,3.2372,2.9811,2.7244,2.5077,2.3123,2.1443,2.1093,2.1093,2.1093,2.0884,2.0857,2.1368,2.1243,2.1416,2.2285,0.0,0.0,2.6112,2.8572,0.0,0.0,0.0,0.0,0.0,0.0,0.0,0.0,0.0,0.0,3.1066,3.0715,3.0555,3.0684,3.0167,3.002,3.0243,3.0007,2.9891,2.9878,0.0,0.0,0.0,0.0,0.0,0.0,2.82,2.82,2.82,2.82,2.82,2.82,2.82,2.82,2.82,0.0,0.0,0.0,0.0,0.0,0.0,0.0,0.0,0.0,0.0,0.0,0.0,0.0,0.0,0.0,0.0,0.0,0.0,0.0,0.0,0.0,0.0,0.0,0.0,0.0,0.0,0.0,0.0,0.0,0.0,0.0,0.0,0.0,0.0,0.0,0.0,0.0,0.0,0.0,0.0,0.0,0.0,0.0,0.0,0.0,0.0,0.0,0.0,0.0,0.0,0.0,0.0,0.0,0.0,0.0,0.0,2.2576,2.5277,2.7174,2.923,3.0718,3.0206,2.8634,2.6736,2.496,2.3494,2.2218,2.1155,2.1029,2.1093,2.1093,2.0884,2.086,2.1325,2.1152,2.1269,2.2208,0.0,0.0,2.6687,0.0,0.0,0.0,0.0,0.0,0.0,0.0,0.0,0.0,0.0,0.0,3.1199,3.0835,3.0658,3.0658,3.0154,3.0007,3.0217,3.0007,2.986,2.974,0.0,0.0,0.0,0.0,0.0,0.0,2.82,2.82,2.82,2.82,2.82,2.82,2.82,2.82,2.82,0.0,0.0,0.0,0.0,0.0,0.0,0.0,0.0,0.0,0.0,0.0,0.0,0.0,0.0,0.0,0.0,0.0,0.0,0.0,0.0,0.0,0.0,0.0,0.0,0.0,0.0,0.0,2.6399,2.6804,2.7246,2.7702,0.0,0.0,0.0,0.0,0.0,0.0,0.0,0.0,0.0,0.0,0.0,0.0,0.0,0.0,0.0,0.0,0.0,0.0,0.0,0.0,0.0,0.0,0.0,0.0,0.0,0.0,0.0,0.0,2.4511,2.5104,2.4882,2.3745,2.2572,2.2034,2.1272,0.0,2.0712,2.0909,2.1093,2.1093,2.0911,2.0817,2.1096,2.0938,2.1259,0.0,2.3799,0.0,0.0,0.0,0.0,0.0,0.0,0.0,0.0,0.0,0.0,0.0,0.0,0.0,0.0,3.0671,3.04,3.04,3.006,2.9891,2.9891,2.9878,2.974,2.9508,0.0,0.0,0.0,0.0,0.0,0.0,2.82,2.82,2.82,2.82,2.82,2.82,2.82,2.82,2.82,0.0,0.0,0.0,0.0,0.0,0.0,0.0,0.0,0.0,0.0,0.0,0.0,0.0,0.0,0.0,0.0,0.0,0.0,0.0,0.0,0.0,0.0,0.0,0.0,0.0,0.0,0.0,2.6399,2.6804,2.7246,2.7702,2.8099,0.0,0.0,0.0,0.0,0.0,0.0,0.0,0.0,0.0,0.0,0.0,0.0,0.0,0.0,0.0,0.0,0.0,0.0,0.0,0.0,0.0,0.0,0.0,0.0,2.0283,0.0,0.0,0.0,2.186,2.2004,2.1427,2.0853,0.0,2.086,2.0712,2.0712,2.0909,2.1093,2.1093,2.1056,2.1109,2.1435,2.1422,2.1729,2.276,0.0,0.0,0.0,0.0,0.0,0.0,0.0,0.0,0.0,0.0,0.0,0.0,0.0,0.0,0.0,3.0564,3.04,3.04,3.006,2.9891,2.9891,2.9686,2.9575,0.0,0.0,0.0,0.0,0.0,0.0,0.0,2.82,2.82,2.82,2.82,2.82,2.82,2.82,2.82,2.82,0.0,0.0,0.0,0.0,0.0,0.0,0.0,0.0,0.0,0.0,0.0,0.0,0.0,0.0,0.0,0.0,0.0,0.0,0.0,0.0,0.0,0.0,0.0,0.0,0.0,0.0,0.0,0.0,0.0,2.7344,0.0,0.0,0.0,0.0,0.0,0.0,0.0,0.0,0.0,0.0,0.0,0.0,0.0,0.0,0.0,0.0,0.0,0.0,0.0,1.9348,1.9401,1.9415,0.0,0.0,0.0,0.0,0.0,0.0,0.0,2.0548,2.0697,2.0679,2.0359,2.0092,2.0401,2.0468,2.0508,2.0657,2.0909,2.1093,2.1093,2.1002,2.1018,2.1312,2.1365,0.0,0.0,0.0,2.8778,0.0,0.0,0.0,0.0,0.0,0.0,0.0,0.0,0.0,0.0,0.0,0.0,0.0,0.0,3.0457,3.0154,2.9993,2.9891,2.9891,2.9753,2.9539,0.0,0.0,0.0,0.0,0.0,0.0,2.82,2.82,2.82,2.82,2.82,2.82,2.82,2.82,2.82,2.82,0.0,0.0,0.0,0.0,0.0,0.0,0.0,0.0,0.0,0.0,0.0,0.0,0.0,0.0,0.0,0.0,0.0,0.0,0.0,0.0,0.0,0.0,0.0,0.0,0.0,0.0,0.0,0.0,0.0,0.0,0.0,0.0,2.8431,0.0,0.0,0.0,0.0,0.0,0.0,0.0,0.0,0.0,0.0,0.0,0.0,0.0,0.0,0.0,0.0,1.9293,1.9401,1.9441,1.9667,0.0,0.0,0.0,0.0,0.0,2.063,2.0657,2.0643,2.0399,2.004,1.9826,2.0199,2.0237,2.0306,2.063,2.0909,2.1093,2.1093,2.0964,0.0,0.0,0.0,0.0,2.5938,2.7776,0.0,0.0,0.0,0.0,0.0,0.0,0.0,0.0,0.0,0.0,0.0,0.0,0.0,0.0,0.0,0.0,2.9891,2.9891,2.9891,2.9891,2.9797,2.9504,2.8988,0.0,0.0,0.0,0.0,0.0,2.82,2.82,2.82,2.82,2.82,2.82,2.82,2.82,2.82,2.82,0.0,0.0,0.0,0.0,0.0,0.0,0.0,0.0,0.0,0.0,0.0,0.0,0.0,0.0,0.0,0.0,0.0,0.0,0.0,0.0,0.0,0.0,0.0,0.0,0.0,0.0,0.0,0.0,0.0,0.0,2.8814,2.9213,2.8998,2.8295,0.0,0.0,0.0,0.0,0.0,0.0,0.0,0.0,0.0,0.0,0.0,0.0,0.0,0.0,0.0,1.9388,1.9401,1.9401,1.9455,0.0,0.0,0.0,0.0,0.0,2.0279,2.0481,2.0737,2.0922,2.0216,1.9669,2.0443,2.0399,2.0306,2.063,2.0909,2.1093,2.1093,2.1299,2.1542,0.0,0.0,0.0,0.0,0.0,0.0,0.0,0.0,0.0,0.0,0.0,0.0,0.0,0.0,0.0,0.0,0.0,0.0,0.0,0.0,0.0,0.0,2.9891,2.9891,2.9891,2.9384,2.9081,2.8975,2.8532,0.0,0.0,0.0,0.0,2.82,2.82,2.82,2.82,2.82,2.82,2.82,2.82,2.82,2.82,0.0,0.0,0.0,0.0,0.0,0.0,0.0,0.0,0.0,0.0,0.0,0.0,0.0,0.0,0.0,0.0,0.0,0.0,0.0,0.0,0.0,0.0,0.0,0.0,0.0,0.0,0.0,0.0,0.0,2.9902,3.0298,2.9819,2.9252,2.8613,0.0,0.0,0.0,0.0,0.0,0.0,0.0,0.0,0.0,0.0,0.0,0.0,0.0,0.0,0.0,0.0,1.9401,1.9401,1.9401,0.0,0.0,0.0,0.0,0.0,2.0468,2.0454,2.0508,2.0817,2.0347,1.9987,2.0563,2.0321,2.0417,2.1955,2.1538,2.1244,2.2446,0.0,2.2395,2.3491,0.0,0.0,0.0,0.0,0.0,0.0,0.0,0.0,0.0,0.0,0.0,0.0,0.0,0.0,0.0,0.0,0.0,0.0,0.0,0.0,0.0,2.9766,2.9686,2.9673,2.9406,2.909,2.8783,2.8545,2.8353,0.0,0.0,2.82,2.82,2.82,2.82,2.82,2.82,2.82,2.82,2.82,2.82,2.82,0.0,0.0,0.0,0.0,0.0,0.0,0.0,0.0,0.0,0.0,0.0,0.0,0.0,0.0,0.0,0.0,0.0,0.0,0.0,0.0,0.0,0.0,0.0,0.0,0.0,0.0,2.8034,2.9517,3.084,3.1601,3.1762,3.0288,2.935,0.0,0.0,0.0,0.0,0.0,0.0,0.0,0.0,0.0,0.0,0.0,0.0,0.0,0.0,0.0,0.0,0.0,0.0,0.0,0.0,0.0,0.0,0.0,2.0386,2.0617,2.075,2.0615,2.0466,2.0657,2.0401,2.0279,2.0951,2.1055,2.1637,2.3895,2.3119,2.2697,0.0,2.4448,0.0,2.53,0.0,0.0,0.0,0.0,0.0,0.0,0.0,0.0,0.0,0.0,0.0,0.0,0.0,0.0,0.0,0.0,0.0,0.0,0.0,0.0,0.0,2.9633,2.9508,2.9508,2.9361,2.9045,2.8604,2.8537,2.8385,2.82,2.82,2.82,2.82,2.82,2.82,2.82,2.82,2.82,2.82,2.82,2.82,2.82,0.0,0.0,0.0,0.0,0.0,0.0,0.0,0.0,0.0,0.0,0.0,0.0,0.0,0.0,0.0,0.0,0.0,0.0,0.0,0.0,0.0,0.0,0.0,0.0,0.0,2.7754,2.9238,3.1313,3.2602,3.3031,3.2656,3.0561,2.935,2.8879,0.0,0.0,0.0,0.0,0.0,0.0,0.0,0.0,0.0,0.0,0.0,0.0,0.0,0.0,0.0,0.0,0.0,0.0,0.0,0.0,0.0,0.0,2.0224,2.0357,2.092,2.104,2.0989,2.075,2.0269,2.0267,2.1894,2.3498,2.4986,2.6301,2.625,0.0,0.0,2.8357,2.769,0.0,0.0,0.0,0.0,0.0,0.0,0.0,0.0,0.0,0.0,0.0,0.0,0.0,0.0,0.0,0.0,0.0,0.0,0.0,0.0,0.0,0.0,0.0,2.9508,2.9495,2.8938,2.8644,2.8591,2.8353,2.8226,2.82,2.82,2.82,2.82,2.82,2.82,2.82,2.82,2.82,2.82,2.82,2.82,2.82,0.0,0.0,0.0,0.0,0.0,0.0,0.0,0.0,0.0,0.0,0.0,0.0,0.0,0.0,0.0,0.0,0.0,0.0,0.0,0.0,0.0,0.0,0.0,2.6094,2.7415,2.9316,3.1333,3.3496,3.4261,3.4414,3.3926,3.1216,0.0,0.0,0.0,0.0,0.0,0.0,0.0,0.0,0.0,0.0,0.0,0.0,0.0,0.0,0.0,0.0,0.0,0.0,0.0,0.0,0.0,0.0,0.0,2.0117,2.0346,2.0561,2.0791,2.0975,2.1042,2.0764,2.0641,2.092,2.2121,2.3819,2.5801,2.8122,2.7767,0.0,0.0,0.0,2.9026,0.0,0.0,0.0,0.0,0.0,0.0,0.0,0.0,0.0,0.0,0.0,0.0,0.0,0.0,0.0,0.0,0.0,0.0,0.0,0.0,0.0,0.0,0.0,2.8938,2.8938,2.8711,2.8511,2.8353,2.8253,2.82,2.82,2.82,2.82,2.82,2.82,2.82,2.82,2.82,2.82,2.82,2.82,2.82,2.82,0.0,0.0,0.0,0.0,0.0,0.0,0.0,0.0,0.0,0.0,0.0,0.0,0.0,0.0,0.0,0.0,0.0,0.0,0.0,0.0,0.0,0.0,0.0,2.6007,2.8027,3.0469,3.2695,3.4707,3.5176,3.4941,3.4043,0.0,0.0,0.0,0.0,0.0,0.0,0.0,0.0,0.0,0.0,0.0,0.0,0.0,0.0,0.0,0.0,0.0,0.0,0.0,0.0,0.0,0.0,0.0,0.0,0.0,2.0681,2.1133,2.0781,2.1076,2.1348,2.0819,2.1029,2.1681,2.2842,2.4601,2.6796,2.9602,3.0087,2.939,2.7387,0.0,0.0,0.0,0.0,0.0,0.0,0.0,0.0,0.0,0.0,0.0,0.0,0.0,0.0,0.0,0.0,0.0,0.0,0.0,0.0,0.0,0.0,0.0,0.0,0.0,2.8604,2.8604,2.8604,2.8465,2.82,2.82,2.82,2.82,2.82,2.82,2.82,2.82,2.82,2.82,2.82,2.82,2.82,2.82,2.82,2.82,0.0,0.0,0.0,0.0,0.0,0.0,0.0,0.0,0.0,0.0,0.0,0.0,0.0,0.0,0.0,0.0,0.0,0.0,0.0,0.0,0.0,0.0,0.0,2.5314,2.8779,3.105,3.3019,3.4707,3.5156,3.4492,3.2769,3.0996,0.0,0.0,0.0,0.0,0.0,0.0,0.0,0.0,0.0,0.0,0.0,0.0,0.0,0.0,0.0,0.0,0.0,0.0,0.0,0.0,0.0,0.0,0.0,2.021,2.1181,2.2064,2.0989,2.148,2.2048,2.0971,2.1365,2.2458,2.4212,2.6243,2.842,3.0787,3.3595,3.455,3.0984,0.0,0.0,0.0,0.0,0.0,0.0,0.0,0.0,0.0,0.0,0.0,0.0,0.0,0.0,0.0,0.0,0.0,0.0,0.0,0.0,0.0,0.0,0.0,0.0,0.0,2.8604,2.8604,2.8604,2.8465,2.82,2.8213,2.8213,2.82,2.82,2.82,2.82,2.82,2.82,2.82,2.82,2.82,2.82,2.82,2.82,2.82,0.0,0.0,0.0,0.0,0.0,0.0,0.0,0.0,0.0,0.0,0.0,0.0,0.0,0.0,0.0,0.0,0.0,0.0,0.0,0.0,0.0,0.0,0.0,0.0,0.0,0.0,3.2574,3.5176,3.4394,3.3437,0.0,0.0,0.0,2.9741,0.0,0.0,0.0,0.0,0.0,0.0,0.0,0.0,0.0,0.0,0.0,0.0,0.0,0.0,0.0,0.0,0.0,0.0,0.0,0.0,2.0548,2.0548,2.0991,2.1401,2.1059,2.1222,2.1536,2.1821,2.2275,2.3197,2.5371,2.8375,3.1892,3.5973,3.7368,3.659,3.2397,0.0,0.0,0.0,0.0,0.0,0.0,0.0,0.0,0.0,0.0,0.0,0.0,0.0,0.0,0.0,0.0,0.0,0.0,0.0,0.0,0.0,0.0,0.0,0.0,0.0,0.0,2.8326,2.8326,2.8272,2.8213,2.8385,2.8371,2.82,2.82,2.82,2.82,2.82,2.82,2.82,2.82,2.82,2.82,2.82,2.82,2.82,0.0,0.0,0.0,0.0,0.0,0.0,0.0,0.0,0.0,0.0,1.6232,0.0,0.0,0.0,0.0,0.0,0.0,0.0,0.0,0.0,0.0,0.0,0.0,0.0,0.0,2.9063,3.1265,0.0,0.0,0.0,0.0,0.0,3.0366,3.0346,0.0,2.9113,0.0,0.0,0.0,0.0,0.0,0.0,0.0,0.0,0.0,0.0,0.0,0.0,0.0,0.0,0.0,0.0,1.9933,2.0294,2.067,2.0535,2.092,2.1296,2.0861,2.1152,2.1709,2.227,2.2913,2.4556,2.8871,0.0,0.0,0.0,3.9023,3.8296,3.4923,0.0,0.0,0.0,0.0,0.0,0.0,0.0,0.0,0.0,0.0,0.0,0.0,0.0,0.0,0.0,0.0,0.0,0.0,0.0,0.0,0.0,0.0,0.0,0.0,0.0,0.0,0.0,2.8312,2.8312,2.8213,2.8379,2.8345,2.82,2.82,2.82,2.82,2.82,2.82,2.82,2.82,2.82,2.82,2.82,2.82,2.82,0.0,0.0,0.0,0.0,0.0,0.0,0.0,0.0,0.0,0.0,1.681,1.7091,0.0,0.0,0.0,0.0,0.0,0.0,0.0,0.0,0.0,0.0,0.0,0.0,0.0,2.9232,0.0,0.0,0.0,0.0,0.0,0.0,3.1528,3.145,0.0,3.1016,0.0,0.0,0.0,0.0,0.0,0.0,0.0,0.0,0.0,0.0,0.0,0.0,0.0,0.0,0.0,0.0,2.0172,2.0481,2.0684,2.0372,2.0951,2.1494,2.0599,2.129,2.23,2.2575,2.3793,0.0,3.3367,3.4758,3.5358,3.8014,0.0,3.9777,0.0,0.0,0.0,0.0,0.0,0.0,0.0,0.0,0.0,0.0,0.0,0.0,0.0,0.0,0.0,0.0,0.0,0.0,0.0,0.0,0.0,0.0,0.0,0.0,0.0,0.0,0.0,0.0,0.0,2.8438,2.82,2.824,2.8219,2.82,2.82,2.82,2.82,2.82,2.82,2.82,2.82,2.82,2.82,2.82,2.82,2.82,0.0,0.0,0.0,0.0,0.0,0.0,0.0,0.0,0.0,0.0,0.0,0.0,0.0,0.0,0.0,0.0,0.0,0.0,0.0,0.0,0.0,1.9472,2.2668,0.0,0.0,0.0,0.0,0.0,0.0,0.0,0.0,0.0,3.1695,3.1035,0.0,3.084,0.0,0.0,0.0,0.0,0.0,2.3692,2.3223,0.0,0.0,0.0,0.0,0.0,0.0,0.0,0.0,0.0,2.0577,2.0791,2.1002,2.092,2.0925,2.1043,2.1483,2.167,2.2201,2.4058,2.7438,3.0851,3.2904,3.651,4.0188,4.2921,4.2724,0.0,0.0,0.0,0.0,0.0,0.0,0.0,0.0,0.0,0.0,0.0,0.0,0.0,0.0,0.0,0.0,0.0,0.0,0.0,0.0,0.0,0.0,0.0,0.0,0.0,0.0,0.0,0.0,0.0,2.8259,2.8245,2.8213,2.8412,2.8398,2.82,2.82,2.82,2.82,2.82,2.82,2.82,2.82,2.82,2.82,2.82,2.82,2.82,0.0,0.0,0.0,0.0,0.0,0.0,0.0,0.0,0.0,0.0,0.0,0.0,0.0,0.0,0.0,0.0,0.0,0.0,0.0,0.0,0.0,0.0,2.3366,2.5737,2.7298,0.0,0.0,0.0,0.0,2.9813,2.9618,3.0967,3.1441,3.1191,3.1411,3.0898,0.0,0.0,0.0,0.0,2.6189,2.5698,2.4837,2.4258,0.0,0.0,0.0,0.0,0.0,0.0,0.0,0.0,0.0,0.0,2.1066,2.0949,2.0817,2.0817,2.1403,2.1887,2.2813,2.531,2.8254,3.0988,3.2631,3.6243,4.0037,4.2814,0.0,0.0,0.0,0.0,0.0,0.0,0.0,0.0,0.0,0.0,0.0,0.0,0.0,0.0,0.0,0.0,0.0,0.0,0.0,0.0,0.0,0.0,0.0,0.0,0.0,0.0,2.82,2.82,2.82,2.82,2.82,2.82,2.8192,2.8331,2.8339,2.82,2.82,2.82,2.82,2.82,2.82,2.82,2.82,2.82,2.82,2.82,2.82,2.82,0.0,0.0,0.0,0.0,0.0,0.0,0.0,0.0,0.0,0.0,0.0,0.0,0.0,0.0,0.0,0.0,0.0,0.0,0.0,0.0,0.0,0.0,2.422,2.6045,2.7539,0.0,0.0,0.0,2.9096,2.952,2.9618,3.0718,3.1328,3.1508,3.1587,3.1094,3.0137,0.0,0.0,0.0,2.8254,2.7965,2.6605,2.6744,2.5979,2.46,0.0,0.0,0.0,0.0,0.0,0.0,0.0,0.0,2.1434,2.0909,2.0753,2.0777,2.1149,2.2558,2.4468,2.6795,2.9015,3.116,3.311,3.6113,3.9007,4.0984,0.0,0.0,0.0,0.0,0.0,0.0,0.0,0.0,0.0,0.0,0.0,0.0,0.0,0.0,0.0,0.0,0.0,0.0,0.0,0.0,0.0,0.0,0.0,0.0,0.0,0.0,2.82,2.82,2.82,2.82,2.82,2.82,2.82,2.82,2.82,2.82,2.82,2.82,2.82,2.82,2.82,2.82,2.82,2.82,2.82,2.82,2.82,2.82,0.0,0.0,0.0,0.0,0.0,0.0,0.0,0.0,0.0,0.0,0.0,0.0,0.0,0.0,0.0,0.0,0.0,0.0,0.0,0.0,0.0,0.0,2.4968,2.6852,2.7097,0.0,0.0,0.0,2.8769,2.9199,2.9637,3.1616,3.2168,3.1528,3.1929,3.1401,3.0137,0.0,0.0,0.0,2.8668,2.8764,2.843,2.7542,2.7897,2.845,0.0,0.0,0.0,0.0,2.3901,0.0,0.0,0.0,0.0,2.1481,2.0869,2.0871,2.1673,2.4882,2.8294,2.9374,3.3475,3.6905,0.0,0.0,4.2004,0.0,0.0,0.0,0.0,0.0,0.0,0.0,0.0,0.0,0.0,0.0,0.0,0.0,0.0,0.0,0.0,0.0,0.0,0.0,0.0,0.0,0.0,0.0,2.8492,2.8213,2.82,0.0,2.82,2.82,2.82,2.82,2.82,2.82,2.82,2.82,2.82,2.82,2.82,2.82,2.82,2.82,2.82,2.82,2.82,2.82,2.82,2.82,2.82,2.82,0.0,0.0,0.0,0.0,0.0,0.0,0.0,0.0,0.0,0.0,0.0,0.0,0.0,0.0,0.0,0.0,0.0,0.0,0.0,0.0,0.0,0.0,0.0,0.0,0.0,0.0,0.0,2.8314,2.8697,2.9394,3.0346,3.1523,3.1758,3.1172,3.1094,3.0757,3.0156,0.0,0.0,0.0,2.9232,2.9141,2.8883,2.8664,2.8328,2.7856,0.0,0.0,0.0,0.0,0.0,0.0,0.0,0.0,0.0,0.0,2.1015,2.1256,2.2806,2.4703,2.6626,2.8337,3.1548,3.4164,3.3636,3.7463,4.0897,0.0,0.0,0.0,0.0,0.0,0.0,0.0,0.0,0.0,0.0,0.0,0.0,0.0,0.0,0.0,0.0,0.0,0.0,0.0,0.0,0.0,0.0,2.8465,2.8326,2.8213,2.82,0.0,2.82,2.82,2.82,2.82,2.82,2.82,2.82,2.82,2.82,2.82,2.82,2.82,2.82,2.82,2.82,2.82,2.82,2.82,2.82,2.82,2.82,2.82,0.0,0.0,0.0,0.0,0.0,0.0,0.0,0.0,0.0,0.0,0.0,0.0,0.0,0.0,0.0,0.0,0.0,0.0,0.0,0.0,0.0,0.0,0.0,0.0,0.0,0.0,2.8314,2.8314,2.8828,2.9766,3.1055,3.1601,3.184,3.1816,3.1055,3.0522,0.0,0.0,0.0,0.0,2.9467,2.9277,2.9088,2.933,0.0,2.7516,2.8173,0.0,0.0,0.0,0.0,0.0,0.0,0.0,0.0,0.0,0.0,2.1467,2.318,2.4222,2.5308,2.7345,2.9733,3.175,0.0,0.0,0.0,0.0,0.0,0.0,0.0,0.0,0.0,0.0,0.0,0.0,0.0,0.0,0.0,0.0,0.0,0.0,0.0,0.0,0.0,0.0,0.0,0.0,2.8484,2.8312,2.82,2.82,2.82,2.82,2.82,2.82,2.82,2.82,2.82,2.82,2.82,2.82,2.82,2.82,2.82,2.82,2.82,2.82,2.82,2.82,2.82,2.82,2.82,2.82,2.82,2.82,0.0,0.0,0.0,0.0,0.0,0.0,0.0,0.0,0.0,0.0,0.0,0.0,0.0,0.0,1.6284,1.6297,0.0,0.0,0.0,0.0,0.0,0.0,0.0,0.0,0.0,2.808,2.8314,2.8314,2.9149,3.0229,3.1489,3.2344,3.3375,3.4434,3.2824,3.1382,3.0195,0.0,0.0,0.0,0.0,0.0,2.952,0.0,0.0,0.0,0.0,0.0,0.0,0.0,0.0,0.0,0.0,0.0,0.0,0.0,0.0,0.0,2.194,2.4244,2.6766,2.7957,3.0738,3.3422,0.0,0.0,0.0,0.0,0.0,0.0,0.0,0.0,0.0,0.0,0.0,0.0,0.0,0.0,0.0,0.0,0.0,0.0,0.0,0.0,0.0,0.0,0.0,0.0,2.8205,2.8213,2.82,2.82,2.82,2.82,2.82,2.82,2.82,2.82,2.82,2.82,2.82,2.82,2.82,2.82,2.82,2.82,2.82,2.82,2.82,2.82,2.82,2.82,2.82,2.82,2.82,2.82,0.0,0.0,0.0,0.0,0.0,0.0,0.0,0.0,0.0,0.0,0.0,0.0,0.0,1.623,1.647,1.6845,1.722,0.0,0.0,0.0,0.0,0.0,0.0,0.0,0.0,2.8236,2.8314,2.8314,2.8607,2.9584,3.1133,3.1699,3.2641,3.3832,3.2969,3.232,3.1816,3.1011,0.0,0.0,0.0,0.0,0.0,0.0,0.0,0.0,0.0,0.0,0.0,0.0,0.0,0.0,0.0,0.0,0.0,0.0,2.1093,2.1283,2.2058,2.294,2.4015,2.5534,2.803,3.0332,3.1211,3.5086,0.0,0.0,0.0,0.0,0.0,0.0,0.0,0.0,0.0,0.0,0.0,0.0,0.0,0.0,0.0,0.0,0.0,0.0,0.0,0.0,0.0,0.0,2.82,2.82,2.82,2.82,2.82,2.82,2.82,2.82,2.82,2.82,2.82,2.82,2.82,2.82,2.82,2.82,2.7957,2.8005,2.82,2.82,2.82,2.82,2.82,2.82,2.82,2.82,2.82,2.82,0.0,0.0,0.0,0.0,0.0,0.0,0.0,0.0,0.0,1.6027,0.0,0.0,0.0,0.0,1.6805,1.7287,1.7906,1.8851,2.0218,0.0,0.0,0.0,0.0,0.0,0.0,2.8314,2.8314,2.8314,2.8588,2.9545,3.1113,3.1665,3.2621,3.3812,3.3105,3.273,0.0,0.0,0.0,3.082,0.0,0.0,2.976,0.0,0.0,0.0,0.0,0.0,0.0,0.0,0.0,0.0,0.0,0.0,0.0,0.0,0.0,2.1243,2.1801,2.1911,2.2235,2.3777,2.5405,2.7119,2.9042,0.0,0.0,0.0,0.0,0.0,0.0,0.0,0.0,0.0,0.0,0.0,0.0,0.0,0.0,0.0,0.0,0.0,0.0,0.0,0.0,0.0,0.0,0.0,2.82,2.82,2.82,2.82,2.82,2.82,2.82,2.82,2.82,2.82,2.82,2.82,2.82,2.82,2.8146,2.8031,2.7917,2.7984,2.82,2.8072,2.8098,2.82,2.82,2.82,2.82,2.82,2.82,2.82,0.0,0.0,0.0,0.0,0.0,0.0,0.0,0.0,0.0,1.6528,0.0,0.0,0.0,0.0,0.0,1.7661,1.888,2.0223,2.1638,2.3365,0.0,0.0,0.0,0.0,0.0,0.0,0.0,2.8334,2.9154,3.0229,3.1469,3.2344,3.3418,3.457,3.334,3.2574,3.2198,0.0,3.1675,3.0801,0.0,2.9459,3.0131,0.0,0.0,0.0,3.0073,3.0215,0.0,0.0,0.0,0.0,0.0,0.0,0.0,0.0,0.0,2.1188,0.0,0.0,0.0,0.0,0.0,0.0,2.8136,0.0,0.0,0.0,0.0,0.0,0.0,0.0,0.0,0.0,0.0,0.0,0.0,0.0,0.0,0.0,0.0,0.0,0.0,0.0,0.0,0.0,0.0,2.8263,2.82,2.82,2.82,2.82,2.82,2.82,2.82,2.82,2.82,2.82,2.82,2.82,2.82,2.82,2.8031,2.7722,2.8045,2.82,2.8165,2.785,2.7903,2.82,2.82,2.82,2.82,2.82,2.82,2.82,0.0,0.0,0.0,0.0,0.0,0.0,0.0,0.0,1.846,0.0,0.0,0.0,1.8906,1.8408,1.8591,1.974,2.0169,2.0971,2.2317,2.3908,2.5624,2.7422,2.7904,0.0,0.0,0.0,0.0,0.0,0.0,0.0,0.0,0.0,0.0,0.0,3.2828,3.2574,3.2159,3.1534,0.0,3.125,3.0254,3.0176,0.0,0.0,0.0,0.0,0.0,3.0605,3.104,0.0,3.0625,3.0721,0.0,0.0,0.0,0.0,0.0,0.0,2.4332,0.0,0.0,0.0,0.0,0.0,0.0,0.0,0.0,0.0,0.0,0.0,0.0,0.0,0.0,0.0,0.0,0.0,0.0,0.0,0.0,0.0,0.0,0.0,0.0,0.0,0.0,0.0,0.0,2.9836,2.8284,2.82,2.82,2.82,2.82,2.82,2.82,2.82,2.82,2.82,2.82,2.82,2.82,2.82,2.8138,2.8058,2.7903,2.7991,2.82,2.8098,2.8112,2.82,2.82,2.82,2.82,2.82,2.82,2.82,0.0,0.0,0.0,0.0,0.0,0.0,0.0,0.0,0.0,0.0,0.0,0.0,2.107,2.0591,2.0682,2.1545,2.2146,2.2825,2.361,2.5219,2.6597,2.7656,2.8255,2.8658,2.8879,0.0,0.0,0.0,0.0,0.0,0.0,0.0,0.0,0.0,0.0,0.0,0.0,0.0,0.0,0.0,3.0879,0.0,0.0,3.1245,3.1328,0.0,0.0,0.0,3.2519,3.209,3.1875,0.0,0.0,0.0,0.0,0.0,0.0,2.3946,2.5558,2.359,2.1599,0.0,0.0,0.0,2.2746,2.4257,0.0,0.0,0.0,0.0,0.0,0.0,0.0,0.0,0.0,0.0,0.0,0.0,0.0,0.0,0.0,0.0,0.0,0.0,0.0,0.0,3.1825,2.9523,2.8263,2.82,2.82,2.82,2.82,2.82,2.82,2.82,2.82,2.82,2.82,2.82,2.82,2.82,2.8112,2.7991,2.793,2.793,2.8005,2.8138,2.82,2.82,2.82,2.82,2.82,2.82,2.82,2.82,0.0,0.0,0.0,0.0,0.0,0.0,0.0,0.0,0.0,0.0,2.3552,2.4241,2.3576,2.3245,2.3128,2.3238,2.4443,2.519,2.519,2.6853,2.7858,2.7911,2.8607,2.899,2.9049,0.0,0.0,0.0,0.0,0.0,0.0,0.0,0.0,0.0,0.0,0.0,0.0,0.0,0.0,3.0952,3.1391,3.1855,0.0,0.0,3.3461,0.0,3.402,3.4231,3.4235,3.3672,3.293,0.0,0.0,0.0,0.0,0.0,2.6309,2.4255,2.5849,2.3775,2.1715,0.0,0.0,0.0,2.272,2.2981,2.4249,0.0,0.0,0.0,0.0,0.0,0.0,0.0,0.0,0.0,0.0,0.0,0.0,0.0,0.0,0.0,0.0,0.0,0.0,3.4347,3.0501,2.8138,2.8138,2.8119,2.8106,2.8106,2.8146,2.8146,2.8106,2.8173,2.8186,2.8138,2.8186,2.8186,2.816,2.8186,2.8018,2.7709,2.8058,2.8031,2.7783,2.8072,2.82,2.82,2.82,2.82,2.82,2.82,2.82,2.82,0.0,0.0,0.0,0.0,0.0,0.0,0.0,0.0,2.469,2.4432,2.5177,2.612,2.7143,2.5427,2.4538,2.5403,2.6026,2.6371,2.6371,2.7807,2.8828,2.9207,2.9383,2.9604,2.9941,0.0,0.0,0.0,0.0,0.0,0.0,0.0,0.0,0.0,0.0,0.0,0.0,0.0,0.0,3.0972,3.1753,0.0,3.275,3.3207,3.3832,3.4453,3.4551,3.5039,3.5469,0.0,3.3395,3.2362,0.0,0.0,0.0,0.0,0.0,0.0,0.0,0.0,0.0,0.0,0.0,0.0,2.3414,2.3457,2.4114,0.0,0.0,0.0,0.0,0.0,0.0,0.0,0.0,0.0,0.0,0.0,0.0,0.0,0.0,0.0,0.0,0.0,3.3961,3.2176,2.9423,2.781,2.781,2.7583,2.7483,2.7483,2.769,2.769,2.7483,2.7972,2.8058,2.781,2.8072,2.8058,2.781,2.8072,2.8018,2.7709,2.8058,2.8152,2.8098,2.8165,2.82,2.82,2.82,2.82,2.82,2.82,2.82,2.82,0.0,0.0,0.0,0.0,0.0,0.0,0.0,0.0,2.649,2.6886,2.7265,2.7883,2.8838,2.7804,2.7269,2.7793,2.8037,2.815,2.815,2.8851,2.935,2.9579,2.978,2.9995,3.021,0.0,0.0,0.0,0.0,0.0,0.0,0.0,0.0,0.0,0.0,0.0,0.0,0.0,3.0913,3.1011,3.23,0.0,3.357,3.4629,3.543,3.6016,3.6213,3.6584,3.6682,3.498,3.4274,0.0,0.0,3.1351,3.1724,0.0,2.9562,2.8309,0.0,0.0,0.0,2.6794,0.0,0.0,0.0,2.4935,2.5324,0.0,0.0,0.0,0.0,0.0,0.0,0.0,0.0,0.0,0.0,0.0,0.0,0.0,0.0,0.0,0.0,0.0,3.169,2.9512,2.8208,2.7461,2.7365,2.7314,2.7255,2.7153,2.7381,2.7477,2.7445,2.7741,2.7909,2.7951,2.7909,2.7833,2.7709,2.7877,2.7863,2.7709,2.8058,2.82,2.82,2.82,2.82,2.82,2.82,2.82,2.82,2.82,2.82,2.82,0.0,0.0,0.0,0.0,0.0,0.0,0.0,0.0,2.8327,2.9049,2.9146,2.9283,2.9662,2.9657,2.9676,2.9833,2.9604,2.9618,2.9936,2.9735,0.0,2.9715,3.0034,3.0195,3.0195,0.0,0.0,0.0,0.0,0.0,0.0,0.0,0.0,0.0,0.0,0.0,0.0,0.0,0.0,3.1284,0.0,3.3652,3.4055,3.5876,3.6834,3.7246,3.7814,3.8029,3.7716,3.5742,0.0,3.5075,3.3176,3.2672,0.0,0.0,0.0,0.0,0.0,0.0,0.0,0.0,0.0,2.5676,0.0,0.0,0.0,0.0,0.0,0.0,0.0,0.0,0.0,0.0,0.0,0.0,0.0,0.0,0.0,0.0,0.0,0.0,0.0,0.0,2.9005,2.7337,2.7122,2.7007,2.6885,2.704,2.7054,2.6885,2.7087,2.7263,2.7365,2.7486,2.7675,2.7926,2.7675,2.7539,2.7535,2.7642,2.7669,2.7629,2.8031,2.82,2.82,2.82,2.82,2.82,2.82,2.82,2.82,2.82,2.82,2.82,2.5378,2.5775,0.0,0.0,0.0,0.0,0.0,0.0,2.9526,2.998,3.0059,3.0078,3.0131,2.9799,2.9911,3.0678,0.0,0.0,3.1177,0.0,2.9755,3.0131,3.0176,3.0195,3.0195,0.0,0.0,0.0,0.0,0.0,0.0,0.0,0.0,0.0,3.043,0.0,0.0,0.0,3.0972,0.0,3.3489,3.359,0.0,3.5276,3.6367,3.6912,3.8104,3.8514,3.8299,0.0,3.5993,3.5215,0.0,3.3395,3.2793,0.0,0.0,0.0,0.0,0.0,0.0,0.0,2.9926,0.0,0.0,0.0,0.0,0.0,0.0,0.0,0.0,0.0,0.0,0.0,0.0,0.0,0.0,0.0,0.0,0.0,0.0,0.0,0.0,0.0,0.0,2.6854,2.6419,2.6232,2.6447,2.6493,2.6493,2.646,2.6714,2.6747,2.6533,2.7075,2.7222,2.6954,2.7222,2.7188,2.6914,2.7455,2.7583,2.7389,2.7938,2.82,2.82,2.82,2.82,2.82,2.82,2.82,2.82,2.82,2.82,2.82,2.5745,2.6081,0.0,0.0,0.0,0.0,0.0,0.0,3.0327,3.0215,3.043,3.0796,3.1304,0.0,0.0,0.0,0.0,3.063,0.0,0.0,3.0424,3.06,0.0,0.0,0.0,0.0,0.0,0.0,3.0913,0.0,0.0,0.0,0.0,0.0,3.0566,0.0,3.0508,0.0,3.1289,0.0,0.0,0.0,0.0,3.6211,3.7402,3.7869,3.8397,3.8592,3.8415,0.0,3.6619,0.0,0.0,0.0,0.0,0.0,0.0,0.0,0.0,0.0,0.0,0.0,0.0,0.0,3.1465,0.0,3.0701,0.0,0.0,0.0,0.0,0.0,0.0,0.0,0.0,0.0,0.0,0.0,0.0,0.0,0.0,0.0,0.0,0.0,0.0,0.0,0.0,2.5543,2.5644,2.5978,2.6232,2.6406,2.6507,2.6507,2.6406,2.666,2.6827,2.6921,2.6827,2.6787,2.682,2.7255,2.7395,2.7336,2.7945,2.82,2.82,2.82,2.82,2.82,2.82,2.82,2.82,2.82,2.82,2.82,2.6316,2.6621,0.0,0.0,0.0,0.0,0.0,0.0,0.0,3.043,0.0,0.0,3.2257,3.2051,0.0,0.0,3.25,3.1899,0.0,0.0,3.084,3.0371,3.0703,0.0,0.0,0.0,0.0,0.0,0.0,0.0,0.0,0.0,0.0,0.0,0.0,3.0952,3.0815,0.0,3.2309,3.2855,3.4254,3.5092,3.5661,3.715,3.8164,3.8749,3.8631,3.8689,3.8667,3.7583,3.7418,0.0,3.6008,0.0,0.0,0.0,0.0,0.0,3.3617,0.0,0.0,0.0,0.0,0.0,0.0,0.0,0.0,0.0,0.0,0.0,0.0,0.0,0.0,0.0,0.0,0.0,0.0,0.0,0.0,0.0,0.0,0.0,0.0,0.0,0.0,0.0,2.4387,0.0,2.4842,2.5436,2.5931,2.6286,2.6366,2.6406,2.6406,2.6406,2.6566,2.684,2.6533,2.6507,2.6687,2.7034,2.7208,2.7336,2.7844,2.8112,2.82,2.82,2.82,2.82,2.82,2.82,2.82,2.82,2.82,2.82,2.7643,2.7962,0.0,0.0,0.0,0.0,0.0,0.0,0.0,0.0,0.0,0.0,0.0,0.0,0.0,0.0,0.0,3.3344,3.3324,0.0,3.0728,2.9049,3.0215,3.0503,0.0,0.0,0.0,0.0,0.0,0.0,0.0,0.0,0.0,0.0,0.0,3.1719,3.2198,3.3008,3.432,3.5901,3.6404,3.7596,3.8906,0.0,3.8086,3.9121,3.8749,0.0,0.0,3.8736,3.8547,0.0,0.0,0.0,0.0,0.0,0.0,0.0,0.0,0.0,0.0,3.3816,0.0,0.0,0.0,0.0,3.3785,0.0,0.0,0.0,0.0,0.0,2.4988,2.391,0.0,0.0,0.0,0.0,0.0,0.0,0.0,0.0,0.0,0.0,0.0,0.0,2.3438,0.0,2.4182,2.4802,2.539,2.5998,2.6259,2.6406,2.6406,2.6406,2.6419,2.6419,2.6419,2.6386,2.6413,2.6687,2.6987,2.7322,2.7589,2.7903,2.82,2.82,2.82,2.82,2.82,2.82,2.82,2.82,2.82,2.82,0.0,2.89,0.0,0.0,0.0,0.0,0.0,3.0913,0.0,0.0,0.0,0.0,0.0,3.5544,3.5779,0.0,0.0,3.5349,3.4766,3.3785,0.0,0.0,0.0,3.1172,0.0,0.0,0.0,0.0,0.0,0.0,0.0,0.0,0.0,0.0,0.0,3.1914,0.0,0.0,0.0,0.0,0.0,3.8651,3.9609,0.0,0.0,3.9628,3.9254,3.925,0.0,3.8776,3.8599,3.8495,3.7926,3.6808,3.5675,3.5438,3.5667,0.0,0.0,0.0,3.7305,3.555,0.0,0.0,0.0,0.0,0.0,0.0,0.0,0.0,0.0,0.0,2.7657,2.5936,2.5298,2.4511,0.0,0.0,0.0,0.0,0.0,0.0,0.0,0.0,0.0,2.2519,2.2542,0.0,0.0,2.3955,2.4788,2.5396,2.5891,2.6219,2.6406,2.6406,2.6406,2.6406,2.6406,2.6406,2.6419,2.6694,2.6987,2.7302,2.7575,2.789,2.82,2.82,2.82,2.82,2.82,2.82,2.82,2.82,2.82,2.82,2.9074,0.0,0.0,0.0,0.0,0.0,0.0,0.0,0.0,0.0,3.4199,0.0,3.7537,0.0,3.8006,0.0,3.8203,3.7344,3.5723,3.5388,0.0,3.2291,3.2405,0.0,0.0,0.0,0.0,0.0,0.0,3.0893,0.0,0.0,0.0,0.0,0.0,3.2348,3.3125,0.0,3.6133,0.0,0.0,3.9765,0.0,0.0,4.0254,0.0,0.0,3.9585,3.9488,3.8814,3.8608,3.8585,3.8592,3.7834,3.6838,3.6436,3.6322,3.6264,3.6064,3.7051,0.0,0.0,3.6482,0.0,3.5075,0.0,0.0,0.0,0.0,0.0,0.0,0.0,2.9835,2.8408,2.6762,2.4984,0.0,0.0,0.0,0.0,0.0,0.0,0.0,0.0,2.2345,2.1783,2.1857,2.2028,0.0,0.0,2.4155,2.4756,2.5583,2.6091,2.6259,2.6353,2.6406,2.6406,2.6406,2.6406,2.6419,2.6694,2.6987,2.7302,2.7575,2.789,2.82,2.82,2.82,2.82,2.82,2.82,2.82,2.82,2.82,2.82,0.0,0.0,0.0,0.0,3.0586,0.0,0.0,0.0,3.3652,0.0,3.5795,3.7398,3.8651,3.9569,4.0234,4.0567,4.0625,0.0,3.6487,3.7012,0.0,0.0,3.2941,3.3024,3.0223,0.0,0.0,0.0,0.0,0.0,0.0,0.0,0.0,0.0,3.2226,0.0,3.3597,3.6211,3.785,3.8827,4.0507,4.0918,4.0586,4.1035,0.0,4.045,4.0058,3.992,3.9785,3.8903,3.8608,3.8588,3.8601,3.859,3.8394,3.7295,3.6961,3.6822,3.6232,3.6721,3.7285,3.6892,0.0,0.0,0.0,0.0,3.6502,0.0,0.0,0.0,0.0,0.0,0.0,3.1081,2.7126,2.3427,0.0,0.0,0.0,0.0,0.0,0.0,0.0,2.2301,2.1967,2.1954,2.1416,2.1349,0.0,0.0,0.0,2.4168,2.5355,2.5984,2.6011,2.6272,2.6406,2.6406,2.6406,2.6406,2.6419,2.6694,2.6987,2.7302,2.7575,2.789,2.82,2.82,2.82,2.82,2.82,2.82,2.82,2.82,2.82,2.82,3.0267,3.0566,3.0874,0.0,3.0835,3.0913,0.0,0.0,0.0,0.0,3.8358,4.039,4.1309,4.2207,4.2519,4.1972,4.2226,0.0,0.0,0.0,0.0,3.6475,3.548,3.4212,3.2559,3.1452,0.0,3.0909,0.0,0.0,3.091,0.0,0.0,0.0,0.0,0.0,3.4079,3.6328,3.8359,4.0098,4.0879,4.1133,0.0,0.0,4.0898,4.0469,4.0268,4.0199,4.0032,3.8961,3.8616,3.8591,3.8604,3.8588,3.8531,3.824,3.7845,3.745,3.7321,3.7975,3.8613,3.8202,3.8104,3.7987,0.0,0.0,0.0,0.0,0.0,0.0,0.0,0.0,0.0,3.1543,2.8051,2.4888,0.0,0.0,0.0,0.0,0.0,0.0,2.155,2.1649,2.1609,2.1349,2.1189,0.0,0.0,0.0,0.0,0.0,2.5042,2.5838,2.6299,2.6379,2.6406,2.6406,2.6406,2.6406,2.6419,2.6694,2.6987,2.7302,2.7575,2.789,2.82,2.82,2.82,2.82,2.82,2.82,2.82,2.82,2.82,2.82,3.0761,0.0,0.0,3.0918,0.0,0.0,3.23,0.0,0.0,3.6716,3.91,0.0,4.1504,4.3047,4.3808,4.3319,4.332,0.0,4.1621,0.0,0.0,3.8115,3.7895,3.7505,3.6825,3.5128,0.0,3.0904,0.0,0.0,3.0902,3.0903,0.0,0.0,0.0,3.3277,3.4271,3.6795,3.9022,4.082,4.0859,0.0,0.0,4.1191,4.0898,4.0469,4.023,4.0025,3.9761,3.8907,3.86,3.8592,3.8592,3.8602,3.859,3.859,3.835,3.8093,3.8093,3.8635,3.9141,3.8925,3.9141,3.9258,3.8633,3.834,3.8086,0.0,0.0,0.0,0.0,0.0,0.0,2.9561,2.7347,0.0,0.0,0.0,0.0,0.0,0.0,0.0,2.1093,2.1272,2.1312,2.1107,0.0,0.0,0.0,0.0,0.0,0.0,2.477,2.5665,2.5999,2.6386,2.6573,2.6573,2.6453,2.654,2.6794,2.6947,2.7195,2.7489,2.7783,2.8031,2.82,2.82,2.82,2.82,2.82,2.82,2.82,2.82,2.82,2.82,0.0,0.0,0.0,0.0,0.0,0.0,0.0,3.4492,0.0,3.7441,0.0,4.082,4.0996,4.3203,4.459,4.4414,0.0,4.3203,4.1621,4.1817,4.0744,3.8028,4.0024,4.1206,4.119,3.9718,0.0,0.0,0.0,0.0,3.0898,3.0903,3.0913,0.0,0.0,0.0,0.0,3.7225,3.9374,4.0839,4.0605,4.0781,4.1191,4.1191,4.0898,4.045,4.0098,3.9724,3.9293,3.8766,3.8607,3.8592,3.8592,3.8592,3.8592,3.8592,3.8592,3.8592,3.8592,3.8866,3.9141,3.9199,3.9766,4.0157,3.9453,3.8965,3.8671,3.8671,3.7383,0.0,0.0,0.0,0.0,2.6863,0.0,0.0,0.0,0.0,0.0,0.0,0.0,0.0,0.0,0.0,0.0,0.0,0.0,0.0,0.0,0.0,0.0,0.0,2.4529,0.0,2.5625,0.0,2.682,2.686,2.6627,2.6794,2.7309,2.7349,2.7476,2.7709,2.8058,2.82,2.82,2.82,2.82,2.82,2.82,2.82,2.82,2.82,2.82,2.82,0.0,0.0,0.0,0.0,0.0,3.4802,3.6897,3.8711,3.9844,3.9922,4.3008,0.0,4.3828,4.5058,4.5547,4.4492,4.4627,0.0,0.0,0.0,0.0,4.1244,4.119,4.1209,4.1192,4.0886,3.7524,0.0,0.0,0.0,0.0,0.0,0.0,0.0,0.0,0.0,3.4726,3.668,0.0,3.9139,4.0098,4.0781,4.1191,4.1191,4.0898,4.0489,4.041,3.9902,3.9179,3.8752,3.8595,3.8592,3.8592,3.8592,3.8592,3.8592,3.8592,3.8592,3.8592,3.8651,3.8788,3.9121,3.9316,3.9492,3.9726,3.9414,3.9082,3.9082,3.8283,3.717,3.5859,0.0,0.0,0.0,0.0,0.0,0.0,0.0,0.0,0.0,0.0,0.0,0.0,0.0,0.0,0.0,0.0,0.0,0.0,0.0,0.0,0.0,0.0,0.0,0.0,0.0,0.0,2.7208,2.7155,2.7202,2.7309,2.7529,2.7655,2.7709,2.8058,2.82,2.82,2.82,2.82,2.82,2.82,2.82,2.82,2.82,2.82,2.82,0.0,0.0,0.0,0.0,0.0,0.0,0.0,4.2459,0.0,4.1504,4.38,4.5515,4.5108,4.7672,4.8797,4.7224,4.6855,4.5948,4.4185,4.3458,4.2773,4.203,4.1481,0.0,4.1208,4.1201,3.8237,3.2209,0.0,0.0,0.0,0.0,0.0,3.0889,0.0,3.2232,0.0,0.0,0.0,3.9003,3.9844,4.0586,4.1191,4.1191,4.1054,4.084,4.0586,4.0098,3.9492,3.9061,3.8768,3.8592,3.8592,3.8592,3.8592,3.8592,3.8592,3.8592,3.8592,3.8925,3.9258,3.9219,3.9551,3.9883,3.9902,3.9531,3.9199,3.9199,3.834,3.707,3.5351,3.3476,0.0,0.0,0.0,0.0,0.0,0.0,0.0,0.0,0.0,0.0,0.0,0.0,0.0,0.0,0.0,0.0,0.0,0.0,0.0,0.0,0.0,0.0,0.0,0.0,0.0,2.7502,2.7188,2.7302,2.7764,2.773,2.7789,2.7978,2.8125,2.82,2.82,2.82,2.82,2.82,2.82,2.82,2.82,2.82,2.82,2.82,0.0,3.5043,0.0,0.0,3.8841,0.0,0.0,4.591,4.7685,4.3579,4.5219,4.686,4.7078,5.0289,5.1588,4.9512,4.8713,4.7154,4.4424,4.3614,4.2931,4.2268,4.1676,4.1325,4.1211,4.121,3.882,0.0,0.0,0.0,0.0,0.0,0.0,0.0,0.0,0.0,0.0,0.0,3.7615,3.9121,3.9766,4.0507,4.1191,4.1191,4.1191,4.1133,4.0684,4.0235,3.9824,3.9355,3.8926,3.8592,3.8592,3.8592,3.8592,3.8592,3.8592,3.8592,3.8592,3.91,3.9531,3.916,3.959,4.0001,3.9706,3.9336,3.9062,3.9062,3.8047,3.6738,3.5388,3.4,0.0,0.0,0.0,0.0,0.0,0.0,0.0,0.0,0.0,0.0,0.0,0.0,0.0,0.0,0.0,0.0,0.0,0.0,0.0,0.0,0.0,0.0,2.5871,0.0,2.7148,0.0,2.7255,2.7436,2.82,2.7917,2.7944,2.82,2.82,2.82,2.82,2.82,2.82,2.82,2.82,2.82,2.82,2.82,2.82,2.82,0.0,0.0,0.0,0.0,0.0,0.0,0.0,4.9014,5.0783,4.7575,5.0083,5.2049,5.1731,5.2369,5.1655,4.8689,4.8356,4.701,4.3953,4.3691,4.3437,4.3029,4.2318,4.1693,4.1207,4.1183,3.9412,0.0,0.0,0.0,0.0,0.0,0.0,0.0,0.0,0.0,0.0,3.5784,3.7477,3.8768,3.9961,4.0742,4.1191,4.1191,4.1191,4.1133,4.0684,4.0235,3.9824,3.9355,3.8926,3.8592,3.8592,3.8592,3.8592,3.8592,3.8592,3.8592,3.8592,3.8651,3.871,3.8671,3.871,3.8768,3.8729,3.869,3.8651,3.8651,3.7635,3.6714,3.6541,3.5114,3.3283,0.0,0.0,0.0,0.0,0.0,0.0,0.0,0.0,0.0,0.0,0.0,0.0,0.0,0.0,0.0,0.0,0.0,0.0,0.0,0.0,2.4414,0.0,2.638,0.0,2.8138,2.7797,2.7823,2.82,2.8173,2.8186,2.82,2.82,2.82,2.82,2.82,2.82,2.82,2.82,2.82,2.82,2.82,2.82,2.82,0.0,0.0,0.0,0.0,0.0,0.0,0.0,5.1459,5.3641,5.082,5.3034,5.4306,5.2816,5.3995,5.3316,4.9427,4.8608,4.7319,4.5052,4.4141,4.3633,4.3457,4.2873,4.2127,4.1207,4.1192,4.0012,0.0,0.0,0.0,0.0,0.0,0.0,0.0,0.0,0.0,3.5796,3.669,3.7811,3.9043,4.0079,4.0781,4.1191,4.1191,4.1191,4.1172,4.0996,4.0469,3.9863,3.9687,3.9179,3.8592,3.8592,3.8592,3.8592,3.8592,3.8592,3.8592,3.8592,3.8768,3.8945,3.8945,3.8945,3.8945,3.8945,3.8768,3.8592,3.8592,3.7967,3.7344,3.709,3.6287,3.5008,0.0,0.0,0.0,0.0,0.0,0.0,0.0,0.0,0.0,0.0,0.0,0.0,0.0,0.0,0.0,0.0,0.0,0.0,2.1981,0.0,2.4267,2.5237,2.6273,2.7094,2.7657,2.769,2.7762,2.7903,2.8098,2.82,2.82,2.82,2.82,2.82,2.82,2.82,2.82,2.82,2.82,2.82,2.82,2.82,2.82,4.7191,0.0,4.7221,0.0,5.0807,5.0995,4.9844,5.3934,5.6272,5.3773,5.5619,5.6598,5.5026,5.5647,5.463,5.0731,4.9236,4.7608,4.5464,4.4433,4.3848,4.3711,4.3091,0.0,4.1577,4.1322,4.0509,3.9091,3.4086,0.0,0.0,0.0,0.0,0.0,3.3301,3.5568,3.7688,3.7674,3.8387,3.9592,4.0391,4.0898,4.1191,4.1191,4.1191,4.1172,4.1054,4.0508,3.9883,3.9746,3.9218,3.8592,3.8592,3.8592,3.8592,3.8592,3.8592,3.8592,3.8592,3.8887,3.9199,3.9199,3.9297,3.9414,3.9414,3.9062,3.8749,3.8612,3.8223,3.7814,3.7539,3.7049,3.6203,0.0,0.0,0.0,0.0,0.0,0.0,0.0,2.9508,2.9416,2.9161,0.0,0.0,0.0,0.0,0.0,0.0,0.0,0.0,0.0,0.0,0.0,0.0,0.0,2.7014,2.7422,2.7602,2.7749,2.7863,2.8085,2.82,2.82,2.82,2.82,2.82,2.82,2.82,2.82,2.82,2.82,2.82,2.82,2.82,2.82,4.9541,5.002,5.1219,5.4035,5.4972,5.478,5.3099,5.6614,5.8662,5.6435,5.8089,5.9444,5.9425,5.749,5.5135,5.2493,5.0256,4.769,4.4621,4.4394,4.418,0.0,0.0,4.2402,4.2402,4.162,4.0902,4.0284,0.0,0.0,3.3316,0.0,0.0,3.0966,3.2675,3.535,3.8577,3.8577,3.9253,4.0355,4.0957,4.1191,4.1191,4.1191,4.1191,4.1133,4.0664,4.0254,3.9824,3.9355,3.8944,3.8592,3.8592,3.8592,3.8592,3.8592,3.8592,3.8592,3.8592,3.8887,3.9199,3.9199,3.9551,3.9883,3.9883,3.9531,3.9082,3.8671,3.8223,3.7912,3.7874,3.7226,3.6541,3.6043,0.0,0.0,0.0,0.0,0.0,0.0,3.1054,3.1816,3.0962,0.0,0.0,0.0,0.0,0.0,0.0,0.0,0.0,2.1981,2.317,0.0,2.5096,2.6239,2.7087,2.7696,2.7696,2.7877,2.8179,2.82,2.82,2.82,2.82,2.82,2.82,2.82,2.82,2.82,2.82,2.82,2.82,2.82,2.82,2.82,5.3484,5.4299,5.5306,5.662,5.7602,5.7516,5.5463,5.7628,5.8701,5.6498,5.8129,5.9483,5.9483,0.0,5.24,0.0,4.7025,4.6003,0.0,4.4726,4.4336,4.418,4.334,4.2734,4.2421,4.1621,4.1117,4.0904,0.0,0.0,0.0,3.4066,3.5016,3.6182,3.6703,3.8232,4.033,3.9744,4.0027,4.0918,4.1113,4.1191,4.1191,4.1191,4.1191,4.1172,4.1035,4.0508,3.9883,3.9726,3.9198,3.8592,3.8592,3.8592,3.8592,3.8592,3.8592,3.8592,3.8592,3.869,3.8788,3.8788,3.9101,3.9355,3.9081,3.8905,3.8749,3.8631,3.8475,3.8377,3.8377,3.791,3.7383,3.6953,0.0,0.0,0.0,0.0,0.0,0.0,3.1118,3.1206,0.0,3.0421,0.0,0.0,0.0,0.0,0.0,0.0,0.0,0.0,2.3434,0.0,2.5096,2.6239,2.69,2.7087,2.7509,2.7877,2.82,2.82,2.82,2.82,2.82,2.82,2.82,2.82,2.82,2.82,2.82,2.82,2.82,2.82,2.82,2.82,5.5609,5.5918,5.6264,5.6849,5.7675,5.7785,5.6415,5.8065,5.8993,5.7613,5.8642,5.9192,5.8344,5.5791,0.0,4.9105,4.7524,0.0,4.575,4.5019,4.4492,4.4141,4.3301,4.2637,4.2187,0.0,0.0,4.0942,3.9899,3.8184,3.5855,3.6619,3.791,3.9572,3.9585,4.0178,4.1174,4.0622,4.0685,4.1191,4.1191,4.1191,4.1191,4.1191,4.1191,4.1191,4.1191,4.0742,4.0137,4.0137,3.9551,3.8827,3.8827,3.871,3.8592,3.8592,3.8592,3.8592,3.8592,3.871,3.8866,3.9042,3.9394,3.959,3.9179,3.9081,3.9003,3.8671,3.8592,3.8592,3.8592,3.8086,3.758,3.7344,0.0,0.0,0.0,0.0,0.0,0.0,0.0,0.0,0.0,3.1206,0.0,0.0,0.0,0.0,0.0,0.0,0.0,2.2722,2.379,0.0,2.5577,2.6507,2.7041,2.7141,2.7663,2.8005,2.82,2.82,2.82,2.82,2.82,2.82,2.82,2.82,2.82,2.82,2.82,2.82,2.82,2.82,2.82,2.82,5.615,5.5494,0.0,0.0,5.6077,0.0,5.6415,5.8212,5.9533,5.9508,5.9533,5.877,5.6658,5.6435,5.5527,5.3333,0.0,0.0,0.0,4.5469,4.4839,4.3957,4.2971,0.0,4.1855,4.1426,4.0957,4.0508,3.9805,3.9622,3.992,3.91,3.9598,4.1206,4.1211,4.1203,4.1184,4.121,4.1191,4.1191,4.1191,4.1191,4.1191,4.1191,4.1191,4.1191,4.1191,4.0898,4.0508,4.0508,3.9942,3.9258,3.9258,3.9003,3.8671,3.8612,3.8612,3.8631,3.8631,3.8944,3.9355,3.9785,4.0156,4.0313,3.998,3.9844,3.9589,3.8768,3.8592,3.8592,3.8592,3.7889,3.7285,3.7266,3.6152,3.5016,3.4118,0.0,0.0,0.0,0.0,0.0,0.0,3.1714,3.1885,0.0,0.0,0.0,0.0,0.0,0.0,2.3349,2.4226,2.5258,2.6433,2.7008,2.7436,2.7696,2.8045,2.82,2.82,2.82,2.82,2.82,2.82,2.82,2.82,2.82,2.82,2.82,2.82,2.82,2.82,2.82,2.82,2.82,0.0,0.0,5.7288,5.7833,5.8373,5.874,5.872,5.9503,5.994,5.9558,5.9859,5.9765,5.8828,5.874,5.7849,5.5607,5.3116,5.0502,4.7713,4.7526,4.7072,4.6123,4.4038,4.2715,4.2265,4.1562,4.0957,4.0508,4.033,4.0226,4.0196,3.9998,4.0346,4.1213,4.1187,4.119,4.121,4.1211,4.1191,4.1191,4.1191,4.1191,4.1191,4.1191,4.1191,4.1191,4.1191,4.0898,4.0508,4.0508,4.0176,3.9726,3.9726,3.9668,3.9472,3.8788,3.8827,3.9062,3.9062,3.9394,3.9766,3.9863,3.9707,3.959,3.9844,3.9394,3.8846,3.8631,3.8592,3.8592,3.8592,3.7889,3.7187,3.6892,3.5466,3.4098,3.3238,0.0,0.0,0.0,3.1816,3.2003,3.1905,3.2081,3.2242,0.0,0.0,0.0,0.0,0.0,2.3558,2.3963,2.5082,2.6005,2.6687,2.7101,2.7436,2.7696,2.8045,2.82,2.82,2.82,2.82,2.82,2.82,2.82,2.82,2.82,2.82,2.82,2.82,2.82,2.82,2.82,2.82,2.82,5.7305,5.7857,5.8434,5.8961,5.9307,5.9583,5.9834,5.989,5.9935,5.9885,5.991,5.9834,5.9533,5.9483,5.8598,5.6395,5.4911,5.25,4.8754,4.8378,4.7443,4.5454,4.3715,4.2578,4.2148,4.1523,4.1074,4.082,4.082,4.078,4.0699,4.0723,4.0898,4.1188,4.1191,4.1191,4.1191,4.1191,4.1191,4.1191,4.1191,4.1191,4.1191,4.1191,4.1191,4.1191,4.1191,4.1035,4.082,4.082,4.041,3.9922,4.0117,3.9902,3.9531,3.9276,3.9354,3.9512,3.9512,3.9707,3.9941,4.0137,4.0137,4.0077,3.9922,3.9531,3.9081,3.8671,3.8592,3.8592,3.8592,3.7889,3.709,3.6465,3.5095,3.3727,3.2672,3.1934,0.0,3.1797,3.2203,3.2554,3.273,3.2945,3.2984,3.2812,0.0,0.0,2.8262,2.5929,2.4601,2.4596,2.5631,2.6513,2.7194,2.7542,2.7791,2.7917,2.8112,2.82,2.82,2.82,2.82,2.82,2.82,2.82,2.82,2.82,2.82,2.82,2.82,2.82,2.82,2.82,2.82,2.82,5.7775,5.8278,5.8761,5.9382,5.9558,5.9784,6.0217,5.9985,5.9885,6.0242,5.991,5.9583,5.9508,5.9483,5.874,5.6857,5.6622,5.4536,4.9673,4.8936,4.7339,4.4288,4.3033,4.2246,4.1894,4.1445,4.1191,4.1191,4.1191,4.1191,4.1191,4.1191,4.1191,4.1191,4.1191,4.1191,4.1191,4.1191,4.1191,4.1191,4.1191,4.1191,4.1191,4.1191,4.1191,4.1191,4.1191,4.1191,4.1191,4.1191,4.0703,4.0156,4.0508,4.0098,3.957,3.998,4.0117,4.0078,4.0019,4.0039,4.0176,4.0508,4.0801,4.082,4.0137,3.9883,3.957,3.8846,3.869,3.8671,3.8612,3.785,3.6953,3.6135,3.4824,3.3492,3.2355,0.0,0.0,3.2237,3.2828,3.334,3.3675,3.4121,3.4079,3.334,3.0483,0.0,0.0,2.7049,2.6006,2.5861,2.6342,2.6994,2.7783,2.8058,2.82,2.82,2.82,2.82,2.82,2.82,2.82,2.82,2.82,2.82,2.82,2.82,2.82,2.82,2.82,2.82,2.82,2.82,2.82,2.82,5.77,5.7976,5.8328,5.9332,5.9885,6.0191,6.0292,6.0663,6.0763,6.0342,6.0217,5.9991,5.9533,5.9483,5.9347,5.9037,5.8555,5.6245,5.1358,5.0628,4.9183,4.6425,4.3799,4.2382,4.2304,4.1562,4.1191,4.1191,4.1191,4.1191,4.1191,4.1191,4.1191,4.1191,4.1191,4.1191,4.1191,4.1191,4.1191,4.1191,4.1191,4.1191,4.1191,4.1191,4.1191,4.1191,4.1191,4.1191,4.1191,4.1191,4.1113,4.1015,4.1074,4.0996,4.0898,4.0976,4.0996,4.0918,4.0508,4.0703,4.1015,4.1074,4.0605,4.0156,4.0352,3.9844,3.9277,3.9141,3.9101,3.9004,3.8651,3.7596,3.6619,3.6077,3.4316,3.2808,0.0,0.0,3.2242,3.2672,3.4062,3.5019,3.5078,3.5452,3.5647,3.551,3.1785,2.9793,3.0402,2.9276,2.8851,2.9316,2.8128,2.7703,2.8112,2.8165,2.82,2.82,2.82,2.82,2.82,2.82,2.82,2.82,2.82,2.82,2.82,2.82,2.82,2.82,2.82,2.82,2.82,2.82,2.82,2.82,5.7801,5.8353,5.8905,5.9408,5.9709,5.9985,6.0242,6.0286,6.0286,6.0292,6.0041,5.9784,5.9533,5.9483,5.9483,5.9483,5.9012,5.7141,5.3414,5.1687,4.9593,4.6928,4.396,4.2187,4.1758,4.1387,4.1191,4.1191,4.1191,4.1191,4.1191,4.1191,4.1191,4.1191,4.1191,4.1191,4.1191,4.1191,4.1191,4.1191,4.1191,4.1191,4.1191,4.1191,4.1191,4.1191,4.1191,4.1191,4.1191,4.1191,4.1035,4.0859,4.1113,4.1035,4.0879,4.1133,4.1191,4.1152,4.0937,4.1035,4.1191,4.1191,4.0898,4.0566,4.0508,4.0196,3.9825,3.9629,3.957,3.9434,3.9004,3.8047,3.7051,3.6155,3.4378,0.0,0.0,3.2515,3.2847,3.3711,3.4961,3.5918,3.6367,3.6387,3.6384,3.6384,3.3481,3.2069,3.297,3.1792,3.0922,3.0595,3.0004,2.9195,2.82,2.82,2.82,2.82,2.82,2.82,2.82,2.82,2.82,2.82,2.82,2.82,2.82,2.82,2.82,2.82,2.82,2.82,2.82,2.82,2.82,2.82,5.7851,5.8554,5.9207,5.9458,5.9608,5.9834,6.0242,5.996,5.9834,6.0242,5.9834,5.9483,5.9483,5.9483,5.9483,5.9483,5.8905,5.7637,5.5569,5.242,4.9483,4.6928,4.398,4.2011,4.1211,4.1191,4.1191,4.1191,4.1191,4.1191,4.1191,4.1191,4.1191,4.1191,4.1191,4.1191,4.1191,4.1191,4.1191,4.1191,4.1191,4.1191,4.1191,4.1191,4.1191,4.1191,4.1191,4.1191,4.1191,4.1191,4.0976,4.0723,4.1094,4.0937,4.0723,4.1094,4.1191,4.1191,4.1191,4.1191,4.1191,4.1191,4.1113,4.0957,4.0723,4.0567,4.041,4.0098,4.0039,3.9863,3.9297,3.84,3.7385,3.6194,0.0,0.0,0.0,3.3277,3.3789,3.4883,3.5842,3.674,3.7537,3.7322,3.7166,3.7264,3.5261,3.4396,3.5154,3.4326,3.3453,3.2633,3.1334,3.0093,2.8964,2.8452,2.82,2.82,2.82,2.82,2.82,2.82,2.82,2.82,2.82,2.82,2.82,2.82,2.82,2.82,2.82,2.82,2.82,2.82,2.82,2.82,5.77,5.7951,5.8328,5.9332,5.991,6.0242,6.0292,6.0267,6.0242,6.0292,5.9834,5.9483,5.9483,5.9483,5.9483,5.9483,5.8554,5.7895,5.7669,5.287,4.9091,4.6988,4.4,4.2011,4.1211,4.1191,4.1191,4.1191,4.1191,4.1191,4.1191,4.1191,4.1191,4.1191,4.1191,4.1191,4.1191,4.1191,4.1191,4.1191,4.1191,4.1191,4.1191,4.1191,4.1191,4.1191,4.1191,4.1191,4.1191,4.1191,4.1172,4.1152,4.1191,4.1172,4.1152,4.1191,4.1191,4.1191,4.1191,4.1191,4.1191,4.1191,4.0879,4.0645,4.1054,4.082,4.0489,4.0469,4.045,4.0196,3.9355,3.8184,3.7051,3.6155,0.0,0.0,3.4016,3.4704,3.5371,3.5842,3.7014,3.7951,3.8456,3.8475,3.8612,3.8984,3.7129,3.6041,3.6113,3.6777,3.7214,3.7387,3.1578,2.9307,3.1159,2.9181,2.82,2.82,2.82,2.82,2.82,2.82,2.82,2.82,2.82,2.82,2.82,2.82,2.82,2.82,2.82,2.82,2.82,2.82,2.82,2.82,5.7255,5.7907,5.851,5.8936,5.9458,5.9809,5.9809,5.9809,5.9809,5.9809,5.9633,5.9483,5.9483,5.9207,5.8987,5.8987,5.8328,5.775,5.738,5.3041,4.8601,4.4301,4.3,4.2011,4.1211,4.1191,4.1191,4.1191,4.1191,4.1191,4.1191,4.1191,4.1191,4.1191,4.1191,4.1191,4.1191,4.1191,4.1191,4.1191,4.1191,4.1191,4.1191,4.1191,4.1191,4.1191,4.1191,4.1191,4.1191,4.1191,4.1191,4.1191,4.1191,4.1191,4.1191,4.1191,4.1191,4.1191,4.1191,4.1191,4.1191,4.1191,4.1074,4.0976,4.1152,4.1054,4.0918,4.0918,4.0918,4.0742,4.0118,3.918,3.8281,3.7713,0.0,3.5371,3.5661,3.6208,3.6738,3.7131,3.8341,3.9219,3.9394,3.9413,3.9472,3.9609,3.8934,3.8595,3.8861,3.8171,3.8421,3.9903,3.3594,3.0592,3.1392,2.9265,2.82,2.82,2.82,2.82,2.82,2.82,2.82,2.82,2.82,2.82,2.82,2.82,2.82,2.82,2.82,2.82,2.82,2.82,2.82,2.82,5.696,5.7612,5.8284,5.8635,5.8987,5.9307,5.9458,5.9483,5.9483,5.9483,5.9483,5.9483,5.9483,5.9012,5.871,5.871,5.8033,5.743,5.7035,5.2947,4.8115,4.2641,4.2285,4.1894,4.1211,4.1191,4.1191,4.1191,4.1191,4.1191,4.1191,4.1191,4.1191,4.1191,4.1191,4.1191,4.1191,4.1191,4.1191,4.1191,4.1191,4.1191,4.1191,4.1191,4.1191,4.1191,4.1191,4.1191,4.1191,4.1191,4.1191,4.1191,4.1191,4.1191,4.1191,4.1191,4.1191,4.1191,4.1191,4.1191,4.1191,4.1191,4.1191,4.1191,4.1191,4.1191,4.1191,4.1191,4.1191,4.1054,4.0586,3.9903,3.9238,3.869,3.7615,3.6934,3.7244,3.7654,3.8066,3.8478,3.9336,3.9941,4.0078,3.998,4.0,4.0292,4.0176,4.0273,4.0703,3.9576,3.9629,4.1152,3.55,3.2443,3.2443,2.9607,2.82,2.82,2.82,2.82,2.82,2.82,2.82,2.82,2.82,2.82,2.82,2.82,2.82,2.82,2.82,2.82,2.82,2.82,2.82,2.82,5.6885,5.6985,5.7361,5.851,5.871,5.8886,5.9408,5.9483,5.9483,5.9483,5.9483,5.9483,5.9483,5.9012,5.871,5.8685,5.7637,5.6985,5.6967,5.2581,4.773,4.2661,4.2031,4.1601,4.1211,4.1191,4.1191,4.1191,4.1191,4.1191,4.1191,4.1191,4.1191,4.1191,4.1191,4.1191,4.1191,4.1191,4.1191,4.1191,4.1191,4.1191,4.1191,4.1191,4.1191,4.1191,4.1191,4.1191,4.1191,4.1191,4.1191,4.1191,4.1191,4.1191,4.1191,4.1191,4.1191,4.1191,4.1191,4.1191,4.1191,4.1191,4.1191,4.1191,4.1191,4.1191,4.1191,4.1191,4.1191,4.1054,4.0586,4.0195,3.9609,3.8749,3.8612,3.8612,3.8612,3.8964,3.9375,3.9844,3.9902,4.0078,4.0469,4.0137,4.0273,4.1133,4.0781,4.0723,4.1172,4.1191,4.1191,4.1191,3.7,3.4712,3.4692,3.0385,2.82,2.82,2.82,2.82,2.82,2.82,2.82,2.82,2.82,2.82,2.82,2.82,2.82,2.82,2.82,2.82,2.82,2.82,2.82,2.82,5.5917,5.6821,5.775,5.8077,5.8755,5.9307,5.9483,5.9483,5.9483,5.9483,5.9483,5.9357,5.8961,5.8786,5.8384,5.7562,5.7186,5.621,5.4367,5.1011,4.777,4.4779,4.3081,4.1894,4.1211,4.1191,4.1191,4.1191,4.1191,4.1191,4.1191,4.1191,4.1191,4.1191,4.1191,4.1191,4.1191,4.1191,4.1191,4.1191,4.1191,4.1191,4.1191,4.1191,4.1191,4.1191,4.1191,4.1191,4.1191,4.1191,4.1191,4.1191,4.1191,4.1191,4.1191,4.1191,4.1191,4.1191,4.1191,4.1191,4.1191,4.1191,4.1191,4.1191,4.1191,4.1191,4.1191,4.1191,4.1191,4.1152,4.1015,4.0625,4.0235,3.998,3.9687,3.9511,3.9511,3.9863,4.0157,4.0293,4.0605,4.0859,4.0996,4.0879,4.0918,4.1172,4.1074,4.1054,4.1191,4.1191,4.1191,4.1191,3.8429,3.6221,3.4712,3.0385,2.82,2.82,2.82,2.82,2.82,2.82,2.82,2.82,2.82,2.82,2.82,2.82,2.82,2.82,2.82,2.82,2.82,2.82,2.82,2.82,5.5792,5.652,5.7374,5.7826,5.8428,5.9006,5.9433,5.9483,5.9483,5.9483,5.9307,5.9137,5.9012,5.8635,5.8108,5.743,5.6953,5.5929,5.4112,5.0823,4.8202,4.6593,4.371,4.1855,4.1211,4.1191,4.1191,4.1191,4.1191,4.1191,4.1191,4.1191,4.1191,4.1191,4.1191,4.1191,4.1191,4.1191,4.1191,4.1191,4.1191,4.1191,4.1191,4.1191,4.1191,4.1191,4.1191,4.1191,4.1191,4.1191,4.1191,4.1191,4.1191,4.1191,4.1191,4.1191,4.1191,4.1191,4.1191,4.1191,4.1191,4.1191,4.1191,4.1191,4.1191,4.1191,4.1191,4.1191,4.1191,4.1191,4.1191,4.0957,4.0781,4.0781,4.0566,4.0429,4.0429,4.0625,4.0781,4.0781,4.1035,4.1191,4.1191,4.1191,4.1191,4.1191,4.1191,4.1191,4.1191,4.1191,4.1191,4.1191,3.904,3.6862,3.4712,3.1221,2.9048,2.82,2.82,2.82,2.82,2.82,2.82,2.82,2.82,2.82,2.82,2.82,2.82,2.82,2.82,2.82,2.82,2.82,2.82,2.82,5.6143,5.62,5.662,5.77,5.7901,5.8252,5.9332,5.9408,5.9357,5.9408,5.8961,5.8811,5.9307,5.8478,5.7876,5.7826,5.6846,5.5993,5.5491,5.1774,4.9185,4.8275,4.4446,4.215,4.1734,4.1386,4.1191,4.1191,4.1191,4.1191,4.1191,4.1191,4.1191,4.1191,4.1191,4.1191,4.1191,4.1191,4.1191,4.1191,4.1191,4.1191,4.1191,4.1191,4.1191,4.1191,4.1191,4.1191,4.1191,4.1191,4.1191,4.1191,4.1191,4.1191,4.1191,4.1191,4.1191,4.1191,4.1191,4.1191,4.1191,4.1191,4.1191,4.1191,4.1191,4.1191,4.1191,4.1191,4.1191,4.1191,4.1191,4.1191,4.1191,4.1191,4.1191,4.1191,4.1191,4.1191,4.1191,4.1191,4.1191,4.1191,4.1191,4.1191,4.1191,4.1191,4.1191,4.1191,4.1191,4.1191,4.1191,4.1191,3.9256,3.7162,3.4995,3.2797,3.053,2.82,2.82,2.82,2.82,2.82,2.82,2.82,2.82,2.82,2.82,2.82,2.82,2.82,2.82,2.82,2.82,2.82,2.82,2.82,5.5566,5.6251,5.7054,5.7775,5.7901,5.8252,5.9332,5.878,5.8403,5.8811,5.8403,5.8127,5.8227,5.8052,5.7725,5.7255,5.6577,5.615,5.6043,5.3377,5.1492,5.0815,4.8086,4.6317,4.5741,4.2751,4.1191,4.1191,4.1191,4.1191,4.1191,4.1191,4.1191,4.1191,4.1191,4.1191,4.1191,4.1191,4.1191,4.1191,4.1191,4.1191,4.1191,4.1191,4.1191,4.1191,4.1191,4.1191,4.1191,4.1191,4.1191,4.1191,4.1191,4.1191,4.1191,4.1191,4.1191,4.1191,4.1191,4.1191,4.1191,4.1191,4.1191,4.1191,4.1191,4.1191,4.1191,4.1191,4.1191,4.1191,4.1191,4.1191,4.1191,4.1191,4.1191,4.1191,4.1191,4.1191,4.1191,4.1191,4.1191,4.1191,4.1191,4.1191,4.1191,4.1191,4.1191,4.1191,4.1191,4.1191,4.1191,4.1191,4.0743,3.9433,3.7239,3.5056,3.2031,2.82,2.82,2.82,2.82,2.82,2.82,2.82,2.82,2.82,2.82,2.82,2.82,2.82,2.82,2.82,2.82,2.82,2.82,2.82,5.5792,5.6226,5.6803,5.738,5.7455,5.7832,5.8956,5.8428,5.8102,5.8635,5.7983,5.76,5.7876,5.765,5.7355,5.7035,5.6502,5.6093,5.5842,5.3473,5.1831,5.1228,4.8809,4.7338,4.7014,4.4117,4.2579,4.2579,4.1657,4.1191,4.1191,4.1191,4.1191,4.1191,4.1191,4.1191,4.1191,4.1191,4.1191,4.1191,4.1191,4.1191,4.1191,4.1191,4.1191,4.1191,4.1191,4.1191,4.1191,4.1191,4.1191,4.1191,4.1191,4.1191,4.1191,4.1191,4.1191,4.1191,4.1191,4.1191,4.1191,4.1191,4.1191,4.1191,4.1191,4.1191,4.1191,4.1191,4.1191,4.1191,4.1191,4.1191,4.1191,4.1191,4.1191,4.1191,4.1191,4.1191,4.1191,4.1191,4.1191,4.1191,4.1191,4.1191,4.1191,4.1191,4.1191,4.1191,4.1191,4.1191,4.1191,4.1191,4.1191,4.0138,3.7916,3.6782,3.457,3.1283,3.0218,2.9181,2.8221,2.9265,2.916,2.82,2.82,2.82,2.82,2.82,2.82,2.82,2.82,2.82,2.82,2.82,2.82,2.82,5.6175,5.62,5.6376,5.691,5.6985,5.7387,5.8535,5.8177,5.7932,5.8485,5.7581,5.7104,5.7681,5.7305,5.696,5.686,5.6451,5.6018,5.5566,5.3472,5.2,5.1453,4.9316,4.8104,4.8017,4.609,4.4771,4.4115,4.2138,4.1191,4.1191,4.1191,4.1191,4.1191,4.1191,4.1191,4.1191,4.1191,4.1191,4.1191,4.1191,4.1191,4.1191,4.1191,4.1191,4.1191,4.1191,4.1191,4.1191,4.1191,4.1191,4.1191,4.1191,4.1191,4.1191,4.1191,4.1191,4.1191,4.1191,4.1191,4.1191,4.1191,4.1191,4.1191,4.1191,4.1191,4.1191,4.1191,4.1191,4.1191,4.1191,4.1191,4.1191,4.1191,4.1191,4.1191,4.1191,4.1191,4.1191,4.1191,4.1191,4.1191,4.1191,4.1191,4.1191,4.1191,4.1191,4.1191,4.1191,4.1191,4.1191,4.1191,4.1191,4.0314,3.8469,3.8074,3.7002,3.5218,3.339,3.1407,2.937,3.1159,3.0786,2.8754,2.8754,2.8537,2.82,2.82,2.841,2.8754,2.8754,2.8985,2.9307,2.9307,2.9307,2.9307,5.61,5.62,5.6376,5.691,5.6985,5.7387,5.8535,5.7807,5.7355,5.7926,5.7022,5.6527,5.706,5.7035,5.6809,5.6351,5.6226,5.615,5.6118,5.5331,5.4655,5.4124,5.3261,5.2582,5.2102,5.0198,4.7522,4.4115,4.2138,4.1191,4.1191,4.1191,4.1191,4.1191,4.1191,4.1191,4.1191,4.1191,4.1191,4.1191,4.1191,4.1191,4.1191,4.1191,4.1191,4.1191,4.1191,4.1191,4.1191,4.1191,4.1191,4.1191,4.1191,4.1191,4.1191,4.1191,4.1191,4.1191,4.1191,4.1191,4.1191,4.1191,4.1191,4.1191,4.1191,4.1191,4.1191,4.1191,4.1191,4.1191,4.1191,4.1191,4.1191,4.1191,4.1191,4.1191,4.1191,4.1191,4.1191,4.1191,4.1191,4.1191,4.1191,4.1191,4.1191,4.1191,4.1191,4.1191,4.1191,4.1191,4.1191,4.1191,4.1191,4.1055,4.0763,3.8863,3.7757,3.746,3.7162,3.5903,3.3818,3.4124,3.3042,3.0972,3.0972,2.992,2.82,2.82,2.9286,3.0972,3.0972,3.2134,3.3818,3.3818,3.3818,3.3818,5.615,5.62,5.6376,5.691,5.6985,5.7387,5.8535,5.7713,5.723,5.7826,5.6922,5.6276,5.6527,5.6552,5.6451,5.6226,5.62,5.62,5.62,5.5433,5.4848,5.4622,5.3733,5.3138,5.2895,5.0981,4.9135,4.7394,4.4323,4.2254,4.1191,4.1191,4.1191,4.1191,4.1191,4.1191,4.1191,4.1191,4.1191,4.1191,4.1191,4.1191,4.1191,4.1191,4.1191,4.1191,4.1191,4.1191,4.1191,4.1191,4.1191,4.1191,4.1191,4.1191,4.1191,4.1191,4.1191,4.1191,4.1191,4.1191,4.1191,4.1191,4.1191,4.1191,4.1191,4.1191,4.1191,4.1191,4.1191,4.1191,4.1191,4.1191,4.1191,4.1191,4.1191,4.1191,4.1191,4.1191,4.1191,4.1191,4.1191,4.1191,4.1191,4.1191,4.1191,4.1191,4.1191,4.1191,4.1191,4.1191,4.1191,4.1191,4.1191,4.1191,4.1191,4.0236,3.9728,3.9728,3.9728,3.7955,3.4732,3.594,3.5298,3.3165,3.1949,3.1557,3.1737,3.0509,3.1283,3.3247,3.3247,3.3839,3.4692,3.4692,3.4692,3.4692]}]]